[[{"header":{"parameterUnit":"m.s-1","parameterCategory":1,"la1":30.6,"la2":28.766,"lo1":-90.7593,"lo2":-88.6598,"dx":0.0162,"dy":0.0183,"nx":116,"ny":114,"refTime":"2023-02-12T06:00:00:Z","depth":0,"parameterNumber":2,"parameterNumberName":"U-component_of_WINDS"},"data":[0.0,0.0,0.0,0.0,0.0,0.0,0.0,0.0,0.0,0.0,0.0,0.0,0.0,0.0,0.0,0.0,0.0,0.0,0.0,0.0,0.0,0.0,0.0,0.0,0.0,0.0,0.0,0.0,0.0,0.0,0.0,0.0,0.0,0.0,0.0,0.0,0.0,0.0,0.0,0.0,0.0,0.0,0.0,0.0,0.0,0.0,0.0,0.0,0.0,0.0,0.0,0.0,0.0,0.0,0.0,0.0,0.0,0.0,0.0,0.0,0.0,0.0,0.0,0.0,0.0,0.0,0.0,0.0,0.0,0.0,0.0,0.0,0.0,0.0,0.0,0.0,0.0,0.0,0.0,0.0,0.0,0.0,0.0,0.0,0.0,0.0,0.0,0.0,0.0,0.0,0.0,0.0,0.0,0.0,0.0,0.0,0.0,0.0,0.0,0.0,0.0,0.0,0.0,0.0,0.0,0.0,0.0,0.0,0.0,0.0,0.0,0.0,0.0,0.0,0.0,0.0,0.0,0.0,0.0,0.0,0.0,0.0,0.0,0.0,0.0,0.0,0.0,0.0,0.0,0.0,0.0,0.0,0.0,0.0,0.0,0.0,0.0,0.0,0.0,0.0,0.0,0.0,0.0,0.0,0.0,0.0,0.0,0.0,0.0,0.0,0.0,0.0,0.0,0.0,0.0,0.0,0.0,0.0,0.0,0.0,0.0,0.0,0.0,0.0,0.0,0.0,0.0,0.0,0.0,0.0,0.0,0.0,0.0,0.0,0.0,0.0,0.0,0.0,0.0,0.0,0.0,0.0,0.0,0.0,0.0,0.0,0.0,0.0,0.0,0.0,0.0,0.0,0.0,0.0,0.0,0.0,0.0,0.0,0.0,0.0,0.0,0.0,0.0,0.0,0.0,0.0,0.0,0.0,0.0,0.0,0.0,0.0,0.0,0.0,0.0,0.0,0.0,0.0,0.0,0.0,0.0,0.0,0.0,0.0,0.0,0.0,0.0,0.0,0.0,0.0,0.0,0.0,0.0,0.0,0.0,0.0,0.0,0.0,0.0,0.0,0.0,0.0,0.0,0.0,0.0,0.0,0.0,0.0,0.0,0.0,0.0,0.0,0.0,0.0,0.0,0.0,0.0,0.0,0.0,0.0,0.0,0.0,0.0,0.0,0.0,0.0,0.0,0.0,0.0,0.0,0.0,0.0,0.0,0.0,0.0,0.0,0.0,0.0,0.0,0.0,0.0,0.0,0.0,0.0,0.0,0.0,0.0,0.0,0.0,0.0,0.0,0.0,0.0,0.0,0.0,0.0,0.0,0.0,0.0,0.0,0.0,0.0,0.0,0.0,0.0,0.0,0.0,0.0,0.0,0.0,0.0,0.0,0.0,0.0,0.0,0.0,0.0,0.0,0.0,0.0,0.0,0.0,0.0,0.0,0.0,0.0,0.0,0.0,0.0,0.0,0.0,0.0,0.0,0.0,0.0,0.0,0.0,0.0,0.0,0.0,0.0,0.0,0.0,0.0,0.0,0.0,0.0,0.0,0.0,0.0,0.0,0.0,0.0,0.0,0.0,0.0,0.0,0.0,0.0,0.0,0.0,0.0,0.0,0.0,0.0,0.0,0.0,0.0,0.0,0.0,0.0,0.0,0.0,0.0,0.0,0.0,0.0,0.0,0.0,0.0,0.0,0.0,0.0,0.0,0.0,0.0,0.0,0.0,0.0,0.0,0.0,0.0,0.0,0.0,0.0,0.0,0.0,0.0,0.0,0.0,0.0,0.0,0.0,0.0,0.0,0.0,0.0,0.0,0.0,0.0,0.0,0.0,0.0,0.0,0.0,0.0,0.0,0.0,0.0,0.0,0.0,0.0,0.0,0.0,0.0,0.0,0.0,0.0,0.0,0.0,0.0,0.0,0.0,0.0,0.0,0.0,0.0,0.0,0.0,0.0,0.0,0.0,0.0,0.0,0.0,0.0,0.0,0.0,0.0,0.0,0.0,0.0,0.0,0.0,0.0,0.0,0.0,0.0,0.0,0.0,0.0,0.0,0.0,0.0,0.0,0.0,0.0,0.0,0.0,0.0,0.0,0.0,0.0,0.0,0.0,0.0,0.0,0.0,0.0,0.0,0.0,0.0,0.0,0.0,0.0,0.0,0.0,0.0,0.0,0.0,0.0,0.0,0.0,0.0,0.0,0.0,0.0,0.0,0.0,0.0,0.0,0.0,0.0,0.0,0.0,0.0,0.0,0.0,0.0,0.0,0.0,0.0,0.0,0.0,0.0,0.0,0.0,0.0,0.0,0.0,0.0,0.0,0.0,0.0,0.0,0.0,0.0,0.0,0.0,0.0,0.0,0.0,0.0,0.0,0.0,0.0,0.0,0.0,0.0,0.0,0.0,0.0,0.0,0.0,0.0,0.0,0.0,0.0,0.0,0.0,0.0,0.0,0.0,0.0,0.0,0.0,0.0,0.0,0.0,0.0,0.0,0.0,0.0,0.0,0.0,0.0,0.0,0.0,0.0,0.0,0.0,0.0,0.0,0.0,0.0,0.0,0.0,0.0,0.0,0.0,0.0,0.0,0.0,0.0,0.0,0.0,0.0,0.0,0.0,0.0,0.0,0.0,0.0,0.0,0.0,0.0,0.0,0.0,0.0,0.0,0.0,0.0,0.0,0.0,0.0,0.0,0.0,0.0,0.0,0.0,0.0,0.0,0.0,0.0,0.0,0.0,0.0,0.0,0.0,0.0,0.0,0.0,0.0,0.0,0.0,0.0,0.0,0.0,0.0,0.0,0.0,0.0,0.0,0.0,0.0,0.0,0.0,0.0,0.0,0.0,0.0,0.0,0.0,0.0,0.0,0.0,0.0,0.0,0.0,0.0,0.0,0.0,0.0,0.0,0.0,0.0,0.0,0.0,0.0,0.0,0.0,0.0,0.0,0.0,0.0,0.0,0.0,0.0,0.0,0.0,0.0,0.0,0.0,0.0,0.0,0.0,0.0,0.0,0.0,0.0,0.0,0.0,0.0,0.0,0.0,0.0,0.0,0.0,0.0,0.0,0.0,0.0,0.0,0.0,0.0,0.0,0.0,0.0,0.0,0.0,0.0,0.0,0.0,0.0,0.0,0.0,0.0,0.0,0.0,0.0,0.0,0.0,0.0,0.0,0.0,0.0,0.0,0.0,0.0,0.0,0.0,0.0,0.0,0.0,0.0,0.0,0.0,0.0,0.0,0.0,0.0,0.0,0.0,0.0,0.0,0.0,0.0,0.0,0.0,0.0,0.0,0.0,0.0,0.0,0.0,0.0,0.0,0.0,0.0,0.0,0.0,0.0,0.0,0.0,0.0,0.0,0.0,0.0,0.0,0.0,0.0,0.0,0.0,0.0,0.0,0.0,0.0,0.0,0.0,0.0,0.0,0.0,0.0,0.0,0.0,0.0,0.0,0.0,0.0,0.0,0.0,0.0,0.0,0.0,0.0,0.0,0.0,0.0,0.0,0.0,0.0,0.0,0.0,0.0,0.0,0.0,0.0,0.0,0.0,0.0,0.0,0.0,0.0,0.0,0.0,0.0,0.0,0.0,0.0,0.0,0.0,0.0,0.0,0.0,0.0,0.0,0.0,0.0,0.0,0.0,0.0,0.0,0.0,0.0,0.0,0.0,0.0,0.0,0.0,0.0,0.0,0.0,0.0,0.0,0.0,0.0,0.0,0.0,0.0,0.0,0.0,0.0,0.0,0.0,0.0,0.0,0.0,0.0,0.0,0.0,0.0,0.0,0.0,0.0,0.0,0.0,0.0,0.0,0.0,0.0,0.0,0.0,0.0,0.0,0.0,0.0,0.0,0.0,0.0,0.0,0.0,0.0,0.0,0.0,0.0,0.0,0.0,0.0,0.0,0.0,0.0,0.0,0.0,0.0,0.0,0.0,0.0,0.0,0.0,0.0,0.0,0.0,0.0,0.0,0.0,0.0,0.0,0.0,0.0,0.0,0.0,0.0,0.0,0.0,0.0,0.0,0.0,0.0,0.0,0.0,0.0,0.0,0.0,0.0,0.0,0.0,0.0,0.0,0.0,0.0,0.0,0.0,0.0,0.0,0.0,0.0,0.0,0.0,0.0,0.0,0.0,0.0,0.0,0.0,0.0,0.0,0.0,0.0,0.0,0.0,0.0,0.0,0.0,0.0,0.0,0.0,0.0,0.0,0.0,0.0,0.0,0.0,0.0,0.0,0.0,0.0,0.0,0.0,0.0,0.0,0.0,0.0,0.0,0.0,0.0,0.0,0.0,0.0,0.0,0.0,0.0,0.0,0.0,0.0,0.0,0.0,0.0,0.0,0.0,0.0,0.0,0.0,0.0,0.0,0.0,0.0,0.0,0.0,0.0,0.0,0.0,0.0,0.0,0.0,0.0,0.0,0.0,0.0,0.0,0.0,0.0,0.0,0.0,0.0,0.0,0.0,0.0,0.0,0.0,0.0,0.0,0.0,0.0,0.0,0.0,0.0,0.0,0.0,0.0,0.0,0.0,0.0,0.0,0.0,0.0,0.0,0.0,0.0,0.0,0.0,0.0,0.0,0.0,0.0,0.0,0.0,0.0,0.0,0.0,0.0,0.0,0.0,0.0,0.0,0.0,0.0,0.0,0.0,0.0,0.0,0.0,0.0,0.0,0.0,0.0,0.0,0.0,0.0,0.0,0.0,0.0,0.0,0.0,0.0,0.0,0.0,0.0,0.0,0.0,0.0,0.0,0.0,0.0,0.0,0.0,0.0,0.0,0.0,0.0,0.0,0.0,0.0,0.0,0.0,0.0,0.0,0.0,0.0,0.0,0.0,0.0,0.0,0.0,0.0,0.0,0.0,0.0,0.0,0.0,0.0,0.0,0.0,0.0,0.0,0.0,0.0,0.0,0.0,0.0,0.0,0.0,0.0,0.0,0.0,0.0,0.0,0.0,0.0,0.0,0.0,0.0,0.0,0.0,0.0,0.0,0.0,0.0,0.0,0.0,0.0,0.0,0.0,0.0,0.0,0.0,0.0,0.0,0.0,0.0,0.0,0.0,0.0,0.0,0.0,0.0,0.0,0.0,0.0,0.0,0.0,0.0,0.0,0.0,0.0,0.0,0.0,0.0,0.0,0.0,0.0,0.0,0.0,0.0,0.0,0.0,0.0,0.0,0.0,0.0,0.0,0.0,0.0,0.0,0.0,0.0,0.0,0.0,0.0,0.0,0.0,0.0,0.0,0.0,0.0,0.0,0.0,0.0,0.0,0.0,0.0,0.0,0.0,0.0,0.0,0.0,0.0,0.0,0.0,0.0,0.0,0.0,0.0,0.0,0.0,0.0,0.0,0.0,0.0,0.0,0.0,0.0,0.0,0.0,0.0,0.0,0.0,0.0,0.0,0.0,0.0,0.0,0.0,0.0,0.0,0.0,0.0,0.0,0.0,0.0,0.0,0.0,0.0,0.0,0.0,0.0,0.0,0.0,0.0,0.0,0.0,0.0,0.0,0.0,0.0,0.0,0.0,0.0,0.0,0.0,0.0,0.0,0.0,0.0,0.0,0.0,0.0,0.0,0.0,0.0,0.0,0.0,0.0,0.0,0.0,0.0,0.0,0.0,0.0,0.0,0.0,0.0,0.0,0.0,0.0,0.0,0.0,0.0,0.0,0.0,0.0,0.0,0.0,0.0,0.0,0.0,0.0,0.0,0.0,0.0,0.0,0.0,0.0,0.0,0.0,0.0,0.0,0.0,0.0,0.0,0.0,0.0,0.0,0.0,0.0,0.0,0.0,0.0,0.0,0.0,0.0,0.0,0.0,0.0,0.0,0.0,0.0,0.0,0.0,0.0,0.0,0.0,0.0,0.0,0.0,0.0,0.0,0.0,0.0,0.0,0.0,0.0,0.0,0.0,0.0,0.0,0.0,0.0,0.0,0.0,0.0,0.0,0.0,0.0,0.0,0.0,0.0,0.0,0.0,0.0,0.0,0.0,0.0,0.0,0.0,0.0,0.0,0.0,0.0,0.0,0.0,0.0,0.0,0.0,0.0,0.0,0.0,0.0,0.0,0.0,0.0,0.0,0.0,0.0,0.0,0.0,0.0,0.0,0.0,0.0,0.0,7.1804,0.0,0.0,0.0,0.0,0.0,0.0,0.0,0.0,0.0,0.0,0.0,0.0,0.0,0.0,0.0,0.0,0.0,0.0,0.0,0.0,0.0,0.0,0.0,0.0,0.0,0.0,0.0,0.0,0.0,0.0,0.0,0.0,0.0,0.0,0.0,0.0,0.0,0.0,0.0,0.0,0.0,0.0,0.0,0.0,0.0,0.0,0.0,0.0,0.0,0.0,0.0,0.0,0.0,0.0,0.0,0.0,0.0,0.0,0.0,0.0,0.0,0.0,0.0,0.0,0.0,0.0,0.0,0.0,0.0,0.0,0.0,0.0,0.0,0.0,0.0,0.0,0.0,0.0,0.0,0.0,0.0,0.0,0.0,0.0,0.0,0.0,0.0,0.0,0.0,0.0,0.0,0.0,0.0,0.0,0.0,0.0,0.0,0.0,0.0,0.0,0.0,0.0,0.0,0.0,0.0,0.0,0.0,0.0,0.0,0.0,0.0,0.0,0.0,0.0,0.0,0.0,7.2101,0.0,0.0,0.0,0.0,0.0,0.0,0.0,0.0,0.0,0.0,0.0,0.0,0.0,0.0,0.0,0.0,0.0,0.0,0.0,0.0,0.0,0.0,0.0,0.0,0.0,0.0,0.0,0.0,0.0,0.0,0.0,0.0,0.0,0.0,0.0,0.0,0.0,0.0,0.0,0.0,0.0,0.0,0.0,0.0,0.0,0.0,0.0,0.0,0.0,0.0,0.0,0.0,0.0,0.0,0.0,0.0,0.0,0.0,0.0,0.0,0.0,0.0,0.0,0.0,0.0,0.0,0.0,0.0,0.0,0.0,0.0,0.0,0.0,0.0,0.0,0.0,0.0,0.0,0.0,0.0,0.0,0.0,0.0,0.0,0.0,0.0,0.0,0.0,0.0,0.0,0.0,0.0,0.0,0.0,0.0,0.0,0.0,0.0,0.0,0.0,0.0,0.0,0.0,0.0,0.0,0.0,0.0,0.0,7.3707,7.3783,7.3937,7.3937,7.3937,7.3937,7.3937,7.3716,7.3351,7.3351,0.0,0.0,0.0,0.0,0.0,0.0,0.0,0.0,0.0,0.0,0.0,0.0,0.0,0.0,0.0,0.0,0.0,0.0,0.0,0.0,0.0,0.0,0.0,0.0,0.0,0.0,0.0,0.0,0.0,0.0,0.0,0.0,0.0,0.0,0.0,0.0,0.0,0.0,0.0,0.0,0.0,0.0,0.0,0.0,0.0,0.0,0.0,0.0,0.0,0.0,0.0,0.0,0.0,0.0,0.0,0.0,0.0,0.0,0.0,0.0,0.0,0.0,0.0,0.0,0.0,0.0,0.0,0.0,0.0,0.0,0.0,0.0,0.0,0.0,0.0,0.0,0.0,0.0,0.0,0.0,0.0,0.0,0.0,0.0,0.0,0.0,6.8062,6.8206,0.0,0.0,0.0,0.0,0.0,0.0,0.0,0.0,0.0,0.0,0.0,0.0,0.0,7.3322,7.3322,7.3437,7.386,7.4553,7.4553,7.4938,7.5668,7.5668,7.5668,7.5668,7.5668,0.0,7.3447,7.3447,0.0,0.0,0.0,0.0,0.0,0.0,0.0,0.0,0.0,0.0,0.0,0.0,0.0,0.0,0.0,0.0,0.0,0.0,0.0,0.0,0.0,0.0,0.0,0.0,0.0,0.0,0.0,0.0,0.0,0.0,0.0,0.0,0.0,0.0,0.0,0.0,0.0,0.0,0.0,0.0,0.0,0.0,0.0,0.0,0.0,0.0,0.0,0.0,0.0,0.0,0.0,0.0,0.0,0.0,0.0,0.0,0.0,0.0,0.0,0.0,0.0,0.0,0.0,0.0,0.0,0.0,0.0,0.0,0.0,0.0,0.0,0.0,0.0,0.0,0.0,0.0,0.0,0.0,0.0,0.0,0.0,0.0,0.0,0.0,0.0,6.8272,6.8608,6.9624,6.925,6.9201,0.0,0.0,0.0,0.0,0.0,0.0,0.0,0.0,0.0,7.4168,7.4168,7.4399,7.4899,7.4899,7.5091,7.5438,7.5438,7.563,7.6015,7.6015,7.6015,7.6015,7.6015,7.5592,7.4899,7.4899,7.487,7.4849,0.0,0.0,0.0,0.0,7.4781,7.4819,0.0,0.0,0.0,0.0,0.0,0.0,0.0,0.0,0.0,0.0,0.0,0.0,0.0,0.0,0.0,6.5897,0.0,0.0,0.0,0.0,0.0,0.0,0.0,0.0,0.0,0.0,0.0,0.0,0.0,0.0,0.0,0.0,0.0,0.0,0.0,0.0,0.0,0.0,0.0,0.0,0.0,0.0,0.0,0.0,0.0,0.0,0.0,0.0,0.0,0.0,0.0,0.0,0.0,0.0,0.0,0.0,0.0,0.0,0.0,0.0,0.0,0.0,0.0,0.0,0.0,0.0,0.0,0.0,0.0,0.0,0.0,0.0,0.0,0.0,0.0,0.0,0.0,6.9173,6.9536,7.1052,7.0612,7.0574,0.0,0.0,0.0,0.0,0.0,0.0,7.3822,7.3822,7.4168,7.5014,7.5014,7.5361,7.5976,7.6015,7.6015,7.6015,7.6015,7.6015,7.6015,7.6015,7.6015,7.6015,7.6015,7.6015,7.6015,7.6015,7.5985,7.5925,7.5925,7.5856,7.5794,7.5895,7.5925,7.5925,0.0,0.0,0.0,0.0,0.0,0.0,0.0,0.0,0.0,0.0,0.0,0.0,0.0,0.0,6.5897,6.5897,6.5897,6.5897,0.0,0.0,0.0,0.0,0.0,0.0,0.0,0.0,0.0,0.0,0.0,0.0,0.0,0.0,0.0,0.0,0.0,0.0,0.0,0.0,0.0,0.0,0.0,0.0,0.0,0.0,0.0,0.0,0.0,0.0,0.0,0.0,0.0,0.0,0.0,0.0,0.0,0.0,0.0,0.0,0.0,0.0,0.0,0.0,0.0,0.0,0.0,0.0,0.0,0.0,0.0,0.0,0.0,0.0,0.0,0.0,0.0,0.0,0.0,0.0,0.0,7.2014,7.2091,0.0,0.0,0.0,0.0,7.3437,7.3476,7.3822,7.4591,7.463,7.5053,7.5899,7.5938,7.5976,7.6015,7.6015,7.6015,7.6015,7.6015,7.6015,7.6015,7.6015,7.6015,7.6015,7.6015,7.6015,7.6015,7.6015,7.6015,7.6015,7.6015,7.6015,7.6015,7.6015,7.6015,7.6015,0.0,0.0,0.0,0.0,0.0,0.0,0.0,0.0,0.0,0.0,0.0,0.0,0.0,6.5897,6.5897,6.5897,6.5897,6.5897,6.5897,0.0,0.0,0.0,0.0,0.0,0.0,0.0,0.0,0.0,0.0,0.0,0.0,0.0,0.0,0.0,0.0,0.0,0.0,0.0,0.0,0.0,0.0,0.0,0.0,0.0,0.0,0.0,0.0,0.0,0.0,0.0,0.0,0.0,0.0,0.0,0.0,0.0,0.0,0.0,0.0,0.0,0.0,0.0,0.0,0.0,0.0,0.0,0.0,0.0,0.0,0.0,0.0,0.0,0.0,0.0,0.0,0.0,0.0,0.0,0.0,7.2937,7.3053,0.0,7.3476,7.3976,7.4284,7.4284,7.4784,7.5245,7.5515,7.5553,7.5668,7.5976,7.6015,7.6015,7.6015,7.6015,7.6015,7.6015,7.6015,7.6015,7.6015,7.6015,7.6015,7.6015,7.6015,7.6015,7.6015,7.6015,7.6015,7.6015,7.6015,7.6015,7.6015,7.6015,7.6015,7.6015,0.0,0.0,0.0,0.0,0.0,0.0,0.0,0.0,0.0,0.0,0.0,6.5897,6.5897,6.5897,6.5897,6.5897,6.5897,6.5897,6.5897,0.0,0.0,0.0,0.0,0.0,0.0,0.0,0.0,0.0,0.0,0.0,0.0,0.0,0.0,0.0,0.0,0.0,0.0,0.0,0.0,0.0,0.0,0.0,7.0052,0.0,0.0,0.0,0.0,0.0,0.0,0.0,0.0,0.0,0.0,0.0,0.0,0.0,0.0,0.0,0.0,0.0,0.0,0.0,0.0,0.0,0.0,0.0,0.0,0.0,0.0,0.0,0.0,0.0,0.0,0.0,0.0,0.0,0.0,0.0,7.2937,7.3822,7.3899,7.4014,7.4322,7.4822,7.513,7.513,7.5668,7.6015,7.6015,7.6015,7.6015,7.6015,7.6015,7.6015,7.6015,7.6015,7.6015,7.6015,7.6015,7.6015,7.6015,7.6015,7.6015,7.6015,7.6015,7.6015,7.6015,7.6015,7.6015,7.6015,7.6015,7.6015,7.6015,7.6015,7.6015,7.6015,0.0,0.0,0.0,0.0,0.0,0.0,0.0,0.0,0.0,0.0,6.5897,6.5897,6.5897,6.5897,6.5897,6.5897,6.5897,6.5897,6.5897,6.5897,0.0,0.0,0.0,0.0,0.0,0.0,0.0,0.0,0.0,0.0,0.0,0.0,0.0,0.0,0.0,0.0,0.0,0.0,0.0,0.0,0.0,0.0,7.0898,0.0,0.0,0.0,0.0,0.0,0.0,0.0,0.0,0.0,0.0,0.0,0.0,0.0,0.0,0.0,0.0,0.0,0.0,0.0,0.0,0.0,0.0,0.0,0.0,0.0,0.0,0.0,0.0,0.0,0.0,0.0,0.0,0.0,7.3321,7.3457,7.386,7.463,7.4745,7.5091,7.5938,7.6015,7.6015,7.6015,7.6015,7.6015,7.6015,7.6015,7.6015,7.6015,7.6015,7.6015,7.6015,7.6015,7.6015,7.6015,7.6015,7.6015,7.6015,7.6015,7.6015,7.6015,7.6015,7.6053,7.6053,7.6053,7.6092,7.6053,7.6015,7.6015,7.6015,7.6015,7.6015,7.6015,0.0,0.0,0.0,0.0,0.0,0.0,0.0,0.0,0.0,0.0,6.5897,6.5897,6.5897,6.5897,6.5897,6.5897,6.5897,6.5897,6.5897,0.0,0.0,0.0,0.0,0.0,0.0,0.0,0.0,0.0,0.0,0.0,0.0,0.0,0.0,0.0,0.0,0.0,0.0,0.0,0.0,0.0,0.0,0.0,7.0898,0.0,0.0,0.0,0.0,0.0,0.0,0.0,0.0,0.0,0.0,0.0,0.0,0.0,0.0,0.0,0.0,0.0,0.0,0.0,0.0,0.0,0.0,0.0,0.0,0.0,0.0,0.0,0.0,0.0,0.0,0.0,0.0,7.4332,7.4332,7.4332,7.4707,7.5553,7.563,7.5745,7.5976,7.6015,7.6015,7.6015,7.6015,7.6015,7.6015,7.6015,7.6015,7.6015,7.6015,7.6015,7.6015,7.6015,7.6015,7.6015,7.6015,7.6015,7.6015,7.6015,7.6015,7.6053,7.6669,7.6938,7.6976,7.7553,7.7823,7.7669,7.6476,7.6015,7.6015,7.6015,7.6015,7.6015,0.0,0.0,0.0,0.0,0.0,0.0,0.0,0.0,0.0,0.0,6.5897,6.5897,6.5897,6.5897,6.5897,6.5897,6.5897,6.5897,6.5897,0.0,0.0,0.0,0.0,0.0,0.0,0.0,0.0,0.0,0.0,0.0,0.0,0.0,0.0,0.0,0.0,0.0,0.0,0.0,0.0,0.0,0.0,0.0,7.0898,7.0898,7.0898,7.0898,7.0898,7.0898,7.0898,7.0898,0.0,0.0,0.0,0.0,0.0,0.0,0.0,0.0,0.0,0.0,0.0,0.0,0.0,0.0,0.0,0.0,0.0,0.0,0.0,0.0,0.0,0.0,0.0,0.0,7.5216,7.5245,7.5245,7.5245,7.5438,7.5938,7.6015,7.6015,7.6015,7.6015,7.6015,7.6015,7.6015,7.6015,7.6015,7.6015,7.6015,7.6015,7.6015,7.6015,7.6015,7.6015,7.6169,7.6553,7.6553,7.6707,7.7053,7.7053,7.7053,7.7092,7.7592,7.7784,7.7823,7.8284,7.8477,7.84,0.0,0.0,0.0,0.0,7.7053,7.7053,0.0,0.0,0.0,0.0,0.0,0.0,0.0,0.0,0.0,0.0,0.0,6.5897,6.5897,6.5897,6.5897,6.5897,6.5897,6.5936,0.0,0.0,0.0,6.8513,6.9283,7.009,7.0898,7.0898,7.0898,7.0898,7.0898,7.0898,7.0898,0.0,0.0,0.0,0.0,0.0,0.0,0.0,0.0,0.0,0.0,0.0,7.0898,7.0898,7.0898,7.0898,7.0898,7.0898,7.0937,7.1014,0.0,0.0,0.0,0.0,0.0,0.0,0.0,0.0,0.0,0.0,0.0,0.0,0.0,0.0,0.0,0.0,0.0,0.0,0.0,0.0,0.0,0.0,0.0,0.0,7.5955,7.6015,7.6015,7.6015,7.6015,7.6015,7.6015,7.6015,7.6015,7.6015,7.6015,7.6015,7.6015,7.6015,7.6015,0.0,0.0,0.0,0.0,7.613,7.613,7.6245,7.6669,7.7438,7.7438,7.7784,7.8477,7.8477,7.8477,7.8515,7.8592,7.8631,7.8631,7.8746,7.8784,7.8746,7.8554,7.8477,7.8477,7.8477,7.8477,7.8477,0.0,0.0,0.0,0.0,0.0,0.0,0.0,0.0,0.0,6.5897,6.5897,6.5897,6.5897,6.5897,6.5897,6.5897,6.5897,6.6167,0.0,0.0,6.7782,6.9398,6.9629,7.009,7.0898,7.0898,7.0898,7.0898,7.0898,7.0898,7.0898,7.0898,7.0898,7.0898,7.0898,7.0898,7.0898,7.0898,7.0898,7.0898,7.0898,7.0898,7.0898,7.0898,7.0898,7.0898,7.0898,7.0898,7.1014,7.1706,7.1937,7.2052,7.2783,0.0,0.0,0.0,0.0,0.0,0.0,0.0,0.0,0.0,0.0,0.0,0.0,0.0,0.0,0.0,0.0,0.0,0.0,0.0,0.0,7.5947,7.6015,7.6015,7.6015,7.6015,7.6015,7.6015,7.6015,7.6015,7.6015,7.6015,7.6015,7.6015,7.6015,7.6015,7.6015,7.6015,7.6015,7.6015,7.6669,7.7053,7.7053,7.7669,7.8092,7.8246,7.8246,0.0,7.8477,7.8477,7.8477,7.8515,7.9246,7.9554,7.9592,8.0323,8.0592,8.0477,7.9054,7.8477,7.8477,7.8477,7.8477,7.8477,0.0,0.0,0.0,0.0,0.0,0.0,0.0,0.0,0.0,0.0,6.5897,6.5897,6.5897,6.5897,6.5897,6.5897,6.5897,0.0,0.0,6.7513,6.8321,6.9629,7.009,7.0475,7.0898,7.0898,7.0898,7.0898,7.0898,7.0898,7.0898,7.0898,7.0898,7.0898,7.0898,7.0898,7.0937,7.136,7.1552,7.1591,7.2014,7.2206,7.2168,7.1706,7.1822,7.2206,7.2206,7.2206,7.2283,7.2706,7.286,7.2937,7.336,7.3514,7.3486,0.0,0.0,0.0,0.0,0.0,0.0,0.0,0.0,0.0,0.0,0.0,0.0,0.0,0.0,7.5826,0.0,0.0,7.5955,7.6015,7.6015,7.6015,7.6015,7.6015,7.6015,7.6015,7.6015,7.6015,7.6015,7.6015,7.6015,7.6015,7.6015,7.6207,7.663,7.663,7.6823,7.7246,7.7669,7.79,7.79,7.8284,7.8707,7.9131,7.9131,7.9592,8.04,8.04,8.0631,8.1093,8.1516,8.1708,8.1747,8.217,8.2362,8.2247,8.14,8.0516,7.9785,7.9785,7.9785,7.9785,0.0,0.0,0.0,0.0,0.0,0.0,0.0,0.0,0.0,0.0,6.5897,6.5897,6.5897,6.5897,6.5897,0.0,0.0,0.0,0.0,6.8167,6.9052,6.9898,7.0552,7.0898,7.0898,7.0898,7.0898,7.0898,7.0898,7.0898,7.0898,7.0898,7.0898,7.0898,7.1091,7.1168,7.1206,7.2091,7.2437,7.2514,7.3206,7.3591,7.3668,7.2937,7.3014,7.3514,7.3514,7.3486,7.3486,7.3668,7.3716,7.3726,7.3909,7.3947,7.3889,7.373,7.4197,0.0,0.0,0.0,0.0,0.0,0.0,0.0,0.0,0.0,7.5699,7.5895,7.5925,7.5925,7.6015,7.6015,7.6015,7.6015,7.6015,7.6015,7.6015,7.6015,7.6015,7.6015,7.6015,7.6015,7.6015,7.6015,7.6053,7.6245,7.6245,7.663,7.7476,7.7515,7.7823,7.8477,7.8669,7.8823,7.8977,7.9169,7.9669,8.0554,8.0554,8.1246,8.2554,8.2554,8.2939,8.3593,8.3593,8.3593,8.3593,8.3593,8.3593,8.3593,8.3593,8.2747,8.1593,8.1593,8.1593,8.1593,0.0,0.0,0.0,0.0,0.0,0.0,0.0,0.0,0.0,0.0,0.0,0.0,0.0,0.0,0.0,0.0,0.0,0.0,6.8205,6.909,6.9937,7.0744,7.086,7.0898,7.0898,7.0898,7.0898,7.0898,7.0898,7.0898,7.0898,7.0898,7.0898,7.0937,7.1706,7.2052,7.2091,7.2976,7.336,7.336,7.3476,7.3937,7.4553,7.4476,7.4053,7.3514,7.3514,7.3418,7.3466,7.4293,7.4504,7.4535,7.5396,7.5557,7.5456,7.5424,0.0,7.5577,7.5545,7.5686,7.5864,7.5955,7.5925,7.5895,0.0,0.0,7.5895,7.5985,7.6015,7.6015,7.6015,7.6015,7.6015,7.6015,7.6015,7.6015,7.6015,7.6015,7.6015,7.6015,7.6015,7.6015,7.6015,7.6015,7.6322,7.7092,7.713,7.7515,7.8323,7.8361,7.84,7.8477,7.9246,8.0015,8.0785,8.1516,8.2324,8.317,8.317,8.3247,8.3439,8.3439,8.3516,8.3593,8.3593,8.3593,8.3593,8.3593,8.3593,8.3593,8.3593,8.3478,8.3324,8.3324,8.3324,8.3324,0.0,0.0,0.0,0.0,0.0,0.0,0.0,0.0,0.0,0.0,0.0,0.0,0.0,0.0,0.0,0.0,0.0,0.0,6.909,6.9513,7.0052,7.086,7.0898,7.0898,7.0898,7.0898,7.0898,7.0898,7.0898,7.0898,7.0898,7.0898,7.1168,7.1668,7.2052,7.2476,7.3014,7.386,7.4207,7.4245,7.4745,7.5168,7.5476,7.5476,7.5245,7.4976,7.4918,7.4849,0.0,0.0,7.5357,7.5403,7.581,7.5895,7.5794,7.5724,7.566,0.0,7.5692,7.5763,0.0,0.0,7.5925,7.5895,7.5925,7.5925,7.5925,7.5985,7.6015,7.6015,7.6015,7.6015,7.6015,0.0,7.6015,7.6015,7.6015,7.6015,7.6015,7.6015,7.6438,7.6553,7.6053,7.6476,7.6899,7.7284,7.7707,7.8361,7.9208,7.9246,7.9708,8.0669,8.1054,8.167,8.2554,8.2901,8.3247,8.3593,8.3593,8.3862,8.4362,8.4362,8.4593,8.5055,8.5055,8.5055,8.5055,8.5055,8.5055,8.5055,8.5055,8.5055,8.4939,8.3939,8.3593,8.3593,0.0,0.0,0.0,0.0,0.0,0.0,0.0,0.0,0.0,0.0,0.0,0.0,0.0,0.0,0.0,0.0,0.0,0.0,0.0,6.9898,7.0283,7.086,7.0898,7.0898,7.0898,7.0898,7.0898,7.0898,7.0898,7.0898,7.0898,7.0898,7.136,7.2206,7.2437,7.3014,7.3899,7.4707,7.5053,7.513,7.5745,7.6015,7.6015,7.6015,7.6015,7.5985,7.5925,7.5864,0.0,0.0,7.5833,7.5801,7.5856,7.5864,7.5769,7.5666,7.5599,7.5599,7.566,0.0,0.0,7.5895,7.5925,7.5925,7.5925,7.5925,7.5955,7.6015,7.6015,7.6015,7.6015,7.6015,7.6015,7.6015,7.6015,7.6015,7.6015,7.6015,7.6092,7.6322,7.6899,7.713,7.6746,7.7246,7.7707,7.7977,7.8515,7.9323,8.0439,8.0477,8.117,8.2593,8.267,8.3093,8.3939,8.3939,8.4055,8.4286,8.4286,8.4632,8.5247,8.5247,8.5555,8.6094,8.6094,8.6094,8.6094,8.6094,8.6247,8.6478,8.6478,8.6594,8.6671,8.544,8.4709,8.4286,0.0,0.0,0.0,0.0,0.0,0.0,0.0,0.0,0.0,0.0,0.0,0.0,0.0,0.0,0.0,0.0,0.0,0.0,0.0,7.0437,7.086,7.0898,7.0898,7.0898,7.0898,7.0898,7.0898,7.0898,7.0898,7.0898,7.0898,7.0898,7.136,7.2245,7.3091,7.3899,7.4707,7.5592,7.5976,7.5976,7.5976,7.6015,7.6015,7.6015,7.5955,7.5895,7.5895,0.0,0.0,0.0,7.5633,7.5535,7.5566,7.5566,0.0,7.5535,7.5501,0.0,0.0,0.0,7.5724,7.5947,7.6015,7.6015,7.6015,7.6015,7.6015,7.6015,7.6015,7.6015,7.6015,7.6015,7.6015,7.6015,7.6015,7.6015,7.6015,7.6015,7.6322,7.7169,7.7284,7.7592,0.0,7.8438,7.8823,7.9669,7.9746,8.0477,8.2131,8.2208,8.2631,8.3516,8.3555,8.3978,8.4863,8.4863,8.5247,8.6017,8.6017,8.6055,8.6055,8.6055,8.6094,8.6094,8.6094,8.6094,8.6094,8.6094,8.6594,8.7363,8.7363,8.7863,8.8594,8.8556,8.7478,8.6017,0.0,0.0,0.0,0.0,0.0,0.0,0.0,0.0,0.0,0.0,0.0,0.0,0.0,0.0,0.0,0.0,0.0,0.0,0.0,7.0744,7.0898,7.0898,7.0898,7.0898,7.0898,7.0898,7.0898,7.0898,7.0898,7.0898,7.0898,7.0898,7.1668,7.3091,7.336,7.4284,7.5592,7.5861,7.6015,7.6015,7.6015,7.6015,7.6015,7.6015,7.5955,7.5895,0.0,0.0,0.0,0.0,0.0,0.0,7.5666,0.0,0.0,7.5535,0.0,0.0,0.0,0.0,7.5864,7.5985,7.6015,7.6015,7.6015,7.6015,7.6015,7.6015,7.5985,7.5955,7.6015,7.5985,7.5955,7.6015,7.6015,7.6207,7.6784,7.6861,7.7169,7.7977,7.8592,0.0,0.0,0.0,0.0,8.0592,8.117,8.1939,8.3093,8.317,8.3555,8.4439,8.4478,8.4863,8.5709,8.5709,8.5824,8.6094,8.6094,8.6094,8.6094,8.6094,8.644,8.6978,8.6978,8.7286,8.7825,8.7825,8.7979,8.8248,8.8248,8.844,8.8709,8.8709,8.8325,8.7825,0.0,0.0,0.0,0.0,0.0,0.0,0.0,0.0,0.0,0.0,0.0,0.0,0.0,0.0,0.0,0.0,0.0,0.0,0.0,0.0,7.0898,7.0898,7.0898,7.0898,7.0898,7.0898,7.0898,7.0898,7.0898,7.0898,7.0898,7.0898,7.1822,7.3514,7.3514,7.4437,7.6015,7.6015,7.6015,7.6015,7.6015,7.6015,7.6015,7.6015,7.5955,0.0,0.0,0.0,0.0,0.0,0.0,0.0,0.0,0.0,0.0,0.0,0.0,0.0,0.0,7.5763,7.5864,7.5985,7.6015,7.6015,7.6015,7.6015,7.6015,7.6015,7.5955,7.5925,7.5985,7.5955,7.5925,7.6015,7.6245,7.6669,7.7207,7.7553,7.8054,7.8861,7.9746,8.04,0.0,0.0,0.0,8.1516,8.2285,8.3131,8.4016,8.4055,8.4439,8.5286,8.5324,8.5593,8.6094,8.6094,8.6094,8.6094,8.644,8.6555,8.6594,8.6901,8.7325,8.7863,8.7863,8.8171,8.8709,8.8709,8.8863,8.9133,8.9133,8.9325,8.9594,8.9594,8.9594,8.9517,0.0,0.0,0.0,0.0,0.0,0.0,0.0,0.0,0.0,0.0,0.0,0.0,0.0,0.0,0.0,0.0,0.0,0.0,0.0,0.0,0.0,7.0898,7.0898,7.0898,7.0898,7.0898,7.0898,7.0898,7.0898,7.0898,7.0898,7.0937,7.186,7.3514,7.3553,7.4476,7.6015,7.6015,7.6015,7.6015,7.6015,7.6015,7.6015,7.6015,0.0,0.0,0.0,0.0,0.0,0.0,0.0,0.0,0.0,0.0,0.0,0.0,0.0,7.557,7.5699,7.5692,7.5756,7.5947,7.6015,7.6015,7.6015,7.6015,7.6015,7.6015,7.5955,7.5925,0.0,0.0,7.5925,7.6053,7.6746,7.7323,7.74,7.8092,7.89,0.0,0.0,0.0,0.0,0.0,0.0,8.2516,8.3208,8.4055,8.4939,8.4978,8.5324,8.6094,8.6094,8.6094,8.6094,8.6132,8.617,8.617,8.7055,8.7478,8.7478,8.8325,8.8709,8.8748,8.8748,8.8786,8.8825,8.8825,8.9286,9.0056,9.0056,9.0556,9.1325,9.1325,9.1325,9.1095,0.0,0.0,0.0,0.0,0.0,0.0,0.0,0.0,0.0,0.0,0.0,0.0,0.0,0.0,0.0,0.0,0.0,0.0,0.0,0.0,0.0,0.0,7.0898,7.0898,7.0898,0.0,0.0,7.0898,7.0898,7.0898,7.0898,7.1552,7.2437,7.3553,7.413,7.4976,7.6015,7.6015,7.6015,7.6015,0.0,7.6015,7.6015,0.0,0.0,0.0,0.0,0.0,0.0,0.0,0.0,0.0,0.0,0.0,7.5628,0.0,0.0,7.5801,7.5864,7.5895,7.5917,7.6015,7.6015,7.6015,7.6015,7.6015,7.6015,7.6015,7.5856,7.5794,0.0,0.0,0.0,7.6831,7.7169,0.0,7.8977,7.9323,0.0,0.0,0.0,8.2324,8.317,8.4055,0.0,0.0,8.4439,8.4939,8.5747,8.5786,8.5901,8.6094,8.6094,8.6094,8.6094,8.6748,8.7055,8.7094,8.794,8.8363,8.8363,8.8594,8.9017,8.9594,8.9594,8.9979,9.0556,9.0556,9.1056,9.1825,9.1825,9.2326,9.3056,9.3056,9.3056,9.2979,0.0,0.0,0.0,0.0,0.0,0.0,0.0,0.0,0.0,0.0,0.0,0.0,0.0,0.0,0.0,0.0,0.0,0.0,0.0,0.0,0.0,0.0,7.0898,7.0898,0.0,0.0,0.0,0.0,0.0,0.0,7.0898,7.1398,7.2283,7.3514,7.3976,7.4861,7.6015,7.6015,0.0,0.0,0.0,0.0,0.0,0.0,0.0,0.0,0.0,0.0,0.0,0.0,0.0,7.5666,7.5692,7.5692,7.5692,7.5692,0.0,7.5833,7.5864,7.5925,7.5955,7.6015,7.6015,7.6015,7.6015,7.6015,7.6015,7.5955,7.5826,0.0,0.0,0.0,0.0,0.0,0.0,0.0,7.9669,8.0439,8.1246,0.0,8.2978,0.0,8.4132,8.4939,8.544,0.0,8.544,8.5632,8.6094,8.6094,8.6094,8.6094,8.6094,8.6286,8.6671,8.7555,8.7979,8.7979,8.8825,8.9248,8.9248,8.9633,9.0056,9.0479,9.0864,9.1325,9.1787,9.2133,9.2595,9.3018,9.3018,9.3287,9.371,9.371,9.371,9.3749,0.0,0.0,0.0,0.0,0.0,0.0,0.0,0.0,0.0,0.0,0.0,0.0,0.0,0.0,0.0,0.0,0.0,0.0,0.0,0.0,0.0,0.0,7.0898,7.0898,0.0,0.0,0.0,0.0,0.0,0.0,0.0,0.0,0.0,7.336,7.3553,0.0,0.0,0.0,0.0,0.0,0.0,0.0,0.0,0.0,0.0,0.0,0.0,0.0,0.0,0.0,7.5826,7.5724,7.5724,7.5724,7.5724,7.5724,7.5724,7.5794,7.5895,7.5895,7.5925,7.5985,7.6015,7.6015,7.6015,7.6015,7.5985,7.5925,0.0,7.5692,7.5724,7.6453,7.7099,7.7239,0.0,7.9862,7.9977,8.1323,8.2324,8.2439,8.3901,8.4939,8.5055,8.5709,8.6094,8.6094,8.6094,8.6094,8.6094,8.6094,8.617,8.6286,8.6286,8.6709,8.7555,8.844,8.8863,8.8863,8.9671,9.0094,9.0094,9.0979,9.1364,9.1441,9.2287,9.2672,9.271,9.3403,9.3749,9.3864,9.3864,9.3941,9.4057,9.4057,9.4057,9.4134,0.0,0.0,0.0,0.0,0.0,0.0,0.0,0.0,0.0,0.0,0.0,0.0,0.0,0.0,0.0,0.0,0.0,0.0,0.0,0.0,0.0,0.0,0.0,0.0,0.0,0.0,0.0,0.0,0.0,0.0,0.0,0.0,0.0,0.0,7.386,0.0,0.0,0.0,0.0,0.0,0.0,0.0,0.0,0.0,0.0,0.0,0.0,0.0,0.0,0.0,7.5925,7.5895,7.5917,7.5947,7.5947,7.5947,7.5947,7.5947,7.5985,7.5985,7.5985,7.6015,7.6015,7.6015,7.6015,7.5955,0.0,0.0,7.5826,7.5724,7.5917,7.6579,7.7316,7.8139,0.0,0.0,0.0,0.0,8.2554,0.0,0.0,0.0,0.0,0.0,0.0,0.0,8.6094,8.6094,8.6094,8.6094,8.644,8.7132,8.7171,8.7594,8.8479,8.9286,8.971,8.971,9.0556,9.0979,9.1018,9.1864,9.2287,9.2326,9.3133,9.348,9.348,9.3633,9.4134,9.4749,9.4749,9.5211,9.5865,9.5865,9.5865,9.5865,0.0,0.0,0.0,0.0,0.0,0.0,0.0,0.0,0.0,0.0,0.0,0.0,0.0,0.0,0.0,0.0,0.0,0.0,0.0,0.0,0.0,0.0,0.0,0.0,0.0,0.0,0.0,0.0,0.0,0.0,0.0,0.0,0.0,0.0,0.0,0.0,0.0,0.0,0.0,0.0,0.0,0.0,0.0,0.0,0.0,0.0,0.0,0.0,0.0,0.0,7.5985,7.5955,7.6015,7.6015,7.6015,7.6015,7.6015,7.6015,7.6015,7.6015,7.6015,7.6015,7.6015,7.6015,7.6015,0.0,0.0,0.0,7.5895,7.5948,7.6433,0.0,0.0,0.0,0.0,0.0,0.0,0.0,0.0,0.0,0.0,0.0,0.0,0.0,0.0,8.6094,8.6094,8.6094,8.6094,8.6517,8.7171,8.8055,8.8479,8.8902,8.9325,9.0171,9.0594,9.0594,9.1479,9.1864,9.1902,9.2749,9.3133,9.3172,9.4018,9.4364,9.4403,9.4864,9.5288,9.5672,9.5672,9.5942,9.6288,9.6288,9.6288,9.6288,0.0,0.0,0.0,0.0,0.0,0.0,0.0,0.0,0.0,0.0,0.0,0.0,0.0,0.0,0.0,0.0,0.0,0.0,0.0,0.0,0.0,0.0,0.0,0.0,0.0,0.0,0.0,0.0,0.0,0.0,0.0,0.0,0.0,0.0,0.0,0.0,0.0,0.0,0.0,0.0,0.0,0.0,0.0,0.0,0.0,0.0,0.0,0.0,0.0,0.0,7.6015,7.6015,7.6015,7.6015,7.6015,7.6015,7.6015,7.6015,7.6015,7.6015,7.6015,7.6015,7.6015,7.6015,7.6015,7.6015,0.0,0.0,7.5895,7.6133,7.6907,0.0,0.0,0.0,0.0,0.0,0.0,0.0,0.0,0.0,0.0,0.0,0.0,0.0,0.0,8.6094,8.6286,8.6363,8.6363,8.7209,8.8055,8.894,8.9556,8.9979,9.0171,9.1056,9.1479,9.1479,9.2364,9.2749,9.2787,9.3595,9.398,9.4018,9.4903,9.5288,9.5326,9.6019,9.6288,9.6288,9.6288,9.6288,9.6288,9.6288,9.6288,9.6288,0.0,0.0,0.0,0.0,0.0,0.0,0.0,0.0,0.0,0.0,0.0,0.0,0.0,0.0,0.0,0.0,0.0,0.0,0.0,0.0,0.0,0.0,0.0,0.0,0.0,0.0,0.0,0.0,0.0,0.0,0.0,0.0,0.0,0.0,0.0,0.0,0.0,0.0,0.0,0.0,0.0,0.0,0.0,0.0,0.0,0.0,0.0,0.0,0.0,0.0,0.0,7.6015,7.6015,7.6015,7.6015,7.6015,0.0,0.0,7.6015,7.6015,7.6015,7.6015,7.6015,7.6015,7.6015,0.0,0.0,0.0,0.0,7.6194,0.0,0.0,0.0,0.0,0.0,8.2208,0.0,0.0,0.0,0.0,0.0,0.0,0.0,8.6094,0.0,8.6094,8.6824,8.7286,8.7286,8.8094,8.894,8.9748,8.9863,9.0287,9.1056,9.1941,9.2364,9.2402,9.321,9.3595,9.3633,9.448,9.4864,9.4903,9.5788,9.6172,9.6172,9.6288,9.6288,9.6288,9.6288,9.6288,9.6288,9.6288,9.6288,9.6288,0.0,0.0,0.0,0.0,0.0,0.0,0.0,0.0,0.0,0.0,0.0,0.0,0.0,0.0,0.0,0.0,0.0,0.0,0.0,0.0,0.0,0.0,0.0,0.0,0.0,0.0,0.0,0.0,0.0,0.0,0.0,0.0,0.0,0.0,0.0,0.0,0.0,0.0,0.0,0.0,0.0,0.0,0.0,0.0,0.0,0.0,0.0,0.0,0.0,0.0,0.0,0.0,7.6015,7.6015,0.0,0.0,7.6015,7.6015,7.6015,7.6015,7.6015,7.6015,7.6015,7.6015,7.6015,0.0,0.0,0.0,7.5985,7.637,7.7784,7.8284,0.0,0.0,0.0,0.0,8.3016,0.0,0.0,0.0,0.0,0.0,0.0,0.0,8.6324,8.6824,8.8132,8.8902,8.8902,8.9248,8.9825,9.0671,9.0671,9.1095,9.1979,9.2326,9.2749,9.321,9.4057,9.448,9.4518,9.5403,9.5788,9.5788,9.6134,9.6288,9.6288,9.6288,9.6288,9.6288,9.6288,9.6288,9.6288,9.6288,9.6288,9.6288,0.0,0.0,0.0,0.0,0.0,0.0,0.0,0.0,0.0,0.0,0.0,0.0,0.0,0.0,0.0,0.0,0.0,0.0,0.0,0.0,0.0,0.0,0.0,0.0,0.0,0.0,0.0,0.0,0.0,0.0,0.0,0.0,0.0,0.0,0.0,0.0,0.0,0.0,0.0,0.0,0.0,0.0,0.0,0.0,0.0,0.0,0.0,0.0,0.0,0.0,0.0,0.0,0.0,0.0,0.0,0.0,7.6015,7.6015,7.6015,7.6015,7.6015,7.6015,7.6015,7.6015,0.0,0.0,7.6015,7.6015,7.6015,7.6515,7.8169,7.8477,7.9054,8.0823,8.1977,8.2901,8.3516,8.4555,8.5478,0.0,0.0,0.0,0.0,0.0,8.694,8.8055,8.9248,9.0017,9.0287,9.0517,9.0941,9.1556,9.1595,9.1979,9.2864,9.3095,9.3518,9.4095,9.498,9.5365,9.5403,9.6019,9.6288,9.6288,9.6288,9.6288,9.6288,9.6288,9.6288,9.6288,9.6288,9.6288,9.6288,9.6288,9.6288,9.6288,0.0,0.0,0.0,0.0,0.0,0.0,0.0,0.0,0.0,0.0,0.0,0.0,0.0,0.0,0.0,0.0,0.0,0.0,0.0,0.0,0.0,0.0,0.0,0.0,0.0,0.0,7.0898,7.0898,7.0898,7.0898,0.0,0.0,0.0,0.0,0.0,0.0,0.0,0.0,0.0,0.0,0.0,0.0,0.0,0.0,0.0,0.0,0.0,0.0,0.0,0.0,0.0,0.0,0.0,0.0,0.0,0.0,7.6015,7.6015,7.6015,7.6015,7.6015,7.6015,7.6015,7.6015,0.0,0.0,7.6015,7.6015,7.6015,7.6515,7.8169,7.8477,7.9054,8.0823,8.2477,8.3593,8.3593,8.5055,8.6094,0.0,0.0,0.0,0.0,8.6863,8.8094,8.9748,8.9902,9.0287,9.1133,9.2018,9.2479,9.2479,9.2479,9.2864,9.3672,9.4518,9.498,9.498,9.5865,9.6288,9.6288,9.6288,9.6288,9.6288,9.6288,9.6288,9.6288,9.6288,9.6288,9.6288,9.6288,9.6288,9.6288,9.6288,9.6288,9.6288,0.0,0.0,0.0,0.0,0.0,0.0,0.0,0.0,0.0,0.0,0.0,0.0,0.0,0.0,0.0,0.0,0.0,0.0,0.0,0.0,0.0,0.0,0.0,0.0,0.0,0.0,7.0898,7.0898,7.0898,7.0898,7.0898,7.0898,0.0,0.0,0.0,0.0,0.0,0.0,0.0,0.0,0.0,0.0,0.0,0.0,0.0,0.0,0.0,0.0,0.0,0.0,0.0,0.0,0.0,0.0,0.0,0.0,0.0,0.0,7.6015,7.6015,7.6015,7.6015,7.6015,7.6015,7.6015,0.0,0.0,7.6015,7.6015,7.6515,7.8169,7.8477,7.9054,8.0823,8.2516,8.3593,0.0,0.0,0.0,0.0,0.0,0.0,0.0,0.0,8.9325,8.9863,9.0441,9.1171,9.2056,9.2364,9.2479,9.2479,9.3018,9.371,9.4557,9.4864,9.5288,9.5903,9.6172,9.6288,9.6288,9.6288,9.6288,9.6288,9.6288,9.6288,9.6288,9.6288,9.6288,9.6288,9.6288,9.6288,9.6288,9.6288,9.6288,9.6288,0.0,0.0,0.0,0.0,0.0,0.0,0.0,0.0,0.0,0.0,0.0,0.0,0.0,0.0,0.0,0.0,0.0,0.0,0.0,0.0,0.0,0.0,0.0,0.0,0.0,7.0898,7.0898,7.0898,7.0898,7.0898,7.0898,7.0898,7.0898,7.0898,7.0898,0.0,0.0,0.0,0.0,0.0,0.0,0.0,7.4361,0.0,0.0,0.0,0.0,0.0,0.0,0.0,0.0,0.0,0.0,0.0,0.0,0.0,0.0,0.0,0.0,7.6015,7.6015,7.6015,7.6015,0.0,0.0,0.0,0.0,0.0,0.0,0.0,0.0,7.8746,7.9554,8.1285,8.2708,8.3708,8.4055,0.0,0.0,0.0,0.0,0.0,0.0,8.9094,9.0056,9.0364,9.121,9.1941,9.2479,9.3095,9.3441,9.3441,9.3941,9.4595,9.548,9.548,9.5749,9.6288,9.6288,9.6288,9.6288,9.6288,9.6288,9.6288,9.6288,9.6288,0.0,9.6288,9.6288,9.6288,9.6288,9.6288,9.6288,9.6288,9.6288,9.6288,0.0,0.0,0.0,0.0,0.0,0.0,0.0,0.0,0.0,0.0,0.0,0.0,0.0,0.0,0.0,0.0,0.0,0.0,0.0,0.0,0.0,0.0,0.0,0.0,0.0,7.0898,7.0898,7.0898,7.0898,7.0898,7.0898,7.0898,7.0898,7.0898,7.0898,7.0898,0.0,0.0,0.0,0.0,0.0,0.0,0.0,0.0,0.0,0.0,0.0,0.0,0.0,0.0,0.0,0.0,0.0,0.0,0.0,0.0,0.0,0.0,0.0,0.0,0.0,0.0,0.0,0.0,0.0,0.0,0.0,0.0,0.0,0.0,0.0,7.9208,8.0362,8.2016,8.3016,8.3901,8.4786,0.0,0.0,0.0,0.0,0.0,8.8709,8.9517,9.0364,9.1248,9.2056,9.2556,9.2672,9.4134,9.5018,9.5095,9.5095,9.548,9.6288,9.6288,9.6288,9.6288,9.6288,9.6288,9.6288,9.6288,9.6288,9.6288,9.6288,9.6288,9.6288,9.6288,9.6288,9.6288,9.6288,9.6288,9.6288,9.6288,9.6288,9.6288,0.0,0.0,0.0,0.0,0.0,0.0,0.0,0.0,0.0,0.0,0.0,0.0,0.0,0.0,0.0,0.0,0.0,0.0,0.0,0.0,0.0,0.0,0.0,0.0,7.0898,7.0898,7.0898,7.0898,7.0898,7.0898,7.0898,7.0898,7.0898,7.0898,7.0898,7.0898,0.0,0.0,0.0,0.0,0.0,0.0,0.0,0.0,0.0,0.0,7.6015,7.6015,0.0,0.0,0.0,0.0,0.0,0.0,0.0,0.0,7.6015,0.0,0.0,0.0,0.0,0.0,0.0,0.0,0.0,0.0,0.0,0.0,0.0,0.0,0.0,0.0,8.0362,8.2016,8.3016,8.3901,8.4786,0.0,0.0,0.0,0.0,0.0,8.9556,9.0402,9.1248,9.2133,9.2364,9.3056,9.4326,9.4788,9.5288,9.598,9.598,9.6095,9.6288,9.6288,9.6288,9.6288,9.6288,9.6288,9.6288,9.6288,9.6288,9.6288,9.6288,9.6288,9.6288,9.6288,9.6288,9.6288,9.6288,9.6288,9.6288,9.6288,9.6288,9.6288,0.0,0.0,0.0,0.0,0.0,0.0,0.0,0.0,0.0,0.0,0.0,0.0,0.0,0.0,0.0,0.0,0.0,0.0,0.0,0.0,0.0,0.0,0.0,7.0898,7.0898,7.0898,7.0898,7.0898,7.0898,7.0898,7.0898,7.0898,7.0898,7.0898,7.0898,7.0898,0.0,0.0,0.0,0.0,7.1398,0.0,0.0,0.0,0.0,0.0,7.6015,7.6015,0.0,7.6015,7.6015,7.6015,0.0,0.0,0.0,0.0,7.6015,0.0,0.0,0.0,0.0,0.0,0.0,0.0,0.0,0.0,0.0,0.0,0.0,0.0,0.0,0.0,0.0,8.267,8.3632,8.4478,0.0,0.0,0.0,0.0,0.0,8.944,0.0,9.1056,9.1979,9.2441,9.321,9.4018,9.4941,9.5365,9.5826,9.6288,9.6288,9.6288,9.6288,9.6288,9.6288,9.6288,9.6288,9.6288,9.6288,9.6288,9.6288,9.6288,9.6288,9.6288,9.6288,9.6288,9.6288,9.6288,9.6288,9.6288,9.6288,9.6288,9.6288,9.6288,0.0,0.0,0.0,0.0,0.0,0.0,0.0,0.0,0.0,0.0,0.0,0.0,0.0,0.0,0.0,0.0,0.0,0.0,0.0,0.0,0.0,0.0,7.0898,7.0898,7.0898,7.0898,7.0898,7.0898,7.0898,7.0898,7.0898,7.0898,7.0898,7.0898,7.0898,7.0898,0.0,0.0,7.0898,0.0,7.0898,0.0,0.0,0.0,0.0,0.0,0.0,0.0,0.0,7.6015,7.6015,7.6015,7.6015,0.0,0.0,0.0,0.0,0.0,0.0,0.0,0.0,0.0,0.0,0.0,0.0,0.0,0.0,0.0,0.0,0.0,0.0,0.0,0.0,0.0,0.0,0.0,0.0,0.0,0.0,0.0,0.0,0.0,9.0287,9.1633,9.2595,9.2864,9.421,9.5057,9.5172,9.5903,9.6288,9.6288,9.6288,9.6288,9.6288,9.6288,9.6288,9.6288,9.6288,9.6288,9.6288,9.6288,9.6288,9.6288,9.6288,9.6288,9.6288,9.6288,9.6288,9.6288,9.6288,9.6288,9.6288,9.6288,9.6288,9.6288,0.0,0.0,0.0,0.0,0.0,0.0,0.0,0.0,0.0,0.0,0.0,0.0,0.0,0.0,0.0,0.0,0.0,0.0,0.0,0.0,0.0,7.0898,7.0898,7.0898,7.0898,7.0898,7.0898,7.0898,7.0898,7.0898,7.0898,7.0898,7.0898,7.0898,7.0898,7.0898,7.0898,7.0898,7.0898,7.0898,7.0898,0.0,0.0,0.0,0.0,0.0,0.0,0.0,0.0,7.6015,7.6015,7.6015,7.6015,0.0,0.0,0.0,0.0,0.0,7.6015,0.0,0.0,0.0,0.0,0.0,0.0,0.0,0.0,0.0,0.0,0.0,0.0,0.0,0.0,0.0,0.0,0.0,0.0,0.0,0.0,0.0,0.0,9.0479,9.1979,9.2326,9.3095,9.4518,9.4826,9.5326,9.6057,9.6249,9.6288,9.6288,9.6288,9.6288,9.6288,9.6288,9.6288,9.6288,9.6288,9.6288,9.6288,9.6288,9.6288,9.6288,9.6288,9.6288,9.6288,9.6288,9.6288,9.6288,9.6288,9.6288,9.6288,9.6288,9.6288,9.6288,0.0,0.0,0.0,0.0,0.0,0.0,0.0,0.0,0.0,0.0,0.0,0.0,0.0,0.0,0.0,0.0,0.0,0.0,0.0,0.0,7.0898,7.0898,7.0898,7.0898,7.0898,7.0898,7.0898,7.0898,7.0898,7.0898,7.0898,7.0898,7.0898,7.0898,7.0898,7.0898,7.0898,7.0898,7.0898,7.0898,0.0,0.0,0.0,0.0,0.0,0.0,0.0,0.0,0.0,0.0,7.6015,7.6015,7.6015,0.0,0.0,0.0,0.0,0.0,7.6015,7.6015,0.0,0.0,0.0,0.0,0.0,0.0,0.0,0.0,0.0,0.0,0.0,0.0,0.0,0.0,0.0,0.0,0.0,0.0,0.0,0.0,0.0,9.1633,9.2402,9.3326,9.4172,9.4941,9.5441,9.5865,9.6288,9.6288,9.6288,9.6288,9.6288,9.6288,9.6288,9.6288,9.6288,9.6288,9.6288,9.6288,9.6288,9.6288,9.6288,9.6288,9.6288,9.6288,9.6288,9.6288,9.6288,9.6288,9.6288,9.6288,9.6288,9.6288,9.6288,9.6288,0.0,0.0,0.0,0.0,0.0,0.0,0.0,0.0,0.0,0.0,0.0,0.0,0.0,0.0,0.0,0.0,0.0,0.0,0.0,7.0898,7.0898,7.0898,7.0898,7.0898,7.0898,7.0898,7.0898,7.0898,7.0898,7.0898,7.0898,7.0898,7.0898,7.0898,7.0898,7.0898,7.0898,7.0898,7.0898,7.0937,0.0,0.0,0.0,0.0,0.0,0.0,0.0,0.0,0.0,0.0,0.0,0.0,0.0,0.0,0.0,0.0,7.6015,7.6015,7.6015,7.6015,0.0,0.0,0.0,0.0,0.0,0.0,0.0,0.0,0.0,0.0,0.0,0.0,0.0,0.0,0.0,0.0,0.0,8.7209,8.8479,8.9748,9.1441,9.2556,9.2749,9.4134,9.5057,9.5288,9.5903,9.6288,9.6288,9.6288,9.6288,9.6288,9.6288,9.6288,9.6288,9.6288,9.6288,9.6288,9.6288,9.6288,9.6288,9.6288,9.6288,9.6288,9.6288,9.6288,9.6288,9.6288,9.6288,9.6288,9.6288,9.6288,9.6288,9.6288,9.6288,9.6288,0.0,0.0,0.0,0.0,0.0,0.0,0.0,0.0,0.0,0.0,0.0,0.0,0.0,0.0,0.0,0.0,0.0,0.0,0.0,7.0898,7.0898,7.0898,7.0898,7.0898,7.0898,7.0898,7.0898,7.0898,7.0898,7.0898,7.0898,7.0898,7.0898,7.0898,7.0898,7.0898,7.0898,7.0898,7.0898,7.0975,7.1772,0.0,0.0,0.0,0.0,0.0,0.0,0.0,0.0,0.0,0.0,0.0,0.0,0.0,0.0,0.0,7.6015,7.6015,7.6015,7.6015,0.0,0.0,0.0,0.0,0.0,0.0,0.0,0.0,0.0,0.0,0.0,0.0,0.0,0.0,0.0,8.6978,8.6209,0.0,8.9748,8.9902,9.1441,9.2787,9.3518,9.4441,9.5326,9.6134,9.6249,9.6288,9.6288,9.6288,9.6288,9.6288,9.6288,9.6288,9.6288,9.6288,9.6288,9.6288,9.6288,9.6288,9.6288,9.6288,9.6288,9.6288,9.6288,9.6288,9.6288,9.6288,9.6288,9.6288,9.6288,9.6288,9.6288,9.6288,9.6288,9.6288,0.0,0.0,0.0,0.0,0.0,0.0,0.0,0.0,0.0,0.0,0.0,0.0,0.0,0.0,0.0,0.0,0.0,0.0,0.0,7.0898,7.0898,7.0898,7.0898,7.0898,7.0898,7.0898,7.0898,7.0898,7.0898,7.0898,7.0898,7.0898,7.0898,7.0898,7.0898,7.0898,7.0898,7.0898,7.0898,7.0975,7.1849,7.2723,0.0,0.0,0.0,0.0,0.0,0.0,0.0,0.0,7.6015,0.0,0.0,0.0,0.0,0.0,7.6015,7.6015,7.6015,7.6015,0.0,0.0,0.0,0.0,0.0,0.0,0.0,0.0,0.0,0.0,0.0,0.0,0.0,0.0,8.5863,8.6671,8.6863,8.8632,9.0325,9.1402,9.2556,9.3595,9.4441,9.5288,9.5942,9.6288,9.6288,9.6288,9.6288,9.6288,9.6288,9.6288,9.6288,9.6288,9.6288,9.6288,9.6288,9.6288,9.6288,9.6288,9.6288,9.6288,9.6288,9.6288,9.6288,9.6288,9.6288,9.6288,9.6288,9.6288,9.6288,9.6288,9.6288,9.6288,9.6288,9.6288,0.0,0.0,0.0,0.0,0.0,0.0,0.0,0.0,0.0,0.0,0.0,0.0,0.0,0.0,0.0,0.0,0.0,0.0,7.0898,7.0898,7.0898,7.0898,7.0898,7.0898,7.0898,7.0898,7.0898,7.0898,7.0898,7.0898,7.0898,7.0898,7.0898,7.0898,7.0898,7.0898,7.0898,7.0898,7.1052,7.1387,7.2234,7.3147,0.0,0.0,0.0,0.0,0.0,0.0,0.0,0.0,7.6015,0.0,0.0,0.0,0.0,0.0,7.6015,7.6015,7.6015,7.6015,0.0,0.0,0.0,0.0,0.0,0.0,0.0,0.0,0.0,0.0,0.0,0.0,0.0,0.0,8.5824,8.6824,8.7671,8.9248,9.0864,9.2326,9.321,9.4018,9.4903,9.5788,9.6288,9.6288,9.6288,9.6288,9.6288,9.6288,9.6288,9.6288,9.6288,9.6288,9.6288,9.6288,9.6288,9.6288,9.6288,9.6288,9.6288,9.6288,9.6288,9.6288,9.6288,9.6288,9.6288,9.6288,9.6288,9.6288,9.6288,9.6288,9.6288,9.6288,9.6288,9.6326,0.0,0.0,0.0,0.0,0.0,0.0,0.0,0.0,0.0,0.0,0.0,0.0,0.0,0.0,0.0,0.0,0.0,0.0,7.0898,7.0898,7.0898,7.0898,7.0898,7.0898,7.0898,7.0898,7.0898,7.0898,7.0898,7.0898,7.0898,7.0898,7.0898,7.0898,7.0898,7.0898,7.0898,7.0898,7.1426,7.23,7.3147,7.4004,7.4793,0.0,0.0,0.0,0.0,0.0,0.0,0.0,0.0,0.0,0.0,0.0,0.0,7.6015,7.6015,7.6015,7.6015,0.0,0.0,0.0,0.0,0.0,0.0,0.0,0.0,0.0,0.0,0.0,0.0,0.0,0.0,8.4901,8.6324,8.7709,8.8594,9.0133,9.1518,9.2402,9.321,9.4057,9.4903,9.5788,9.6288,9.6288,9.6288,9.6288,9.6288,9.6288,9.6288,9.6288,9.6288,9.6288,9.6288,9.6288,9.6288,9.6288,9.6288,9.6288,9.6288,9.6288,9.6288,9.6288,9.6288,9.6288,9.6288,9.6288,9.6288,9.6288,9.6288,9.6288,9.6288,9.6326,9.6326,9.6442,0.0,0.0,0.0,0.0,0.0,0.0,0.0,0.0,0.0,0.0,0.0,0.0,0.0,0.0,0.0,0.0,0.0,0.0,7.0898,7.0898,7.0898,7.0898,7.0898,7.0898,7.0898,7.0898,7.0898,7.0898,7.0898,7.0898,7.0898,7.0898,7.0898,7.0898,7.0898,7.0898,7.0937,7.1541,7.1964,7.2311,7.3745,7.4486,7.4793,0.0,0.0,0.0,0.0,0.0,0.0,0.0,0.0,0.0,0.0,0.0,7.6015,7.6015,7.6015,7.6015,7.6015,0.0,0.0,0.0,0.0,0.0,0.0,0.0,0.0,0.0,0.0,0.0,0.0,0.0,0.0,8.5747,8.7171,8.8594,8.944,9.0517,9.1748,9.3172,9.3557,9.4287,9.5788,9.6134,9.6288,9.6288,9.6288,9.6288,9.6288,9.6288,9.6288,9.6288,9.6288,9.6288,9.6288,9.6288,9.6288,9.6288,9.6288,9.6288,9.6288,9.6288,9.6288,9.6288,9.6288,9.6288,9.6288,9.6288,9.6288,9.6288,9.6288,9.6288,9.6365,9.6942,9.7134,9.7288,0.0,0.0,0.0,0.0,0.0,0.0,0.0,0.0,0.0,0.0,0.0,0.0,0.0,0.0,0.0,0.0,0.0,0.0,0.0,7.0898,7.0898,7.0898,7.0898,7.0898,7.0898,7.0898,7.0898,7.0898,7.0898,7.0898,7.0898,7.0898,7.0898,7.0898,7.0898,7.1091,7.1464,7.1964,7.258,7.3283,7.4293,7.4909,7.5255,0.0,0.0,0.0,0.0,0.0,0.0,0.0,0.0,0.0,0.0,0.0,0.0,7.6015,7.6015,7.6015,0.0,0.0,0.0,0.0,0.0,0.0,0.0,0.0,0.0,0.0,0.0,0.0,0.0,0.0,0.0,8.6517,8.7786,8.9094,9.0248,9.1171,9.221,9.3518,9.4018,9.4749,9.6172,9.6288,9.6288,9.6288,9.6288,9.6288,9.6288,9.6288,9.6288,9.6288,9.6288,9.6288,9.6288,9.6288,9.6288,9.6288,9.6288,9.6288,9.6288,9.6288,9.6288,9.6288,9.6288,9.6288,9.6288,9.6288,9.6288,9.6326,9.6634,9.6788,9.6865,9.7711,9.8019,9.8134,0.0,0.0,0.0,0.0,0.0,0.0,0.0,0.0,0.0,0.0,0.0,0.0,0.0,0.0,0.0,0.0,0.0,0.0,0.0,7.0898,7.0898,7.0898,7.0898,7.0898,7.0898,7.0898,7.0898,7.0898,7.0898,7.0898,7.0898,7.0898,7.0898,7.0898,7.0975,7.1437,7.2195,7.2349,7.3322,7.4716,7.4793,7.5293,7.6015,7.6015,0.0,0.0,0.0,0.0,0.0,0.0,0.0,0.0,0.0,0.0,7.6015,7.6015,7.6015,7.6015,0.0,0.0,0.0,0.0,0.0,0.0,0.0,0.0,0.0,0.0,0.0,0.0,0.0,8.5022,8.5637,8.7286,8.8325,8.944,9.0979,9.1941,9.2787,9.3595,9.448,9.5326,9.6211,9.6288,9.6288,9.6288,9.6288,9.6288,9.6288,9.6288,9.6288,9.6288,9.6288,9.6288,9.6288,9.6288,9.6288,9.6288,9.6288,9.6288,9.6288,9.6288,9.6288,9.6288,9.6288,9.6288,9.6326,9.6365,9.6403,9.648,9.7288,9.7634,9.7711,9.8596,9.8904,9.9019,0.0,0.0,0.0,0.0,0.0,0.0,0.0,0.0,0.0,0.0,0.0,0.0,0.0,0.0,0.0,0.0,0.0,0.0,0.0,7.0898,7.0898,7.0898,7.0898,7.0898,7.0898,7.0898,7.0898,7.0898,7.0898,7.0898,7.0898,7.0898,7.0898,7.0937,7.1618,7.2014,7.2275,7.3601,7.437,7.4755,7.5408,7.5822,7.6015,7.6015,7.6015,0.0,0.0,0.0,0.0,0.0,0.0,0.0,7.6015,7.6015,7.6015,7.6015,7.6015,0.0,0.0,0.0,0.0,0.0,0.0,0.0,0.0,0.0,0.0,0.0,0.0,0.0,8.485,8.5973,8.7209,8.8248,8.9671,9.0787,9.1171,9.1941,9.2787,9.3595,9.448,9.5326,9.6211,9.6288,9.6288,9.6288,9.6288,9.6288,9.6288,9.6288,9.6288,9.6288,9.6288,9.6288,9.6288,9.6288,9.6288,9.6288,9.6288,9.6288,9.6288,9.6288,9.6288,9.6288,9.6288,9.6288,9.6365,9.698,9.725,9.7326,9.8173,9.8519,9.8634,9.9481,9.9827,9.9942,0.0,0.0,0.0,0.0,0.0,0.0,0.0,0.0,0.0,0.0,0.0,0.0,0.0,0.0,0.0,0.0,0.0,0.0,0.0,0.0,7.0898,7.0898,7.0898,7.0898,7.0898,7.0898,7.0898,7.0898,7.0898,7.0898,7.0898,7.0898,7.1102,7.1535,7.2024,7.265,7.3428,7.4341,7.4947,7.5332,7.5822,7.6015,7.6015,7.6015,7.6015,7.6015,7.6015,0.0,0.0,0.0,0.0,0.0,0.0,0.0,7.6015,7.6015,7.6015,7.6015,0.0,0.0,0.0,0.0,0.0,0.0,0.0,0.0,0.0,0.0,0.0,8.501,8.5401,8.6522,8.7795,8.9094,9.0422,9.1515,9.1901,9.2797,9.3727,9.4578,9.5316,9.5952,9.6415,9.6358,9.6288,9.6288,9.6288,9.6288,9.6288,9.6288,9.6288,9.6288,9.6288,9.6288,9.6288,9.6288,9.6288,9.6288,9.6288,9.6288,9.6288,9.6288,9.6288,9.6288,9.6288,9.6519,9.6903,9.7326,9.775,9.8211,9.9058,9.9404,9.9519,10.0404,10.0712,10.0712,0.0,0.0,0.0,0.0,0.0,0.0,0.0,0.0,0.0,0.0,0.0,0.0,0.0,0.0,0.0,0.0,0.0,0.0,0.0,0.0,0.0,7.0898,7.0898,7.0898,7.0898,7.0898,7.0898,7.0898,7.0898,7.0975,0.0,7.1102,7.1497,7.2208,7.2476,7.3389,7.4716,7.487,7.5332,7.6015,7.6015,7.6015,7.6015,7.6015,7.6015,7.6015,7.6015,7.6015,0.0,0.0,0.0,0.0,0.0,0.0,7.6015,7.6015,7.6015,7.6015,0.0,0.0,0.0,0.0,0.0,0.0,0.0,0.0,0.0,0.0,8.3901,8.5126,8.5958,8.6834,8.8051,8.9855,9.0982,9.1875,9.2727,9.3745,9.4712,9.5606,9.6269,9.6676,9.6676,9.6513,9.6429,9.6358,9.6358,9.6361,9.6288,9.6288,9.6288,9.6288,9.6288,9.6288,9.6288,9.6288,9.6288,9.6288,9.6288,9.6288,9.6288,9.6442,9.6519,9.6519,9.6519,9.698,9.775,9.7904,9.8365,9.9096,9.9981,10.0289,10.0404,10.1096,10.1289,10.1289,0.0,0.0,0.0,0.0,0.0,0.0,0.0,0.0,0.0,0.0,0.0,0.0,0.0,0.0,0.0,0.0,0.0,0.0,0.0,0.0,0.0,7.0898,7.0898,7.0898,7.0898,7.0898,7.0898,7.0898,7.0898,0.0,0.0,0.0,0.0,7.2246,7.3726,7.4495,7.4755,7.5485,7.5899,7.6015,7.6015,7.6015,7.6015,7.6015,7.6015,7.6015,7.6015,7.6015,0.0,0.0,0.0,0.0,0.0,0.0,7.6015,7.6015,7.6015,0.0,0.0,0.0,0.0,0.0,0.0,0.0,0.0,0.0,0.0,0.0,8.4753,8.5176,8.5958,8.6932,8.8455,9.0881,9.1602,9.2144,9.2998,9.3875,9.4712,9.5606,9.6438,9.6959,9.6959,9.6936,9.6812,9.6568,9.6568,9.6481,9.6288,9.6288,9.6288,9.6288,9.6288,9.6288,9.6288,9.6288,9.6288,9.6288,9.6288,9.6288,9.6326,9.7019,9.7326,9.7326,9.7326,9.7827,9.8673,9.9442,9.9827,9.9981,10.0789,10.1096,10.1212,10.1289,10.1289,10.1289,0.0,0.0,0.0,0.0,0.0,0.0,0.0,0.0,0.0,0.0,0.0,0.0,0.0,0.0,0.0,0.0,0.0,0.0,0.0,0.0,0.0,7.0898,7.0898,7.0898,7.0898,7.0898,7.0898,7.0898,0.0,0.0,0.0,7.3159,7.3581,0.0,0.0,0.0,7.5447,7.5861,7.6015,7.6015,7.6015,7.609,7.616,7.6034,7.609,7.616,7.6034,0.0,0.0,0.0,0.0,0.0,7.6015,0.0,0.0,0.0,0.0,0.0,0.0,0.0,0.0,0.0,0.0,0.0,0.0,0.0,8.4105,8.4791,8.5747,8.6555,8.6795,8.8074,8.9663,9.1256,9.1816,9.2554,9.3934,9.4505,9.5303,9.6667,9.7021,9.7186,9.7186,9.709,9.6959,9.6837,9.6676,9.6568,9.6448,9.6358,9.6288,9.6288,9.6288,9.6288,9.6288,9.6288,9.6288,9.6288,9.6288,9.6557,9.698,9.7326,9.7519,9.7519,9.8019,9.8711,9.9558,9.9942,10.0404,10.0789,10.1212,10.1289,10.1289,10.1289,10.1289,10.1289,0.0,0.0,0.0,0.0,0.0,0.0,0.0,0.0,0.0,0.0,0.0,0.0,0.0,0.0,0.0,0.0,0.0,0.0,0.0,0.0,0.0,0.0,7.0898,7.0898,7.0898,7.1129,7.1245,7.1245,0.0,0.0,7.2842,7.4101,7.4832,0.0,7.5024,0.0,0.0,0.0,0.0,0.0,7.609,7.6199,7.635,7.6199,7.6248,7.635,7.616,0.0,0.0,0.0,0.0,0.0,0.0,0.0,0.0,0.0,0.0,0.0,0.0,0.0,0.0,0.0,0.0,0.0,0.0,0.0,8.4433,8.5214,8.6808,8.8001,8.7904,8.9243,9.064,9.1463,9.1995,9.2873,9.464,9.5017,9.5762,9.7479,9.7533,9.7396,9.7396,9.7255,9.7149,9.709,9.6897,9.6747,9.6704,9.6545,9.6459,9.6394,9.6394,9.6358,9.6288,9.6288,9.6288,9.6288,9.6288,9.6748,9.7588,9.7749,9.8016,9.8282,9.8865,9.9596,10.0404,10.0404,10.0789,10.1289,10.1289,10.1289,10.1289,10.1289,10.1289,10.1289,0.0,0.0,0.0,0.0,0.0,0.0,0.0,0.0,0.0,0.0,0.0,0.0,0.0,0.0,0.0,0.0,0.0,0.0,0.0,0.0,0.0,0.0,0.0,0.0,7.0898,7.1717,7.2112,0.0,0.0,0.0,7.4562,7.4639,7.513,7.5938,7.5938,7.5976,7.6015,0.0,0.0,0.0,0.0,7.6415,7.6591,7.6591,0.0,0.0,0.0,0.0,0.0,0.0,0.0,0.0,0.0,0.0,0.0,0.0,0.0,0.0,0.0,0.0,0.0,0.0,0.0,0.0,0.0,0.0,8.4667,8.6362,8.789,8.9007,8.9182,8.9934,9.0841,9.1756,9.221,9.31,9.4856,9.5098,9.5762,9.7479,9.7675,9.7667,9.7667,9.7667,9.7544,9.7301,9.7286,9.7165,9.7005,9.6982,9.6863,9.656,9.656,9.6481,9.6288,9.6288,9.6288,9.6288,9.6288,9.6849,9.7875,9.8471,9.9316,10.0195,10.0129,10.0481,10.1212,10.1212,10.1289,10.1289,10.1289,10.1289,10.1289,10.1289,10.1289,10.1289,0.0,0.0,0.0,0.0,0.0,0.0,0.0,0.0,0.0,0.0,0.0,0.0,0.0,0.0,0.0,7.1079,0.0,0.0,0.0,0.0,0.0,0.0,0.0,0.0,0.0,7.287,0.0,0.0,0.0,7.4437,7.4716,7.5284,7.5707,7.6015,7.6015,7.6015,7.6015,7.6133,0.0,0.0,0.0,0.0,0.0,0.0,0.0,0.0,0.0,0.0,0.0,0.0,0.0,0.0,0.0,0.0,0.0,0.0,0.0,0.0,0.0,0.0,0.0,8.1436,8.1803,8.2293,8.3855,8.4412,8.501,8.648,8.7726,8.8711,8.9223,9.0469,9.1583,9.2009,9.2323,9.3107,9.4864,9.5098,9.5762,9.7479,9.7714,9.7714,9.7714,9.7714,9.7659,9.7554,9.7396,9.7271,9.7204,9.709,9.6888,9.659,9.659,9.6513,9.6288,9.6288,9.6358,9.6481,9.7092,9.7866,9.8957,9.9731,10.0509,10.1193,10.1181,10.1205,10.1289,10.1289,10.1289,10.1289,10.1289,10.1289,10.1289,10.1289,10.1289,10.1289,0.0,0.0,0.0,0.0,0.0,0.0,0.0,0.0,0.0,0.0,0.0,0.0,0.0,0.0,0.0,7.1544,0.0,0.0,0.0,0.0,0.0,0.0,0.0,0.0,0.0,0.0,0.0,0.0,0.0,0.0,0.0,7.5745,7.6015,7.6015,7.6015,7.6034,0.0,0.0,0.0,7.6478,0.0,0.0,7.6887,0.0,0.0,0.0,0.0,0.0,0.0,0.0,0.0,0.0,0.0,0.0,0.0,0.0,0.0,0.0,0.0,0.0,0.0,0.0,8.1724,8.2234,8.3912,8.4519,8.5137,8.6666,8.7681,8.854,8.9376,9.0654,9.1692,9.2129,9.2373,9.3107,9.4864,9.5098,9.5762,9.7479,9.7714,9.7714,9.7714,9.7714,9.7714,9.7714,9.7533,9.7409,9.7409,9.7325,9.713,9.6849,9.6704,9.6568,9.6552,9.6459,9.6513,9.6732,9.7612,9.8595,9.9638,10.0391,10.1192,10.1983,10.1902,10.16,10.1289,10.1289,10.1289,10.1289,10.1289,10.1289,10.1289,10.1289,10.1404,10.14,0.0,0.0,0.0,0.0,0.0,0.0,0.0,0.0,0.0,0.0,0.0,0.0,0.0,0.0,0.0,7.2397,7.2397,7.2684,7.3534,7.3543,0.0,0.0,0.0,0.0,0.0,0.0,0.0,0.0,0.0,0.0,0.0,0.0,7.6015,7.6015,7.6015,7.6133,7.6305,0.0,7.6516,7.6804,0.0,7.6917,7.7101,0.0,0.0,0.0,7.6887,7.6804,0.0,0.0,0.0,0.0,0.0,0.0,0.0,0.0,0.0,0.0,0.0,0.0,0.0,0.0,0.0,8.1941,8.4015,8.4519,8.5058,8.7017,8.7876,8.8618,8.9789,9.0492,9.1154,9.2051,9.2362,9.3107,9.4864,9.5098,9.5762,9.7479,9.7714,9.7714,9.7714,9.7714,9.7714,9.7714,9.7714,9.7714,9.7714,9.7675,9.7554,9.7301,9.6849,9.6732,9.7005,9.6759,9.6759,9.7043,9.792,9.89,9.9966,10.0592,10.1506,10.2507,10.2205,10.1778,10.1328,10.1328,10.1328,10.1328,10.1328,10.1328,10.1328,10.1328,10.1473,10.1696,0.0,0.0,0.0,0.0,0.0,0.0,0.0,0.0,0.0,0.0,0.0,0.0,0.0,0.0,0.0,7.3618,7.3574,7.3586,7.3649,7.3581,7.3803,0.0,0.0,0.0,0.0,0.0,0.0,0.0,7.563,7.5745,7.6015,7.6015,7.6015,0.0,7.616,7.6327,7.6536,7.6536,0.0,0.0,7.6965,7.7043,0.0,0.0,0.0,0.0,0.0,7.6936,0.0,0.0,7.6738,7.6653,0.0,0.0,0.0,0.0,0.0,0.0,7.9715,0.0,0.0,0.0,0.0,0.0,8.3849,8.4395,8.5058,8.7017,8.7525,8.8149,8.9711,9.014,9.0719,9.2169,9.2468,9.3107,9.4864,9.5098,9.5762,9.7479,9.7714,9.7714,9.7714,9.7714,9.7714,9.7714,9.7714,9.7714,9.7714,9.7533,9.7383,9.7301,9.703,9.6936,9.7005,9.6936,9.7299,9.8173,9.9029,10.002,10.1114,10.1903,10.2322,10.2523,10.2396,10.2222,10.1902,10.1902,10.1902,10.1902,10.1902,10.1902,10.1902,10.1902,10.1879,10.1996,0.0,0.0,0.0,0.0,0.0,0.0,0.0,0.0,0.0,0.0,0.0,0.0,0.0,0.0,7.434,7.4652,7.4558,7.4601,7.4834,7.4753,7.4851,7.5255,0.0,0.0,0.0,0.0,0.0,0.0,7.5716,7.5716,7.6034,7.6034,7.609,0.0,0.0,0.0,0.0,0.0,0.0,0.0,7.7043,0.0,0.0,7.7101,7.7101,0.0,0.0,0.0,7.755,7.7531,7.7648,0.0,0.0,0.0,0.0,0.0,0.0,0.0,0.0,0.0,0.0,0.0,0.0,0.0,8.3771,8.4356,8.5058,8.7017,8.7407,8.7915,8.9672,8.9984,9.057,9.2248,9.2482,9.299,9.4356,9.4864,9.5606,9.6972,9.7479,9.7714,9.7714,9.7714,9.7714,9.7714,9.7714,9.7714,9.7714,9.7544,9.7472,9.7472,9.7238,9.7186,9.7294,9.7186,9.7667,9.8798,9.9656,10.0587,10.15,10.2398,10.2685,10.262,10.262,10.249,10.2396,10.2396,10.2304,10.2094,10.2094,10.2094,10.2094,10.2094,10.2201,10.2323,0.0,0.0,0.0,0.0,0.0,0.0,0.0,0.0,0.0,0.0,0.0,7.3455,7.4294,7.4453,7.4844,7.5586,7.5521,7.5735,7.6498,7.6378,7.621,0.0,0.0,0.0,0.0,0.0,0.0,0.0,0.0,0.0,0.0,0.0,0.0,0.0,0.0,0.0,0.0,0.0,0.0,7.7101,7.7101,7.7101,0.0,0.0,7.7101,0.0,7.7224,7.7726,7.8395,7.85,7.8926,0.0,0.0,0.0,0.0,0.0,8.0232,0.0,0.0,0.0,0.0,0.0,0.0,0.0,8.382,8.4356,8.5058,8.7017,8.7407,8.7915,8.9555,8.9945,9.0531,9.2092,9.2443,9.2795,9.3693,9.4552,9.541,9.6308,9.7167,9.7714,9.7714,9.7714,9.7714,9.7714,9.7714,9.7714,9.7714,9.7714,9.7714,9.7714,9.7472,9.746,9.7714,9.7472,9.794,9.9158,9.9939,10.0798,10.1696,10.2398,10.2789,10.2789,10.2789,10.2789,10.2789,10.2789,10.2595,10.2222,10.2222,10.2222,10.2222,10.2222,10.2303,10.2514,0.0,0.0,0.0,0.0,0.0,0.0,0.0,0.0,0.0,0.0,7.47,7.5181,7.539,7.6133,7.664,7.6719,7.6668,7.6663,7.666,7.6606,0.0,0.0,0.0,0.0,0.0,0.0,0.0,0.0,0.0,0.0,0.0,0.0,0.0,0.0,0.0,0.0,0.0,0.0,0.0,7.7101,7.7101,0.0,7.7101,7.7087,7.7083,7.7185,7.7907,7.8254,7.8518,0.0,7.9413,7.9526,0.0,0.0,0.0,0.0,0.0,0.0,0.0,0.0,0.0,0.0,0.0,0.0,8.3997,8.448,8.5065,8.7017,8.7407,8.772,8.8774,8.9516,9.0335,9.135,9.2092,9.2795,9.3693,9.4552,9.541,9.6308,9.7167,9.7714,9.7714,9.7714,9.7714,9.7714,9.7714,9.7714,9.7714,9.7714,9.7714,9.7714,9.7659,9.7659,9.7714,9.7659,9.8439,10.0017,10.0212,10.111,10.2593,10.2711,10.2789,10.2789,10.2789,10.2789,10.2789,10.2789,10.2694,10.2694,10.2694,10.2694,10.2694,10.2694,10.2704,10.2685,0.0,0.0,0.0,0.0,0.0,0.0,0.0,0.0,0.0,7.5023,7.5907,7.6445,7.6445,7.6914,7.7187,7.7109,7.7031,7.6977,7.6855,7.6804,0.0,0.0,0.0,0.0,0.0,0.0,0.0,0.0,0.0,0.0,0.0,0.0,0.0,0.0,0.0,0.0,0.0,0.0,7.7335,7.7726,7.7257,0.0,7.7185,7.7599,7.7751,7.7921,7.8757,7.9317,7.9831,8.0691,8.0932,0.0,0.0,8.1421,8.141,0.0,8.1772,8.1639,0.0,0.0,0.0,8.1429,0.0,0.0,0.0,8.4597,8.5182,8.7017,8.7407,8.7681,8.854,8.9398,9.0296,9.1155,9.1975,9.2639,9.3107,9.3888,9.4786,9.5645,9.6503,9.7206,9.7675,9.7714,9.7714,9.7714,9.7714,9.7714,9.7714,9.7714,9.7714,9.7714,9.7714,9.7714,9.7714,9.7714,9.8572,10.029,10.029,10.1188,10.2789,10.2789,10.2789,10.2789,10.2789,10.2789,10.2789,10.2789,10.2789,10.2789,10.2789,10.2789,10.2789,10.2789,10.2789,10.2789,0.0,0.0,0.0,0.0,0.0,0.0,0.0,0.0,0.0,7.6015,7.6758,7.7187,7.7187,7.7187,0.0,7.7187,7.7109,7.7031,0.0,0.0,0.0,0.0,7.6793,7.6749,0.0,0.0,0.0,0.0,7.6643,7.6682,0.0,0.0,0.0,0.0,0.0,0.0,0.0,0.0,0.0,7.835,0.0,7.7648,7.7732,7.8383,7.8696,7.8835,7.9655,8.0498,8.1367,8.2051,0.0,8.2304,8.2304,8.2292,0.0,0.0,0.0,0.0,0.0,0.0,0.0,0.0,0.0,8.2684,0.0,0.0,0.0,8.7095,8.7407,8.7603,8.8305,8.9281,9.0101,9.0492,9.1663,9.2404,9.2053,9.2912,9.3888,9.4747,9.5762,9.6699,9.7362,9.7597,9.7714,9.7714,9.7714,9.7714,9.7714,9.7714,9.7714,9.7714,9.7714,9.7714,9.7714,9.7714,9.8572,10.029,10.029,10.1188,10.2789,10.2789,10.2789,10.2789,10.2789,10.2789,10.2789,10.2789,10.2789,10.2789,10.2789,10.2789,10.2789,10.2789,10.2789,10.2789,0.0,0.0,0.0,0.0,0.0,0.0,0.0,0.0,7.6055,7.6953,7.7148,7.7187,0.0,0.0,0.0,0.0,0.0,0.0,7.7187,0.0,0.0,0.0,0.0,0.0,7.6755,0.0,0.0,0.0,7.6777,7.6855,7.6962,7.698,0.0,0.0,7.7094,0.0,0.0,0.0,7.8311,0.0,7.9131,7.9405,0.0,7.9526,7.957,7.9687,8.0546,8.1406,8.2187,0.0,8.2304,8.2304,0.0,8.2289,0.0,0.0,0.0,0.0,0.0,0.0,0.0,0.0,8.2684,0.0,0.0,0.0,8.6236,8.7212,0.0,8.7446,8.7525,0.0,0.0,8.8071,9.0452,9.1975,9.0492,9.1663,9.2951,9.3849,9.541,9.6425,9.6542,9.7245,9.7714,9.7714,9.7714,9.7714,9.7714,9.7714,9.7714,9.7714,9.7714,9.7714,9.7714,9.7714,9.8572,10.029,10.029,10.1188,10.2789,10.2789,10.2789,10.2789,10.2789,10.2789,10.2789,10.2789,10.2789,10.2789,10.2789,10.2789,10.2789,10.2789,10.2789,10.2789,0.0,0.0,0.0,0.0,0.0,0.0,0.0,0.0,7.6797,7.7148,7.7187,7.7187,0.0,0.0,0.0,0.0,0.0,0.0,0.0,0.0,0.0,0.0,0.0,0.0,0.0,0.0,0.0,0.0,7.6933,7.6972,7.7141,7.7128,7.7133,0.0,7.7187,0.0,7.7881,0.0,0.0,0.0,0.0,0.0,0.0,8.0641,8.0774,8.125,8.1601,8.1992,8.2383,0.0,8.3047,0.0,0.0,0.0,0.0,0.0,0.0,0.0,0.0,0.0,0.0,0.0,0.0,0.0,8.5377,0.0,8.6353,0.0,0.0,0.0,0.0,0.0,0.0,0.0,9.0921,9.2248,9.1546,9.2053,9.278,9.3543,9.4831,9.6035,9.705,9.7479,9.7714,9.7714,9.7714,9.7714,9.7714,9.7714,9.7714,9.7714,9.7714,9.7714,9.7714,9.8182,9.908,10.029,10.0798,10.1618,10.2789,10.2789,10.2789,10.2789,10.2789,10.2789,10.2789,10.2789,10.2789,10.2789,10.2789,10.2789,10.2789,10.2789,10.2789,10.2789,0.0,0.0,0.0,0.0,0.0,0.0,0.0,0.0,0.0,0.0,0.0,0.0,7.7187,7.7187,0.0,0.0,0.0,7.7187,0.0,0.0,7.7187,0.0,0.0,0.0,0.0,0.0,0.0,0.0,0.0,7.7109,7.7187,7.7187,7.7344,0.0,0.0,7.8008,7.8789,0.0,0.0,8.1011,8.1261,8.189,8.255,8.1691,8.1904,8.2656,8.2656,8.2812,8.3125,8.375,8.3945,0.0,8.4687,0.0,0.0,0.0,0.0,0.0,8.4726,0.0,0.0,0.0,0.0,0.0,0.0,0.0,0.0,0.0,0.0,0.0,0.0,0.0,8.9828,8.9359,0.0,9.2326,9.1897,9.2209,9.2694,9.3158,9.4295,9.5593,9.7015,9.7355,9.7522,9.7593,9.7602,9.7611,9.7714,9.7714,9.7714,9.7714,9.7714,9.7714,9.7714,9.8572,9.9431,10.029,10.111,10.2008,10.2789,10.2789,10.2789,10.2789,10.2789,10.2789,10.2789,10.2789,10.2789,10.2789,10.2789,10.2789,10.2789,10.2789,10.2789,10.2789,0.0,7.7148,0.0,0.0,0.0,0.0,0.0,0.0,0.0,0.0,0.0,0.0,0.0,0.0,0.0,0.0,0.0,7.7187,7.7187,0.0,7.7187,0.0,0.0,0.0,0.0,0.0,0.0,0.0,0.0,0.0,7.7187,0.0,0.0,0.0,0.0,7.8906,7.9726,8.0547,8.0969,8.1056,8.1911,8.2773,8.3476,0.0,8.2812,8.3554,8.3554,0.0,0.0,8.4844,8.4844,8.4844,8.4883,0.0,0.0,0.0,0.0,0.0,0.0,0.0,0.0,8.4882,0.0,0.0,0.0,0.0,8.7368,0.0,0.0,0.0,0.0,0.0,0.0,0.0,9.0296,0.0,0.0,9.1467,9.2522,9.2522,9.3872,9.5057,9.5688,9.6521,9.711,9.7301,9.7316,9.7448,9.7675,9.7714,9.7714,9.7714,9.7714,9.7714,9.7714,9.8572,9.9431,10.029,10.111,10.2008,10.2789,10.2789,10.2789,10.2789,10.2789,10.2789,10.2789,10.2789,10.2789,10.2789,10.2789,10.2789,10.2789,10.2789,10.2789,10.2789,0.0,0.0,0.0,0.0,0.0,0.0,0.0,7.7187,0.0,0.0,0.0,0.0,0.0,0.0,7.7187,0.0,0.0,7.7187,7.7187,7.7187,0.0,0.0,0.0,7.7187,0.0,0.0,0.0,0.0,0.0,0.0,0.0,0.0,0.0,0.0,0.0,7.9765,0.0,0.0,0.0,0.0,0.0,8.3672,8.4375,0.0,8.3711,8.4453,8.4453,8.4648,8.5,8.5586,8.5742,8.5859,8.6445,8.6601,8.6601,8.6601,8.6601,8.6601,8.6601,8.6601,8.6601,8.6601,0.0,0.0,0.0,0.0,0.0,0.0,0.0,0.0,0.0,0.0,9.0687,9.0062,9.1389,9.2287,0.0,9.2131,9.2468,9.2312,9.3006,9.4108,9.5802,9.6248,9.6741,9.7505,9.7554,9.7602,9.7714,9.7714,9.7714,9.7714,9.7714,9.7714,9.7714,9.9158,10.0017,10.029,10.1696,10.2515,10.2789,10.2789,10.2789,10.2789,10.2789,10.2789,10.2789,10.2789,10.2789,10.2789,10.2789,10.2789,10.2789,10.2789,10.2789,10.2906,7.7187,0.0,0.0,0.0,0.0,0.0,0.0,0.0,0.0,0.0,7.7187,0.0,7.7187,0.0,7.7187,0.0,7.7187,7.7344,7.7656,7.7656,0.0,7.8086,7.8086,0.0,0.0,0.0,0.0,0.0,0.0,7.8945,0.0,0.0,0.0,0.0,0.0,0.0,8.1445,0.0,8.1953,0.0,0.0,8.457,0.0,0.0,8.4883,8.5351,8.5351,8.5547,8.5898,8.6484,8.6836,8.7187,8.7734,8.8125,8.8398,8.8398,8.8398,8.8398,8.8398,8.8398,8.8398,8.8398,8.8398,0.0,8.832,0.0,8.832,0.0,0.0,0.0,0.0,0.0,9.1311,9.1311,9.2014,9.2522,0.0,9.2459,9.2334,9.221,9.2696,9.3702,9.5335,9.5781,9.639,9.7466,9.7544,9.7602,9.7675,9.7714,9.7714,9.7714,9.7714,9.7714,9.7714,9.9431,10.029,10.029,10.2008,10.2789,10.2789,10.2789,10.2789,10.2789,10.2789,10.2789,10.2789,10.2789,10.2789,10.2789,10.2789,10.2789,10.2789,10.2789,10.2984,10.3296,0.0,0.0,0.0,0.0,7.7187,0.0,0.0,0.0,7.7187,0.0,7.7187,7.7187,7.7187,7.7226,7.7265,7.7265,7.7305,0.0,7.8515,7.8555,0.0,0.0,7.9687,7.9687,7.9687,7.9687,0.0,0.0,0.0,0.0,0.0,0.0,0.0,0.0,8.1054,0.0,8.2304,8.2344,8.289,8.3789,8.4648,8.5508,8.6328,8.6328,8.6367,8.6367,8.6328,8.6875,8.7617,8.7617,8.8125,8.875,8.875,8.9336,9.0,9.0,9.0,9.0,9.0,9.0,9.0,9.0,9.0,9.0,9.0,0.0,9.0,0.0,0.0,0.0,0.0,0.0,0.0,9.135,9.2053,9.2561,9.2522,9.2323,9.221,9.221,9.2976,9.3733,9.4366,9.5161,9.6099,9.7223,9.7316,9.7409,9.7675,9.7714,9.7714,9.7714,9.7714,9.7714,9.7714,9.9431,10.029,10.029,10.2008,10.2789,10.2789,10.2789,10.2789,10.2789,10.2789,10.2789,10.2789,10.2789,10.2789,10.2789,10.2789,10.2789,10.2906,10.2906,10.3413,10.4116,7.7187,7.7187,7.7187,0.0,7.7187,7.7187,0.0,0.0,0.0,0.0,7.7187,7.7187,7.7187,7.7773,7.8164,7.8164,7.8711,0.0,0.0,0.0,0.0,7.9687,7.9687,7.9687,7.9687,7.9687,0.0,7.9687,0.0,0.0,8.0664,0.0,0.0,0.0,0.0,0.0,8.2344,8.3008,8.414,8.5547,8.5781,8.6758,8.8047,8.8047,8.8476,8.8945,8.8281,8.8633,8.9375,8.9375,8.9492,8.9687,8.9687,8.9804,9.0,9.0,9.0,9.0,9.0,9.0,9.0,9.0,9.0,9.0,9.0,9.0,9.0,0.0,0.0,0.0,0.0,0.0,0.0,0.0,9.2463,9.26,0.0,0.0,0.0,9.2412,9.3192,9.3972,9.4606,9.4902,9.5757,9.7476,9.7602,9.7611,9.7714,9.7714,9.7714,9.7714,9.7714,9.7714,9.7714,9.9431,10.029,10.029,10.2008,10.2789,10.2789,10.2789,10.2789,10.2789,10.2789,10.2789,10.2789,10.2789,10.2789,10.2789,10.2789,10.3218,10.3804,10.3804,10.3882,10.4311,7.7187,0.0,0.0,7.7187,0.0,0.0,7.7187,0.0,0.0,7.7773,7.8086,0.0,7.8281,7.8711,7.9023,7.9023,7.9453,0.0,0.0,0.0,0.0,8.082,8.0859,8.0859,8.0859,8.0859,0.0,8.0859,0.0,0.0,8.1562,8.207,8.2304,8.2304,0.0,8.2851,8.2969,8.4219,8.5312,8.625,8.6992,8.7851,0.0,8.9101,8.9804,9.0508,9.0,8.9922,9.0,9.0,9.0234,9.0586,9.0586,9.082,9.1133,9.1133,9.1133,9.1133,9.1133,9.1133,9.1133,9.1133,9.1133,9.1133,9.1133,9.1133,9.1133,9.1133,9.1523,9.1875,9.1875,0.0,0.0,0.0,0.0,0.0,0.0,0.0,0.0,0.0,9.2912,9.3678,9.4831,9.5288,9.5944,9.705,9.7368,9.7593,9.7675,9.7602,9.7593,9.7714,9.7714,9.7714,9.7714,9.9431,10.029,10.029,10.2008,10.2789,10.2789,10.2789,10.2789,10.2789,10.2789,10.2789,10.2789,10.2789,10.2789,10.2789,10.3218,10.3687,10.4194,10.5014,10.5209,10.5404,0.0,0.0,0.0,0.0,0.0,0.0,0.0,7.8086,0.0,7.8515,0.0,7.9687,7.9687,7.9805,7.9883,7.9883,0.0,8.0351,8.1133,8.1172,8.1523,8.2265,8.2304,8.2304,8.2304,8.2304,0.0,0.0,0.0,0.0,8.2304,8.2422,8.2461,8.25,8.3398,0.0,0.0,8.5664,8.6445,8.664,8.8242,8.8945,8.9101,8.9883,9.0703,9.1484,9.1484,9.0976,9.0351,9.0351,9.0859,9.1484,9.1484,9.1992,9.2617,9.2617,9.2617,9.2617,9.2617,9.2617,9.2617,9.2617,9.2695,9.2773,9.2773,9.2851,9.2929,9.2929,9.2929,9.2929,9.2929,9.2929,9.2929,9.2929,0.0,0.0,0.0,0.0,0.0,0.0,0.0,0.0,9.4786,9.5723,9.6308,9.6542,9.7031,9.7409,9.7667,9.746,9.7409,9.7675,9.7714,9.7714,9.7714,9.9431,10.029,10.029,10.2008,10.2789,10.2789,10.2789,10.2789,10.2789,10.2789,10.2789,10.2789,10.2789,10.2906,10.2984,10.3804,10.4194,10.4584,10.6107,10.681,10.6888,0.0,0.0,0.0,0.0,0.0,7.8515,7.914,7.8828,7.8515,7.8515,7.9219,7.9687,7.9687,8.0351,8.0781,8.0781,8.1445,0.0,0.0,0.0,0.0,8.2304,8.2304,8.2304,8.2304,8.2304,8.2304,0.0,8.2304,8.2304,8.2304,8.3047,8.3359,8.3398,8.4297,8.5078,8.582,8.6836,8.7656,8.8359,8.9375,9.0195,9.0859,9.1015,9.1601,9.2383,9.2383,9.2265,9.2148,9.2148,9.2265,9.2383,9.2383,9.2461,9.2617,9.2617,9.2617,9.2617,9.2617,9.2617,9.2617,9.2617,9.3125,9.3672,9.3672,9.4219,9.4726,9.4726,9.4726,9.4726,9.4726,9.4726,9.4726,9.4726,0.0,0.0,0.0,0.0,0.0,0.0,0.0,9.5254,9.4122,9.4825,9.5918,9.7362,9.7382,9.7409,9.7667,9.746,9.7409,9.7675,9.7714,9.7714,9.7714,9.9431,10.029,10.029,10.2008,10.2789,10.2789,10.2789,10.2789,10.2789,10.2789,10.2789,10.2789,10.2789,10.3218,10.3882,10.3999,10.5014,10.6302,10.6614,10.72,10.7786,0.0,0.0,0.0,0.0,0.0,0.0,0.0,7.9765,0.0,7.9805,8.0547,8.1211,8.1679,8.2109,8.2539,8.2969,8.3398,8.3633,8.3633,8.3633,8.3633,8.3633,8.3633,0.0,8.3633,8.3633,8.3633,8.3633,8.3633,8.3633,8.3672,8.4062,8.4258,8.4297,8.5195,8.6289,8.7539,8.7929,8.8594,8.9453,9.0312,9.0937,9.1367,9.1797,9.2539,9.3281,9.3281,9.3554,9.3867,9.3437,9.3281,9.3359,9.3828,9.3945,9.3945,9.3945,9.3945,9.3945,9.3945,9.3945,9.3945,9.3945,9.4258,9.457,9.457,9.4883,9.5195,9.5195,9.5195,9.5195,9.5195,9.5195,9.5195,0.0,0.0,0.0,0.0,0.0,0.0,0.0,0.0,0.0,0.0,9.5527,9.6113,9.6972,9.7187,9.7409,9.7667,9.746,9.7409,9.7675,9.7714,9.7714,9.7714,9.9431,10.029,10.029,10.2008,10.2789,10.2789,10.2789,10.2789,10.2789,10.2789,10.2789,10.2789,10.2789,10.3296,10.4116,10.4584,10.5599,10.681,10.72,10.759,10.802,0.0,7.9258,0.0,0.0,8.0117,0.0,8.0508,8.1289,8.1719,8.1328,8.2031,8.289,8.3789,8.3867,8.414,8.4844,8.4883,8.4883,8.4883,8.4883,8.4883,8.4883,8.4883,8.4883,8.4883,8.4883,8.4883,0.0,8.4883,8.4883,8.4883,8.5078,8.5351,8.5742,8.6445,8.7578,8.8984,8.9179,8.9648,9.0351,9.1211,9.1679,9.1914,9.2617,9.3437,9.4179,9.4179,9.4609,9.5117,9.4609,9.4336,9.4297,9.4961,9.5195,9.5195,9.5195,9.5195,9.5195,9.5195,9.5195,9.5195,9.5195,9.5351,9.5469,9.5469,9.5625,9.5742,9.5742,9.5742,9.5742,9.5742,9.5742,9.5742,9.5742,0.0,0.0,0.0,0.0,0.0,0.0,0.0,0.0,9.6361,9.6556,9.6667,9.6699,9.707,9.7409,9.7667,9.746,9.7409,9.7675,9.7714,9.7714,9.7714,9.9431,10.029,10.029,10.2008,10.2789,10.2789,10.2789,10.2789,10.2789,10.2789,10.2789,10.2789,10.2984,10.3608,10.4506,10.5287,10.6185,10.7083,10.7708,10.802,10.802,0.0,0.0,0.0,0.0,0.0,0.0,8.3125,8.3984,8.3984,8.2383,8.2929,8.3828,8.4687,8.4765,8.4804,8.4883,8.4883,8.4883,8.4883,8.4883,8.4883,8.4883,8.4883,8.4883,8.4883,8.4883,8.4883,0.0,8.4883,8.4883,8.4922,8.5703,8.6875,8.8359,8.8437,8.8984,8.9922,9.0703,9.1094,9.125,9.2148,9.2969,9.3672,9.375,9.4336,9.5078,9.5078,9.5117,9.5312,9.6015,9.5742,9.5078,9.5156,9.5195,9.5195,9.5195,9.5195,9.5195,9.5195,9.5195,9.5195,9.5195,9.5781,9.6367,9.6367,9.6953,9.7461,9.7461,9.7461,9.7461,9.7461,9.7461,9.7461,9.7461,0.0,0.0,0.0,0.0,0.0,0.0,0.0,0.0,9.6466,9.709,9.7589,9.7558,9.7421,9.7409,9.7667,9.746,9.7409,9.7675,9.7714,9.7714,9.7714,9.9431,10.029,10.029,10.2008,10.2789,10.2789,10.2789,10.2789,10.2789,10.2789,10.2789,10.2906,10.3687,10.4506,10.5404,10.6185,10.7083,10.7903,10.802,10.802,10.802,0.0,0.0,0.0,0.0,0.0,0.0,0.0,8.4687,8.4844,8.4648,8.4492,8.4726,8.5586,8.5664,8.5898,8.6406,8.6445,8.6445,8.6445,8.6445,8.6445,8.6445,8.6445,8.6445,8.6445,8.6445,8.6445,0.0,0.0,0.0,8.7187,8.8086,8.8828,8.9492,8.9492,8.9961,9.0781,9.1133,9.1601,9.2148,9.3047,9.3594,9.3945,9.4492,9.5234,9.5976,9.5976,9.6289,9.6758,9.7109,9.6679,9.6054,9.6562,9.6719,9.6719,9.6719,9.6719,9.6719,9.6719,9.6719,9.6719,9.6719,9.6953,9.7226,9.7226,9.7461,9.7695,9.7695,9.7695,9.7695,9.7695,9.7695,9.7695,9.7695,9.7422,0.0,0.0,0.0,0.0,0.0,0.0,0.0,0.0,9.7485,9.7711,9.7714,9.7602,9.7602,9.7675,9.7602,9.7602,9.7714,9.7714,9.7948,9.8494,9.9705,10.0485,10.0993,10.2203,10.2789,10.2789,10.2789,10.2789,10.2789,10.2789,10.3101,10.3608,10.3999,10.4897,10.6185,10.6614,10.72,10.802,10.802,10.802,10.802,8.3047,0.0,8.4883,0.0,8.5117,8.5273,8.5273,8.5703,8.625,8.6836,8.6601,8.6523,8.6914,8.6953,8.7304,8.8164,8.8242,8.8242,8.8242,8.8242,8.8242,8.8242,8.8242,0.0,8.8242,8.8242,8.8242,8.8242,8.8789,0.0,8.9101,8.9726,9.0156,9.039,9.039,9.0859,9.1719,9.1953,9.2422,9.3047,9.3945,9.4453,9.4726,9.5351,9.6094,9.6836,9.6836,9.7226,9.7695,9.7695,9.7304,9.6953,9.7539,9.7695,9.7695,9.7695,9.7695,9.7695,9.7695,9.7695,9.7695,9.7695,9.7695,9.7695,9.7695,9.7695,9.7695,9.7695,9.7695,9.7695,9.7695,9.7695,9.7695,9.7695,9.7695,9.7695,0.0,9.7695,0.0,0.0,9.7695,9.7695,9.7689,9.7689,9.7684,9.7706,9.7689,9.7714,9.7714,9.7714,9.7714,9.7714,9.7714,9.8104,9.9002,9.9861,10.0681,10.15,10.2398,10.2789,10.2789,10.2789,10.2789,10.2789,10.3101,10.3491,10.4116,10.4702,10.5599,10.6693,10.7005,10.7512,10.802,10.802,10.802,10.802,8.4883,8.4883,8.4883,8.4883,8.5625,8.6172,8.6172,8.7578,8.8672,8.8672,8.9414,8.9609,8.875,8.8672,8.9023,8.9883,8.9961,8.9961,8.9961,8.9961,8.9961,0.0,0.0,8.9961,8.9961,8.9961,8.9961,8.9961,0.0,8.9961,8.9961,9.0,9.0469,9.1289,9.1289,9.1758,9.2656,9.3515,9.3867,9.3945,9.4844,9.5703,9.6484,9.6484,9.6992,9.7695,9.7695,9.7695,9.7695,9.7695,9.7695,9.7695,9.7695,9.7695,9.7695,9.7695,9.7695,9.7695,9.7695,9.7695,9.7695,9.7695,9.7695,9.7695,9.7695,9.7695,9.7695,9.7695,9.7695,9.7695,9.7695,9.7695,9.7695,9.7695,9.7695,9.7695,0.0,9.7695,0.0,9.7695,9.7695,9.7695,9.7695,9.7695,9.7695,9.7695,9.7711,9.7714,9.7714,9.7714,9.7714,9.7714,9.7714,9.8104,9.9002,9.9861,10.0681,10.15,10.2398,10.2789,10.2789,10.2789,10.2789,10.2789,10.3687,10.4116,10.4194,10.599,10.6693,10.681,10.759,10.802,10.802,10.802,10.802,10.802,8.5781,8.625,8.6836,8.7383,8.7734,8.8086,8.8711,8.9258,8.9609,8.9609,8.9844,9.0117,9.0429,8.9922,8.9687,8.9961,9.0,9.0,9.0,9.0,9.0,9.0,9.0,9.0,9.0,9.0,9.0,9.0,9.0586,9.1172,9.1758,9.1758,9.1914,9.2226,9.2812,9.3242,9.3554,9.4414,9.4804,9.4844,9.5742,9.625,9.6562,9.7109,9.7461,9.7695,9.7695,9.7695,9.7695,9.7695,9.7695,9.7695,9.7695,9.7695,9.7695,9.7695,9.7695,9.7695,9.7695,9.7695,9.7695,9.7695,9.7695,9.7695,9.7695,9.7695,9.7695,9.7695,9.7695,9.7695,9.7695,9.7695,9.7695,9.7695,9.7695,9.7695,9.7695,9.7695,9.7695,9.7695,9.7695,9.7695,9.7695,9.7695,9.7695,9.7695,9.7693,9.7684,9.7711,9.7706,9.7701,9.7714,9.8299,9.9002,9.9861,10.0798,10.1618,10.2398,10.2711,10.2789,10.2789,10.2789,10.2789,10.2789,10.3687,10.4389,10.5092,10.6185,10.7083,10.759,10.7903,10.802,10.802,10.802,10.802,10.802,8.7617,8.8086,8.8594,8.9101,8.9179,8.9375,8.9922,9.0273,9.0508,9.0508,9.0781,9.1172,9.1719,9.1289,9.0976,9.0976,9.0976,9.0976,9.0976,9.0976,9.0976,9.0976,9.0976,9.0976,9.0976,9.0976,9.0976,9.0976,9.1523,9.2226,9.3086,9.3086,9.3242,9.3594,9.414,9.4375,9.4453,9.5312,9.5703,9.5742,9.6601,9.6953,9.6992,9.75,9.7695,9.7695,9.7695,9.7695,9.7695,9.7695,9.7695,9.7695,9.7695,9.7695,9.7695,9.7695,9.7695,9.7695,9.7695,9.7695,9.7695,9.7695,9.7695,9.7695,9.7695,9.7695,9.7695,9.7695,9.7695,9.7695,9.7695,9.7695,9.7695,9.7695,9.7695,9.7695,9.7695,9.7695,9.7695,9.7695,9.7695,9.7695,9.7695,9.7695,9.7695,9.7695,9.7695,9.7695,9.7689,9.7689,9.784,9.818,9.8704,9.9588,10.0798,10.1281,10.199,10.281,10.2796,10.2789,10.2789,10.2789,10.2984,10.3296,10.4194,10.5092,10.599,10.681,10.7512,10.802,10.802,10.802,10.802,10.802,10.802,10.802,9.0,9.0,9.0039,9.0078,9.0078,9.0117,9.0156,9.0859,9.1406,9.1406,9.2148,9.2695,9.2695,9.2734,9.2773,9.2773,9.2656,9.2617,9.2617,9.2617,9.2617,9.2695,9.2695,9.2734,9.2773,9.2773,9.2773,9.2773,9.2773,9.3203,9.3984,9.3984,9.4414,9.5195,9.5273,9.5273,9.5351,9.6211,9.6562,9.664,9.7383,9.7695,9.7695,9.7695,9.7695,9.7695,9.7695,9.7695,9.7695,9.7695,9.7695,9.7695,9.7695,9.7695,9.7695,9.7695,9.7695,9.7695,9.7695,9.7695,9.7695,9.7695,9.7695,9.7695,9.7695,9.7695,9.7695,9.7695,9.7695,9.7695,9.7695,9.7695,9.7695,9.7695,9.7695,9.7695,9.7695,9.7695,9.7695,9.7695,9.7695,9.7695,9.7695,9.7695,9.7695,9.7695,9.7695,9.7695,9.7695,9.7773,9.8164,9.8984,9.9078,9.99,10.1578,10.1689,10.2094,10.2914,10.281,10.2789,10.2789,10.2906,10.3296,10.4194,10.5092,10.599,10.681,10.759,10.802,10.802,10.802,10.802,10.802,10.802,10.802,10.802,9.0,9.0,9.0195,9.0898,9.0976,9.1211,9.1875,9.2148,9.2304,9.2304,9.3047,9.3594,9.3594,9.4179,9.457,9.457,9.3359,9.2617,9.2617,9.2617,9.289,9.3554,9.3594,9.3906,9.457,9.457,9.457,9.457,9.457,9.4687,9.4883,9.4883,9.5,9.5234,9.5898,9.6172,9.625,9.707,9.7422,9.7422,9.7617,9.7695,9.7695,9.7695,9.7695,9.7695,9.7695,9.7695,9.7695,9.7695,9.7695,9.7695,9.7695,9.7695,9.7695,9.7695,9.7695,9.7695,9.7695,9.7695,9.7695,9.7695,9.7695,9.7695,9.7695,9.7695,9.7695,9.7695,9.7695,9.7695,9.7695,9.7695,9.7695,9.7695,9.7695,9.7695,9.7695,9.7695,9.7695,9.7695,9.7695,9.7695,9.7695,9.7695,9.7695,9.7695,9.7695,9.7695,9.7695,9.832,9.8789,9.8984,9.9664,10.0485,10.1586,10.2289,10.271,10.2889,10.2816,10.2789,10.2789,10.3491,10.3882,10.4194,10.5717,10.6497,10.681,10.759,10.802,10.802,10.802,10.802,10.802,10.802,10.802,10.802,9.1172,9.1172,9.1328,9.1797,9.1875,9.2187,9.3047,9.3203,9.3359,9.375,9.4219,9.4492,9.4492,9.4922,9.5195,9.5195,9.4336,9.3789,9.3789,9.3789,9.3984,9.4453,9.4492,9.4726,9.5195,9.5195,9.5195,9.5195,9.5195,9.539,9.5781,9.5781,9.5976,9.6367,9.6836,9.7031,9.707,9.75,9.7695,9.7695,9.7695,9.7695,9.7695,9.7695,9.7695,9.7695,9.7695,9.7695,9.7695,9.7695,9.7695,9.7695,9.7695,9.7695,9.7695,9.7695,9.7695,9.7695,9.7695,9.7695,9.7695,9.7695,9.7695,9.7695,9.7695,9.7695,9.7695,9.7695,9.7695,9.7695,9.7695,9.7695,9.7695,9.7695,9.7695,9.7695,9.7695,9.7695,9.7695,9.7695,9.7695,9.7695,9.7695,9.7695,9.7695,9.7695,9.8086,9.8281,9.8281,9.9101,9.9609,9.9609,10.0384,10.1312,10.2211,10.2714,10.2882,10.289,10.2882,10.2783,10.2789,10.3687,10.4311,10.4819,10.6107,10.6888,10.7317,10.7786,10.802,10.802,10.802,10.802,10.802,10.802,10.802,10.802,9.2773,9.2812,9.2851,9.2969,9.3008,9.3242,9.3984,9.4101,9.4375,9.5117,9.5312,9.539,9.539,9.5508,9.5586,9.5586,9.5586,9.5469,9.5234,9.5195,9.5273,9.539,9.539,9.5469,9.5586,9.5586,9.5586,9.5586,9.5586,9.5976,9.6679,9.6679,9.7031,9.7695,9.7695,9.7695,9.7695,9.7695,9.7695,9.7695,9.7695,9.7695,9.7695,9.7695,9.7695,9.7695,9.7695,9.7695,9.7695,9.7695,9.7695,9.7695,9.7695,9.7695,9.7695,9.7695,9.7695,9.7695,9.7695,9.7695,9.7695,9.7695,9.7695,9.7695,9.7695,9.7695,9.7695,9.7695,9.7695,9.7695,9.7695,9.7695,9.7695,9.7695,9.7695,9.7695,9.7695,9.7695,9.7695,9.7695,9.7695,9.7695,9.7695,9.7695,9.7734,9.789,9.8594,9.9062,9.9179,10.0,10.0508,10.0508,10.1211,10.1992,10.289,10.289,10.289,10.289,10.289,10.2884,10.2999,10.3889,10.4819,10.5599,10.6497,10.7317,10.802,10.802,10.802,10.802,10.802,10.802,10.802,10.802,10.802,10.802,9.3554,9.3711,9.3945,9.4687,9.4804,9.4844,9.4961,9.5,9.5039,9.5195,9.5859,9.6289,9.6289,9.6914,9.7304,9.7304,9.7304,9.6719,9.5273,9.5195,9.5547,9.6289,9.6289,9.6601,9.7304,9.7304,9.7304,9.7304,9.7304,9.7383,9.75,9.75,9.7578,9.7695,9.7695,9.7695,9.7695,9.7695,9.7695,9.7695,9.7695,9.7695,9.7695,9.7695,9.7695,9.7695,9.7695,9.7695,9.7695,9.7695,9.7695,9.7695,9.7695,9.7695,9.7695,9.7695,9.7695,9.7695,9.7695,9.7695,9.7695,9.7695,9.7695,9.7695,9.7695,9.7695,9.7695,9.7695,9.7695,9.7695,9.7695,9.7695,9.7695,9.7695,9.7695,9.7695,9.7695,9.7695,9.7695,9.7695,9.7695,9.7695,9.7695,9.7695,9.8008,9.875,9.8906,9.9336,10.0117,10.0898,10.1406,10.1406,10.1484,10.1992,10.289,10.289,10.289,10.289,10.289,10.3281,10.3982,10.4808,10.5717,10.6497,10.7395,10.7903,10.802,10.802,10.802,10.802,10.802,10.802,10.802,10.802,10.802,10.802,9.4531,9.4609,9.4726,9.5117,9.5195,9.5351,9.582,9.5898,9.6054,9.6484,9.6914,9.7148,9.7148,9.7461,9.7695,9.7695,9.7695,9.7383,9.6601,9.6562,9.6719,9.7148,9.7148,9.7304,9.7695,9.7695,9.7695,9.7695,9.7695,9.7695,9.7695,9.7695,9.7695,9.7695,9.7695,9.7695,9.7695,9.7695,9.7695,9.7695,9.7695,9.7695,9.7695,9.7695,9.7695,9.7695,9.7695,9.7695,9.7695,9.7695,9.7695,9.7695,9.7695,9.7695,9.7695,9.7695,9.7695,9.7695,9.7695,9.7695,9.7695,9.7695,9.7695,9.7695,9.7695,9.7695,9.7695,9.7695,9.7695,9.7695,9.7695,9.7695,9.7695,9.7695,9.7695,9.7695,9.7695,9.7695,9.7695,9.7695,9.7695,9.789,9.8359,9.8398,9.875,9.9648,10.0117,10.0586,10.1015,10.1797,10.2304,10.2304,10.2304,10.25,10.289,10.289,10.289,10.289,10.3398,10.3789,10.4219,10.5501,10.6297,10.6693,10.759,10.802,10.802,10.802,10.802,10.802,10.802,10.802,10.802,10.802,10.802,10.802,9.5469,9.5508,9.5547,9.5742,9.5781,9.6015,9.6679,9.6797,9.6992,9.7617,9.7695,9.7695,9.7695,9.7695,9.7695,9.7695,9.7695,9.7695,9.7695,9.7695,9.7695,9.7695,9.7695,9.7695,9.7695,9.7695,9.7695,9.7695,9.7695,9.7695,9.7695,9.7695,9.7695,9.7695,9.7695,9.7695,9.7695,9.7695,9.7695,9.7695,9.7695,9.7695,9.7695,9.7695,9.7695,9.7695,9.7695,9.7695,9.7695,9.7695,9.7695,9.7695,9.7695,9.7695,9.7695,9.7695,9.7695,9.7695,9.7695,9.7695,9.7695,9.7695,9.7695,9.7695,9.7695,9.7695,9.7695,9.7695,9.7695,9.7695,9.7695,9.7695,9.7695,9.7695,9.7695,9.7695,9.7695,9.7695,9.7773,9.7969,9.8008,9.8359,9.9219,9.9297,9.9648,10.0508,10.1211,10.1719,10.1914,10.25,10.289,10.289,10.289,10.289,10.289,10.289,10.289,10.289,10.3789,10.4297,10.4609,10.6015,10.679,10.702,10.7708,10.802,10.802,10.802,10.802,10.802,10.802,10.802,10.802,10.802,10.802,10.802,9.625,9.6406,9.664,9.7383,9.7539,9.7539,9.7617,9.7617,9.7617,9.7695,9.7695,9.7695,9.7695,9.7695,9.7695,9.7695,9.7695,9.7695,9.7695,9.7695,9.7695,9.7695,9.7695,9.7695,9.7695,9.7695,9.7695,9.7695,9.7695,9.7695,9.7695,9.7695,9.7695,9.7695,9.7695,9.7695,9.7695,9.7695,9.7695,9.7695,9.7695,9.7695,9.7695,9.7695,9.7695,9.7695,9.7695,9.7695,9.7695,9.7695,9.7695,9.7695,9.7695,9.7695,9.7695,9.7695,9.7695,9.7695,9.7695,9.7695,9.7695,9.7695,9.7695,9.7695,9.7695,9.7695,9.7695,9.7695,9.7695,9.7695,9.7695,9.7695,9.7695,9.7695,9.7695,9.7695,9.7695,9.7695,9.8008,9.8828,9.8906,9.9258,10.0117,10.0195,10.0586,10.1406,10.1601,10.1992,10.2812,10.289,10.289,10.289,10.289,10.289,10.289,10.289,10.289,10.289,10.3789,10.4609,10.539,10.6289,10.7107,10.7909,10.7996,10.802,10.802,10.802,10.802,10.802,10.802,10.802,10.802,10.802,10.802,10.802,9.707,9.7187,9.7344,9.7656,9.7695,9.7695,9.7695,9.7695,9.7695,9.7695,9.7695,9.7695,9.7695,9.7695,9.7695,9.7695,9.7695,9.7695,9.7695,9.7695,9.7695,9.7695,9.7695,9.7695,9.7695,9.7695,9.7695,9.7695,9.7695,9.7695,9.7695,9.7695,9.7695,9.7695,9.7695,9.7695,9.7695,9.7695,9.7695,9.7695,9.7695,9.7695,9.7695,9.7695,9.7695,9.7695,9.7695,9.7695,9.7695,9.7695,9.7695,9.7695,9.7695,9.7695,9.7695,9.7695,9.7695,9.7695,9.7695,9.7695,9.7695,9.7695,9.7695,9.7695,9.7695,9.7695,9.7695,9.7695,9.7695,9.7695,9.7695,9.7695,9.7695,9.7695,9.8164,9.8515,9.8515,9.8984,9.9453,9.9765,9.9804,10.0117,10.1015,10.1094,10.1484,10.2304,10.2383,10.2617,10.289,10.289,10.289,10.289,10.289,10.289,10.289,10.289,10.3203,10.3711,10.4609,10.539,10.6289,10.7109,10.7695,10.8003,10.801,10.802,10.802,10.802,10.802,10.802,10.802,10.802,10.802,10.802,10.802,10.802,9.7446,9.7526,9.7602,9.7617,9.7656,9.7656,9.7695,9.7695,9.7695,9.7695,9.7695,9.7695,9.7695,9.7695,9.7695,9.7695,9.7695,9.7695,9.7695,9.7695,9.7695,9.7695,9.7695,9.7695,9.7695,9.7695,9.7695,9.7695,9.7695,9.7695,9.7695,9.7695,9.7695,9.7695,9.7695,9.7695,9.7695,9.7695,9.7695,9.7695,9.7695,9.7695,9.7695,9.7695,9.7695,9.7695,9.7695,9.7695,9.7695,9.7695,9.7695,9.7695,9.7695,9.7695,9.7695,9.7695,9.7695,9.7695,9.7695,9.7695,9.7695,9.7695,9.7695,9.7695,9.7695,9.7695,9.7695,9.7695,9.7695,9.7773,9.8047,9.8125,9.8203,9.8476,9.9023,9.9414,9.9414,9.9922,10.039,10.0703,10.0703,10.1094,10.1914,10.1992,10.2304,10.289,10.289,10.289,10.289,10.289,10.289,10.289,10.289,10.3008,10.3281,10.3281,10.3594,10.4219,10.5312,10.6211,10.6719,10.7617,10.8008,10.8007,10.7982,10.7989,10.802,10.802,10.802,10.802,10.802,10.802,10.802,10.802,10.802,10.802,9.7286,9.7299,9.7343,9.7496,9.75,9.7539,9.7695,9.7695,9.7695,9.7695,9.7695,9.7695,9.7695,9.7695,9.7695,9.7695,9.7695,9.7695,9.7695,9.7695,9.7695,9.7695,9.7695,9.7695,9.7695,9.7695,9.7695,9.7695,9.7695,9.7695,9.7695,9.7695,9.7695,9.7695,9.7695,9.7695,9.7695,9.7695,9.7695,9.7695,9.7695,9.7695,9.7695,9.7695,9.7695,9.7695,9.7695,9.7695,9.7695,9.7695,9.7695,9.7695,9.7695,9.7695,9.7695,9.7695,9.7695,9.7695,9.7695,9.7695,9.7695,9.7695,9.7695,9.7695,9.7695,9.7695,9.7695,9.7695,9.7734,9.7969,9.8867,9.9023,9.9297,10.0195,10.0312,10.0312,10.0312,10.0312,10.0586,10.1484,10.1601,10.1914,10.2812,10.289,10.289,10.289,10.289,10.289,10.289,10.289,10.289,10.289,10.289,10.3281,10.4219,10.4219,10.4219,10.4219,10.5898,10.6719,10.6719,10.7617,10.8008,10.8008,10.7998,10.8016,10.802,10.802,10.802,10.802,10.802,10.802,10.802,10.802,10.802,10.802,9.7092,9.7197,9.73,9.7359,9.7379,9.7394,9.7538,9.7578,9.7578,9.7695,9.7695,9.7695,9.7695,9.7695,9.7695,9.7695,9.7695,9.7695,9.7695,9.7695,9.7695,9.7695,9.7695,9.7695,9.7695,9.7695,9.7695,9.7695,9.7695,9.7695,9.7695,9.7695,9.7695,9.7695,9.7695,9.7695,9.7695,9.7695,9.7695,9.7695,9.7695,9.7695,9.7695,9.7695,9.7695,9.7695,9.7695,9.7695,9.7695,9.7695,9.7695,9.7695,9.7695,9.7695,9.7695,9.7695,9.7695,9.7695,9.7695,9.7695,9.7695,9.7695,9.7695,9.7695,9.7695,9.8164,9.8594,9.8594,9.9101,9.9609,9.9844,9.9922,10.0,10.0312,10.0781,10.1211,10.1211,10.1719,10.2187,10.25,10.25,10.2617,10.289,10.289,10.289,10.289,10.289,10.289,10.289,10.289,10.289,10.289,10.3515,10.3906,10.4219,10.4219,10.4804,10.6015,10.6484,10.6992,10.7617,10.789,10.8008,10.8008,10.8007,10.7991,10.802,10.802,10.802,10.802,10.802,10.802,10.802,10.802,10.802,10.802,9.6899,9.7015,9.7131,9.717,9.7198,9.7246,9.7409,9.7472,9.7539,9.7617,9.7656,9.7695,9.7695,9.7695,9.7695,9.7695,9.7695,9.7695,9.7695,9.7695,9.7695,9.7695,9.7695,9.7695,9.7695,9.7695,9.7695,9.7695,9.7695,9.7695,9.7695,9.7695,9.7695,9.7695,9.7695,9.7695,9.7695,9.7695,9.7695,9.7695,9.7695,9.7695,9.7695,9.7695,9.7695,9.7695,9.7695,9.7695,9.7695,9.7695,9.7695,9.7695,9.7695,9.7695,9.7695,9.7695,9.7929,9.8203,9.8203,9.8476,9.8711,9.8711,9.8476,9.8281,9.8633,9.914,9.9492,9.9492,9.9922,10.039,10.0781,10.0781,10.0898,10.1289,10.1797,10.2109,10.2109,10.2617,10.289,10.289,10.289,10.289,10.289,10.289,10.289,10.289,10.289,10.289,10.289,10.289,10.3086,10.3398,10.3906,10.4492,10.5195,10.5195,10.5703,10.6719,10.6992,10.75,10.8008,10.8008,10.8008,10.8008,10.8008,10.8003,10.7982,10.801,10.7996,10.802,10.802,10.802,10.802,10.802,10.802,10.802,9.6783,9.6783,9.6822,9.6938,9.6976,9.7054,9.7247,9.7394,9.7455,9.7498,9.7617,9.7695,9.7695,9.7695,9.7695,9.7695,9.7695,9.7695,9.7695,9.7695,9.7695,9.7695,9.7695,9.7695,9.7695,9.7695,9.7695,9.7695,9.7695,9.7695,9.7695,9.7695,9.7695,9.7695,9.7695,9.7695,9.7695,9.7695,9.7695,9.7695,9.7695,9.7695,9.7695,9.7695,9.7695,9.7695,9.7695,9.7695,9.7695,9.7695,9.7695,9.7695,9.7773,9.7812,9.7812,9.789,9.8476,9.9101,9.9101,9.9687,10.0312,10.039,9.9804,9.9414,10.0117,10.039,10.039,10.039,10.0508,10.0781,10.1601,10.1719,10.1992,10.2812,10.289,10.289,10.289,10.289,10.289,10.289,10.289,10.289,10.289,10.289,10.289,10.289,10.289,10.289,10.289,10.3008,10.3398,10.4219,10.4297,10.5195,10.6719,10.6797,10.6797,10.6797,10.7617,10.8008,10.8008,10.8008,10.8008,10.8008,10.8008,10.8008,10.8008,10.8001,10.7982,10.7989,10.7989,10.7981,10.802,10.802,10.802,10.802,9.6783,9.6783,9.6822,9.6822,9.6822,9.6899,9.7054,9.7083,9.7168,9.7331,9.7477,9.7539,9.7539,9.7656,9.7695,9.7695,9.7695,9.7695,9.7695,9.7695,9.7695,9.7695,9.7695,9.7695,9.7695,9.7695,9.7695,9.7695,9.7695,9.7695,9.7695,9.7695,9.7695,9.7695,9.7695,9.7695,9.7695,9.7695,9.7695,9.7695,9.7695,9.7695,9.7695,9.7695,9.7695,9.7695,9.7695,9.7695,9.7695,9.7695,9.7695,9.7812,9.8515,9.8711,9.8867,9.9531,9.9883,10.0,10.0,10.0195,10.0508,10.1094,10.1211,10.0898,10.039,10.0781,10.1289,10.1289,10.1914,10.2383,10.2617,10.2617,10.2695,10.289,10.289,10.289,10.289,10.289,10.289,10.289,10.289,10.289,10.289,10.289,10.289,10.289,10.289,10.289,10.289,10.3515,10.3984,10.4219,10.5508,10.6289,10.6719,10.7383,10.7695,10.7695,10.789,10.8008,10.8008,10.8008,10.8008,10.8008,10.8008,10.8008,10.8008,10.8007,10.8007,10.8003,10.7991,10.801,10.802,10.802,10.802,10.802,9.6783,9.6783,9.6783,9.6783,9.6783,9.6822,9.6899,9.6938,9.7053,9.7137,9.7377,9.7494,9.7499,9.7617,9.7695,9.7695,9.7695,9.7695,9.7695,9.7695,9.7695,9.7695,9.7695,9.7695,9.7695,9.7695,9.7695,9.7695,9.7695,9.7695,9.7695,9.7695,9.7695,9.7695,9.7695,9.7695,9.7695,9.7695,9.7695,9.7695,9.7695,9.7695,9.7695,9.7695,9.7695,9.7695,9.7695,9.7695,9.7773,9.8164,9.832,9.8476,9.9336,9.9609,9.9726,10.0195,10.0586,10.0898,10.0898,10.1211,10.1601,10.2109,10.2187,10.2109,10.1601,10.1914,10.2187,10.2187,10.2617,10.289,10.289,10.289,10.289,10.289,10.289,10.289,10.289,10.289,10.289,10.289,10.289,10.289,10.289,10.289,10.289,10.289,10.3281,10.3515,10.3515,10.4297,10.5,10.539,10.6211,10.6914,10.7304,10.7812,10.8008,10.8008,10.8008,10.8008,10.8008,10.8008,10.8008,10.8008,10.8008,10.8008,10.8008,10.8008,10.8008,10.8008,10.8005,10.7991,10.801,10.801,10.7996,10.802,9.6783,9.6783,9.6783,9.6783,9.6783,9.6783,9.6783,9.6899,9.6976,9.6976,9.7209,9.7409,9.7394,9.753,9.7652,9.7656,9.7656,9.7695,9.7695,9.7695,9.7695,9.7695,9.7695,9.7695,9.7695,9.7695,9.7695,9.7695,9.7695,9.7695,9.7695,9.7695,9.7695,9.7695,9.7695,9.7695,9.7695,9.7695,9.7695,9.7695,9.7695,9.7695,9.7695,9.7695,9.7695,9.7734,9.7851,9.8008,9.8242,9.8984,9.9219,9.9375,10.0195,10.0508,10.0586,10.0703,10.1289,10.1797,10.1797,10.2304,10.289,10.289,10.289,10.289,10.289,10.289,10.289,10.289,10.289,10.289,10.289,10.289,10.289,10.289,10.289,10.289,10.289,10.289,10.289,10.289,10.289,10.289,10.289,10.289,10.3008,10.3086,10.3789,10.4297,10.4414,10.5195,10.6015,10.6719,10.6797,10.7304,10.8008,10.8008,10.8008,10.8008,10.8008,10.8008,10.8008,10.8008,10.8008,10.8008,10.8008,10.8008,10.8008,10.8008,10.8008,10.8008,10.8008,10.8005,10.7995,10.7995,10.8016,10.802,9.6783,9.6783,9.6783,9.6783,9.6783,9.6783,9.6783,9.6822,9.6822,9.6822,9.6976,9.7057,9.7069,9.7238,9.7407,9.7538,9.7539,9.7578,9.7695,9.7695,9.7695,9.7695,9.7695,9.7695,9.7695,9.7695,9.7695,9.7695,9.7695,9.7695,9.7695,9.7695,9.7695,9.7695,9.7695,9.7695,9.7695,9.7695,9.7695,9.7695,9.7695,9.7695,9.7695,9.7695,9.7695,9.7812,9.8554,9.9297,9.9961,10.0117,10.0117,10.0312,10.1094,10.1406,10.1601,10.2304,10.2617,10.2695,10.2695,10.2812,10.289,10.289,10.289,10.289,10.289,10.289,10.289,10.289,10.289,10.289,10.289,10.289,10.289,10.289,10.289,10.289,10.289,10.289,10.289,10.289,10.289,10.289,10.289,10.289,10.3203,10.3984,10.4101,10.4492,10.5312,10.6093,10.6601,10.6719,10.7383,10.789,10.8008,10.8008,10.8008,10.8008,10.8008,10.8008,10.8008,10.8008,10.8008,10.8008,10.8008,10.8008,10.8008,10.8008,10.8008,10.8008,10.8008,10.8008,10.8007,10.8007,10.7995,10.802,9.6783,9.6783,9.6783,9.6783,9.6783,9.6783,9.6783,9.6783,9.6783,9.6783,9.6899,9.7025,9.6993,9.7184,9.732,9.7377,9.7394,9.7425,9.7464,9.7567,9.7578,9.7578,9.7656,9.7695,9.7695,9.7695,9.7695,9.7695,9.7695,9.7695,9.7695,9.7695,9.7695,9.7695,9.7695,9.7695,9.7695,9.7695,9.7695,9.7695,9.7695,9.7695,9.7734,9.8242,9.8437,9.8554,9.9414,9.9961,10.039,10.0898,10.1015,10.1211,10.2109,10.2304,10.2383,10.2812,10.289,10.289,10.289,10.289,10.289,10.289,10.289,10.289,10.289,10.289,10.289,10.289,10.289,10.289,10.289,10.289,10.289,10.289,10.289,10.289,10.289,10.289,10.289,10.289,10.289,10.289,10.289,10.3281,10.3789,10.4219,10.5117,10.5781,10.6093,10.6992,10.7383,10.7383,10.7812,10.8008,10.8008,10.8008,10.8008,10.8008,10.8008,10.8008,10.8008,10.8008,10.8008,10.8008,10.8008,10.8008,10.8008,10.8008,10.8008,10.8008,10.8008,10.8008,10.8008,10.8008,10.8005,10.7991]},{"header":{"parameterUnit":"m.s-1","parameterCategory":1,"la1":30.6,"la2":28.766,"lo1":-90.7593,"lo2":-88.6598,"dx":0.0162,"dy":0.0183,"nx":116,"ny":114,"refTime":"2023-02-12T06:00:00:Z","depth":0,"parameterNumber":3,"parameterNumberName":"V-component_of_WINDS"},"data":[0.0,0.0,0.0,0.0,0.0,0.0,0.0,0.0,0.0,0.0,0.0,0.0,0.0,0.0,0.0,0.0,0.0,0.0,0.0,0.0,0.0,0.0,0.0,0.0,0.0,0.0,0.0,0.0,0.0,0.0,0.0,0.0,0.0,0.0,0.0,0.0,0.0,0.0,0.0,0.0,0.0,0.0,0.0,0.0,0.0,0.0,0.0,0.0,0.0,0.0,0.0,0.0,0.0,0.0,0.0,0.0,0.0,0.0,0.0,0.0,0.0,0.0,0.0,0.0,0.0,0.0,0.0,0.0,0.0,0.0,0.0,0.0,0.0,0.0,0.0,0.0,0.0,0.0,0.0,0.0,0.0,0.0,0.0,0.0,0.0,0.0,0.0,0.0,0.0,0.0,0.0,0.0,0.0,0.0,0.0,0.0,0.0,0.0,0.0,0.0,0.0,0.0,0.0,0.0,0.0,0.0,0.0,0.0,0.0,0.0,0.0,0.0,0.0,0.0,0.0,0.0,0.0,0.0,0.0,0.0,0.0,0.0,0.0,0.0,0.0,0.0,0.0,0.0,0.0,0.0,0.0,0.0,0.0,0.0,0.0,0.0,0.0,0.0,0.0,0.0,0.0,0.0,0.0,0.0,0.0,0.0,0.0,0.0,0.0,0.0,0.0,0.0,0.0,0.0,0.0,0.0,0.0,0.0,0.0,0.0,0.0,0.0,0.0,0.0,0.0,0.0,0.0,0.0,0.0,0.0,0.0,0.0,0.0,0.0,0.0,0.0,0.0,0.0,0.0,0.0,0.0,0.0,0.0,0.0,0.0,0.0,0.0,0.0,0.0,0.0,0.0,0.0,0.0,0.0,0.0,0.0,0.0,0.0,0.0,0.0,0.0,0.0,0.0,0.0,0.0,0.0,0.0,0.0,0.0,0.0,0.0,0.0,0.0,0.0,0.0,0.0,0.0,0.0,0.0,0.0,0.0,0.0,0.0,0.0,0.0,0.0,0.0,0.0,0.0,0.0,0.0,0.0,0.0,0.0,0.0,0.0,0.0,0.0,0.0,0.0,0.0,0.0,0.0,0.0,0.0,0.0,0.0,0.0,0.0,0.0,0.0,0.0,0.0,0.0,0.0,0.0,0.0,0.0,0.0,0.0,0.0,0.0,0.0,0.0,0.0,0.0,0.0,0.0,0.0,0.0,0.0,0.0,0.0,0.0,0.0,0.0,0.0,0.0,0.0,0.0,0.0,0.0,0.0,0.0,0.0,0.0,0.0,0.0,0.0,0.0,0.0,0.0,0.0,0.0,0.0,0.0,0.0,0.0,0.0,0.0,0.0,0.0,0.0,0.0,0.0,0.0,0.0,0.0,0.0,0.0,0.0,0.0,0.0,0.0,0.0,0.0,0.0,0.0,0.0,0.0,0.0,0.0,0.0,0.0,0.0,0.0,0.0,0.0,0.0,0.0,0.0,0.0,0.0,0.0,0.0,0.0,0.0,0.0,0.0,0.0,0.0,0.0,0.0,0.0,0.0,0.0,0.0,0.0,0.0,0.0,0.0,0.0,0.0,0.0,0.0,0.0,0.0,0.0,0.0,0.0,0.0,0.0,0.0,0.0,0.0,0.0,0.0,0.0,0.0,0.0,0.0,0.0,0.0,0.0,0.0,0.0,0.0,0.0,0.0,0.0,0.0,0.0,0.0,0.0,0.0,0.0,0.0,0.0,0.0,0.0,0.0,0.0,0.0,0.0,0.0,0.0,0.0,0.0,0.0,0.0,0.0,0.0,0.0,0.0,0.0,0.0,0.0,0.0,0.0,0.0,0.0,0.0,0.0,0.0,0.0,0.0,0.0,0.0,0.0,0.0,0.0,0.0,0.0,0.0,0.0,0.0,0.0,0.0,0.0,0.0,0.0,0.0,0.0,0.0,0.0,0.0,0.0,0.0,0.0,0.0,0.0,0.0,0.0,0.0,0.0,0.0,0.0,0.0,0.0,0.0,0.0,0.0,0.0,0.0,0.0,0.0,0.0,0.0,0.0,0.0,0.0,0.0,0.0,0.0,0.0,0.0,0.0,0.0,0.0,0.0,0.0,0.0,0.0,0.0,0.0,0.0,0.0,0.0,0.0,0.0,0.0,0.0,0.0,0.0,0.0,0.0,0.0,0.0,0.0,0.0,0.0,0.0,0.0,0.0,0.0,0.0,0.0,0.0,0.0,0.0,0.0,0.0,0.0,0.0,0.0,0.0,0.0,0.0,0.0,0.0,0.0,0.0,0.0,0.0,0.0,0.0,0.0,0.0,0.0,0.0,0.0,0.0,0.0,0.0,0.0,0.0,0.0,0.0,0.0,0.0,0.0,0.0,0.0,0.0,0.0,0.0,0.0,0.0,0.0,0.0,0.0,0.0,0.0,0.0,0.0,0.0,0.0,0.0,0.0,0.0,0.0,0.0,0.0,0.0,0.0,0.0,0.0,0.0,0.0,0.0,0.0,0.0,0.0,0.0,0.0,0.0,0.0,0.0,0.0,0.0,0.0,0.0,0.0,0.0,0.0,0.0,0.0,0.0,0.0,0.0,0.0,0.0,0.0,0.0,0.0,0.0,0.0,0.0,0.0,0.0,0.0,0.0,0.0,0.0,0.0,0.0,0.0,0.0,0.0,0.0,0.0,0.0,0.0,0.0,0.0,0.0,0.0,0.0,0.0,0.0,0.0,0.0,0.0,0.0,0.0,0.0,0.0,0.0,0.0,0.0,0.0,0.0,0.0,0.0,0.0,0.0,0.0,0.0,0.0,0.0,0.0,0.0,0.0,0.0,0.0,0.0,0.0,0.0,0.0,0.0,0.0,0.0,0.0,0.0,0.0,0.0,0.0,0.0,0.0,0.0,0.0,0.0,0.0,0.0,0.0,0.0,0.0,0.0,0.0,0.0,0.0,0.0,0.0,0.0,0.0,0.0,0.0,0.0,0.0,0.0,0.0,0.0,0.0,0.0,0.0,0.0,0.0,0.0,0.0,0.0,0.0,0.0,0.0,0.0,0.0,0.0,0.0,0.0,0.0,0.0,0.0,0.0,0.0,0.0,0.0,0.0,0.0,0.0,0.0,0.0,0.0,0.0,0.0,0.0,0.0,0.0,0.0,0.0,0.0,0.0,0.0,0.0,0.0,0.0,0.0,0.0,0.0,0.0,0.0,0.0,0.0,0.0,0.0,0.0,0.0,0.0,0.0,0.0,0.0,0.0,0.0,0.0,0.0,0.0,0.0,0.0,0.0,0.0,0.0,0.0,0.0,0.0,0.0,0.0,0.0,0.0,0.0,0.0,0.0,0.0,0.0,0.0,0.0,0.0,0.0,0.0,0.0,0.0,0.0,0.0,0.0,0.0,0.0,0.0,0.0,0.0,0.0,0.0,0.0,0.0,0.0,0.0,0.0,0.0,0.0,0.0,0.0,0.0,0.0,0.0,0.0,0.0,0.0,0.0,0.0,0.0,0.0,0.0,0.0,0.0,0.0,0.0,0.0,0.0,0.0,0.0,0.0,0.0,0.0,0.0,0.0,0.0,0.0,0.0,0.0,0.0,0.0,0.0,0.0,0.0,0.0,0.0,0.0,0.0,0.0,0.0,0.0,0.0,0.0,0.0,0.0,0.0,0.0,0.0,0.0,0.0,0.0,0.0,0.0,0.0,0.0,0.0,0.0,0.0,0.0,0.0,0.0,0.0,0.0,0.0,0.0,0.0,0.0,0.0,0.0,0.0,0.0,0.0,0.0,0.0,0.0,0.0,0.0,0.0,0.0,0.0,0.0,0.0,0.0,0.0,0.0,0.0,0.0,0.0,0.0,0.0,0.0,0.0,0.0,0.0,0.0,0.0,0.0,0.0,0.0,0.0,0.0,0.0,0.0,0.0,0.0,0.0,0.0,0.0,0.0,0.0,0.0,0.0,0.0,0.0,0.0,0.0,0.0,0.0,0.0,0.0,0.0,0.0,0.0,0.0,0.0,0.0,0.0,0.0,0.0,0.0,0.0,0.0,0.0,0.0,0.0,0.0,0.0,0.0,0.0,0.0,0.0,0.0,0.0,0.0,0.0,0.0,0.0,0.0,0.0,0.0,0.0,0.0,0.0,0.0,0.0,0.0,0.0,0.0,0.0,0.0,0.0,0.0,0.0,0.0,0.0,0.0,0.0,0.0,0.0,0.0,0.0,0.0,0.0,0.0,0.0,0.0,0.0,0.0,0.0,0.0,0.0,0.0,0.0,0.0,0.0,0.0,0.0,0.0,0.0,0.0,0.0,0.0,0.0,0.0,0.0,0.0,0.0,0.0,0.0,0.0,0.0,0.0,0.0,0.0,0.0,0.0,0.0,0.0,0.0,0.0,0.0,0.0,0.0,0.0,0.0,0.0,0.0,0.0,0.0,0.0,0.0,0.0,0.0,0.0,0.0,0.0,0.0,0.0,0.0,0.0,0.0,0.0,0.0,0.0,0.0,0.0,0.0,0.0,0.0,0.0,0.0,0.0,0.0,0.0,0.0,0.0,0.0,0.0,0.0,0.0,0.0,0.0,0.0,0.0,0.0,0.0,0.0,0.0,0.0,0.0,0.0,0.0,0.0,0.0,0.0,0.0,0.0,0.0,0.0,0.0,0.0,0.0,0.0,0.0,0.0,0.0,0.0,0.0,0.0,0.0,0.0,0.0,0.0,0.0,0.0,0.0,0.0,0.0,0.0,0.0,0.0,0.0,0.0,0.0,0.0,0.0,0.0,0.0,0.0,0.0,0.0,0.0,0.0,0.0,0.0,0.0,0.0,0.0,0.0,0.0,0.0,0.0,0.0,0.0,0.0,0.0,0.0,0.0,0.0,0.0,0.0,0.0,0.0,0.0,0.0,0.0,0.0,0.0,0.0,0.0,0.0,0.0,0.0,0.0,0.0,0.0,0.0,0.0,0.0,0.0,0.0,0.0,0.0,0.0,0.0,0.0,0.0,0.0,0.0,0.0,0.0,0.0,0.0,0.0,0.0,0.0,0.0,0.0,0.0,0.0,0.0,0.0,0.0,0.0,0.0,0.0,0.0,0.0,0.0,0.0,0.0,0.0,0.0,0.0,0.0,0.0,0.0,0.0,0.0,0.0,0.0,0.0,0.0,0.0,0.0,0.0,0.0,0.0,0.0,0.0,0.0,0.0,0.0,0.0,0.0,0.0,0.0,0.0,0.0,0.0,0.0,0.0,0.0,0.0,0.0,0.0,0.0,0.0,0.0,0.0,0.0,0.0,0.0,0.0,0.0,0.0,0.0,0.0,0.0,0.0,0.0,0.0,0.0,0.0,0.0,0.0,0.0,0.0,0.0,0.0,0.0,0.0,0.0,0.0,0.0,0.0,0.0,0.0,0.0,0.0,0.0,0.0,0.0,0.0,0.0,0.0,0.0,0.0,0.0,0.0,0.0,0.0,0.0,0.0,0.0,0.0,0.0,0.0,0.0,0.0,0.0,0.0,0.0,0.0,0.0,0.0,0.0,0.0,0.0,0.0,0.0,0.0,0.0,0.0,0.0,0.0,0.0,0.0,0.0,0.0,0.0,0.0,0.0,0.0,0.0,0.0,0.0,0.0,0.0,0.0,0.0,0.0,0.0,0.0,0.0,0.0,0.0,0.0,0.0,0.0,0.0,0.0,0.0,0.0,0.0,0.0,0.0,0.0,0.0,0.0,0.0,0.0,0.0,0.0,0.0,0.0,0.0,0.0,0.0,0.0,0.0,0.0,0.0,0.0,0.0,0.0,0.0,0.0,0.0,0.0,0.0,0.0,0.0,0.0,0.0,0.0,0.0,0.0,0.0,0.0,0.0,0.0,0.0,0.0,0.0,0.0,0.0,0.0,0.0,0.0,0.0,0.0,0.0,0.0,0.0,0.0,0.0,0.0,0.0,0.0,0.0,0.0,0.0,0.0,0.0,0.0,0.0,0.0,0.0,0.0,0.0,0.0,0.0,0.0,0.0,0.0,0.0,0.0,0.0,0.0,0.0,0.0,0.0,0.0,0.0,0.0,0.0,0.0,0.0,0.0,0.0,0.0,0.0,0.0,0.0,0.0,0.0,0.0,0.0,0.0,0.0,0.0,0.0,0.0,-1.2984,0.0,0.0,0.0,0.0,0.0,0.0,0.0,0.0,0.0,0.0,0.0,0.0,0.0,0.0,0.0,0.0,0.0,0.0,0.0,0.0,0.0,0.0,0.0,0.0,0.0,0.0,0.0,0.0,0.0,0.0,0.0,0.0,0.0,0.0,0.0,0.0,0.0,0.0,0.0,0.0,0.0,0.0,0.0,0.0,0.0,0.0,0.0,0.0,0.0,0.0,0.0,0.0,0.0,0.0,0.0,0.0,0.0,0.0,0.0,0.0,0.0,0.0,0.0,0.0,0.0,0.0,0.0,0.0,0.0,0.0,0.0,0.0,0.0,0.0,0.0,0.0,0.0,0.0,0.0,0.0,0.0,0.0,0.0,0.0,0.0,0.0,0.0,0.0,0.0,0.0,0.0,0.0,0.0,0.0,0.0,0.0,0.0,0.0,0.0,0.0,0.0,0.0,0.0,0.0,0.0,0.0,0.0,0.0,0.0,0.0,0.0,0.0,0.0,0.0,0.0,0.0,-1.2876,0.0,0.0,0.0,0.0,0.0,0.0,0.0,0.0,0.0,0.0,0.0,0.0,0.0,0.0,0.0,0.0,0.0,0.0,0.0,0.0,0.0,0.0,0.0,0.0,0.0,0.0,0.0,0.0,0.0,0.0,0.0,0.0,0.0,0.0,0.0,0.0,0.0,0.0,0.0,0.0,0.0,0.0,0.0,0.0,0.0,0.0,0.0,0.0,0.0,0.0,0.0,0.0,0.0,0.0,0.0,0.0,0.0,0.0,0.0,0.0,0.0,0.0,0.0,0.0,0.0,0.0,0.0,0.0,0.0,0.0,0.0,0.0,0.0,0.0,0.0,0.0,0.0,0.0,0.0,0.0,0.0,0.0,0.0,0.0,0.0,0.0,0.0,0.0,0.0,0.0,0.0,0.0,0.0,0.0,0.0,0.0,0.0,0.0,0.0,0.0,0.0,0.0,0.0,0.0,0.0,0.0,0.0,0.0,-1.2996,-1.301,-1.3037,-1.3037,-1.3037,-1.3037,-1.3037,-1.3164,-1.3429,-1.3429,0.0,0.0,0.0,0.0,0.0,0.0,0.0,0.0,0.0,0.0,0.0,0.0,0.0,0.0,0.0,0.0,0.0,0.0,0.0,0.0,0.0,0.0,0.0,0.0,0.0,0.0,0.0,0.0,0.0,0.0,0.0,0.0,0.0,0.0,0.0,0.0,0.0,0.0,0.0,0.0,0.0,0.0,0.0,0.0,0.0,0.0,0.0,0.0,0.0,0.0,0.0,0.0,0.0,0.0,0.0,0.0,0.0,0.0,0.0,0.0,0.0,0.0,0.0,0.0,0.0,0.0,0.0,0.0,0.0,0.0,0.0,0.0,0.0,0.0,0.0,0.0,0.0,0.0,0.0,0.0,0.0,0.0,0.0,0.0,0.0,0.0,-1.323,-1.3103,0.0,0.0,0.0,0.0,0.0,0.0,0.0,0.0,0.0,0.0,0.0,0.0,0.0,-1.2929,-1.2929,-1.2949,-1.3024,-1.3146,-1.3146,-1.3214,-1.3342,-1.3342,-1.3342,-1.3342,-1.3342,0.0,-1.3116,-1.3116,0.0,0.0,0.0,0.0,0.0,0.0,0.0,0.0,0.0,0.0,0.0,0.0,0.0,0.0,0.0,0.0,0.0,0.0,0.0,0.0,0.0,0.0,0.0,0.0,0.0,0.0,0.0,0.0,0.0,0.0,0.0,0.0,0.0,0.0,0.0,0.0,0.0,0.0,0.0,0.0,0.0,0.0,0.0,0.0,0.0,0.0,0.0,0.0,0.0,0.0,0.0,0.0,0.0,0.0,0.0,0.0,0.0,0.0,0.0,0.0,0.0,0.0,0.0,0.0,0.0,0.0,0.0,0.0,0.0,0.0,0.0,0.0,0.0,0.0,0.0,0.0,0.0,0.0,0.0,0.0,0.0,0.0,0.0,0.0,0.0,-1.2962,-1.2871,-1.2747,-1.2835,-1.267,0.0,0.0,0.0,0.0,0.0,0.0,0.0,0.0,0.0,-1.3078,-1.3078,-1.3119,-1.3207,-1.3207,-1.3241,-1.3302,-1.3302,-1.3336,-1.3403,-1.3403,-1.3403,-1.3403,-1.3403,-1.3329,-1.3207,-1.3207,-1.337,-1.3704,0.0,0.0,0.0,0.0,-1.386,-1.3867,0.0,0.0,0.0,0.0,0.0,0.0,0.0,0.0,0.0,0.0,0.0,0.0,0.0,0.0,0.0,-1.1619,0.0,0.0,0.0,0.0,0.0,0.0,0.0,0.0,0.0,0.0,0.0,0.0,0.0,0.0,0.0,0.0,0.0,0.0,0.0,0.0,0.0,0.0,0.0,0.0,0.0,0.0,0.0,0.0,0.0,0.0,0.0,0.0,0.0,0.0,0.0,0.0,0.0,0.0,0.0,0.0,0.0,0.0,0.0,0.0,0.0,0.0,0.0,0.0,0.0,0.0,0.0,0.0,0.0,0.0,0.0,0.0,0.0,0.0,0.0,0.0,0.0,-1.2821,-1.2574,-1.2528,-1.2769,-1.2762,0.0,0.0,0.0,0.0,0.0,0.0,-1.3017,-1.3017,-1.3078,-1.3227,-1.3227,-1.3288,-1.3397,-1.3403,-1.3403,-1.3403,-1.3403,-1.3403,-1.3403,-1.3403,-1.3403,-1.3403,-1.3403,-1.3403,-1.3403,-1.3403,-1.3569,-1.3901,-1.3901,-1.4059,-1.439,-1.4066,-1.3901,-1.3901,0.0,0.0,0.0,0.0,0.0,0.0,0.0,0.0,0.0,0.0,0.0,0.0,0.0,0.0,-1.1619,-1.1619,-1.1619,-1.1619,0.0,0.0,0.0,0.0,0.0,0.0,0.0,0.0,0.0,0.0,0.0,0.0,0.0,0.0,0.0,0.0,0.0,0.0,0.0,0.0,0.0,0.0,0.0,0.0,0.0,0.0,0.0,0.0,0.0,0.0,0.0,0.0,0.0,0.0,0.0,0.0,0.0,0.0,0.0,0.0,0.0,0.0,0.0,0.0,0.0,0.0,0.0,0.0,0.0,0.0,0.0,0.0,0.0,0.0,0.0,0.0,0.0,0.0,0.0,0.0,0.0,-1.2698,-1.2712,0.0,0.0,0.0,0.0,-1.2949,-1.2956,-1.3017,-1.3152,-1.3159,-1.3234,-1.3383,-1.339,-1.3397,-1.3403,-1.3403,-1.3403,-1.3403,-1.3403,-1.3403,-1.3403,-1.3403,-1.3403,-1.3403,-1.3403,-1.3403,-1.3403,-1.3403,-1.3403,-1.3403,-1.3403,-1.3403,-1.3403,-1.3403,-1.3403,-1.3403,0.0,0.0,0.0,0.0,0.0,0.0,0.0,0.0,0.0,0.0,0.0,0.0,0.0,-1.1619,-1.1619,-1.1619,-1.1619,-1.1619,-1.1619,0.0,0.0,0.0,0.0,0.0,0.0,0.0,0.0,0.0,0.0,0.0,0.0,0.0,0.0,0.0,0.0,0.0,0.0,0.0,0.0,0.0,0.0,0.0,0.0,0.0,0.0,0.0,0.0,0.0,0.0,0.0,0.0,0.0,0.0,0.0,0.0,0.0,0.0,0.0,0.0,0.0,0.0,0.0,0.0,0.0,0.0,0.0,0.0,0.0,0.0,0.0,0.0,0.0,0.0,0.0,0.0,0.0,0.0,0.0,0.0,-1.2861,-1.2881,0.0,-1.2956,-1.3044,-1.3098,-1.3098,-1.3186,-1.3268,-1.3315,-1.3322,-1.3342,-1.3397,-1.3403,-1.3403,-1.3403,-1.3403,-1.3403,-1.3403,-1.3403,-1.3403,-1.3403,-1.3403,-1.3403,-1.3403,-1.3403,-1.3403,-1.3403,-1.3403,-1.3403,-1.3403,-1.3403,-1.3403,-1.3403,-1.3403,-1.3403,-1.3403,0.0,0.0,0.0,0.0,0.0,0.0,0.0,0.0,0.0,0.0,0.0,-1.1619,-1.1619,-1.1619,-1.1619,-1.1619,-1.1619,-1.1619,-1.1619,0.0,0.0,0.0,0.0,0.0,0.0,0.0,0.0,0.0,0.0,0.0,0.0,0.0,0.0,0.0,0.0,0.0,0.0,0.0,0.0,0.0,0.0,0.0,-1.2352,0.0,0.0,0.0,0.0,0.0,0.0,0.0,0.0,0.0,0.0,0.0,0.0,0.0,0.0,0.0,0.0,0.0,0.0,0.0,0.0,0.0,0.0,0.0,0.0,0.0,0.0,0.0,0.0,0.0,0.0,0.0,0.0,0.0,0.0,0.0,-1.2861,-1.3017,-1.303,-1.3051,-1.3105,-1.3193,-1.3247,-1.3247,-1.3342,-1.3403,-1.3403,-1.3403,-1.3403,-1.3403,-1.3403,-1.3403,-1.3403,-1.3403,-1.3403,-1.3403,-1.3403,-1.3403,-1.3403,-1.3403,-1.3403,-1.3403,-1.3403,-1.3403,-1.3403,-1.3403,-1.3403,-1.3403,-1.3403,-1.3403,-1.3403,-1.3403,-1.3403,-1.3403,0.0,0.0,0.0,0.0,0.0,0.0,0.0,0.0,0.0,0.0,-1.1619,-1.1619,-1.1619,-1.1619,-1.1619,-1.1619,-1.1619,-1.1619,-1.1619,-1.1619,0.0,0.0,0.0,0.0,0.0,0.0,0.0,0.0,0.0,0.0,0.0,0.0,0.0,0.0,0.0,0.0,0.0,0.0,0.0,0.0,0.0,0.0,-1.2501,0.0,0.0,0.0,0.0,0.0,0.0,0.0,0.0,0.0,0.0,0.0,0.0,0.0,0.0,0.0,0.0,0.0,0.0,0.0,0.0,0.0,0.0,0.0,0.0,0.0,0.0,0.0,0.0,0.0,0.0,0.0,0.0,0.0,-1.3589,-1.3283,-1.3024,-1.3159,-1.318,-1.3241,-1.339,-1.3403,-1.3403,-1.3403,-1.3403,-1.3403,-1.3403,-1.3403,-1.3403,-1.3403,-1.3403,-1.3403,-1.3403,-1.3403,-1.3403,-1.3403,-1.3403,-1.3403,-1.3403,-1.3403,-1.3403,-1.3403,-1.3403,-1.341,-1.341,-1.341,-1.3417,-1.341,-1.3403,-1.3403,-1.3403,-1.3403,-1.3403,-1.3403,0.0,0.0,0.0,0.0,0.0,0.0,0.0,0.0,0.0,0.0,-1.1619,-1.1619,-1.1619,-1.1619,-1.1619,-1.1619,-1.1619,-1.1619,-1.1619,0.0,0.0,0.0,0.0,0.0,0.0,0.0,0.0,0.0,0.0,0.0,0.0,0.0,0.0,0.0,0.0,0.0,0.0,0.0,0.0,0.0,0.0,0.0,-1.2501,0.0,0.0,0.0,0.0,0.0,0.0,0.0,0.0,0.0,0.0,0.0,0.0,0.0,0.0,0.0,0.0,0.0,0.0,0.0,0.0,0.0,0.0,0.0,0.0,0.0,0.0,0.0,0.0,0.0,0.0,0.0,0.0,-1.3274,-1.3274,-1.3274,-1.3173,-1.3322,-1.3336,-1.3356,-1.3397,-1.3403,-1.3403,-1.3403,-1.3403,-1.3403,-1.3403,-1.3403,-1.3403,-1.3403,-1.3403,-1.3403,-1.3403,-1.3403,-1.3403,-1.3403,-1.3403,-1.3403,-1.3403,-1.3403,-1.3403,-1.341,-1.3519,-1.3566,-1.3573,-1.3675,-1.3722,-1.3695,-1.3485,-1.3403,-1.3403,-1.3403,-1.3403,-1.3403,0.0,0.0,0.0,0.0,0.0,0.0,0.0,0.0,0.0,0.0,-1.1619,-1.1619,-1.1619,-1.1619,-1.1619,-1.1619,-1.1619,-1.1619,-1.1619,0.0,0.0,0.0,0.0,0.0,0.0,0.0,0.0,0.0,0.0,0.0,0.0,0.0,0.0,0.0,0.0,0.0,0.0,0.0,0.0,0.0,0.0,0.0,-1.2501,-1.2501,-1.2501,-1.2501,-1.2501,-1.2501,-1.2501,-1.2501,0.0,0.0,0.0,0.0,0.0,0.0,0.0,0.0,0.0,0.0,0.0,0.0,0.0,0.0,0.0,0.0,0.0,0.0,0.0,0.0,0.0,0.0,0.0,0.0,-1.3432,-1.3268,-1.3268,-1.3268,-1.3302,-1.339,-1.3403,-1.3403,-1.3403,-1.3403,-1.3403,-1.3403,-1.3403,-1.3403,-1.3403,-1.3403,-1.3403,-1.3403,-1.3403,-1.3403,-1.3403,-1.3403,-1.3431,-1.3498,-1.3498,-1.3526,-1.3587,-1.3587,-1.3587,-1.3593,-1.3682,-1.3715,-1.3722,-1.3804,-1.3838,-1.3824,0.0,0.0,0.0,0.0,-1.3587,-1.3587,0.0,0.0,0.0,0.0,0.0,0.0,0.0,0.0,0.0,0.0,0.0,-1.1619,-1.1619,-1.1619,-1.1619,-1.1619,-1.1619,-1.1626,0.0,0.0,0.0,-1.2081,-1.2216,-1.2359,-1.2501,-1.2501,-1.2501,-1.2501,-1.2501,-1.2501,-1.2501,0.0,0.0,0.0,0.0,0.0,0.0,0.0,0.0,0.0,0.0,0.0,-1.2501,-1.2501,-1.2501,-1.2501,-1.2501,-1.2501,-1.2508,-1.2522,0.0,0.0,0.0,0.0,0.0,0.0,0.0,0.0,0.0,0.0,0.0,0.0,0.0,0.0,0.0,0.0,0.0,0.0,0.0,0.0,0.0,0.0,0.0,0.0,-1.3735,-1.3403,-1.3403,-1.3403,-1.3403,-1.3403,-1.3403,-1.3403,-1.3403,-1.3403,-1.3403,-1.3403,-1.3403,-1.3403,-1.3403,0.0,0.0,0.0,0.0,-1.3424,-1.3424,-1.3444,-1.3519,-1.3654,-1.3654,-1.3715,-1.3838,-1.3838,-1.3838,-1.3844,-1.3858,-1.3865,-1.3865,-1.3885,-1.3892,-1.3885,-1.3851,-1.3838,-1.3838,-1.3838,-1.3838,-1.3838,0.0,0.0,0.0,0.0,0.0,0.0,0.0,0.0,0.0,-1.1619,-1.1619,-1.1619,-1.1619,-1.1619,-1.1619,-1.1619,-1.1619,-1.1667,0.0,0.0,-1.1952,-1.2237,-1.2277,-1.2359,-1.2501,-1.2501,-1.2501,-1.2501,-1.2501,-1.2501,-1.2501,-1.2501,-1.2501,-1.2501,-1.2501,-1.2501,-1.2501,-1.2501,-1.2501,-1.2501,-1.2501,-1.2501,-1.2501,-1.2501,-1.2501,-1.2501,-1.2501,-1.2501,-1.2522,-1.2644,-1.2684,-1.2705,-1.2834,0.0,0.0,0.0,0.0,0.0,0.0,0.0,0.0,0.0,0.0,0.0,0.0,0.0,0.0,0.0,0.0,0.0,0.0,0.0,0.0,-1.3562,-1.3403,-1.3403,-1.3403,-1.3403,-1.3403,-1.3403,-1.3403,-1.3403,-1.3403,-1.3403,-1.3403,-1.3403,-1.3403,-1.3403,-1.3403,-1.3403,-1.3403,-1.3403,-1.3519,-1.3587,-1.3587,-1.3695,-1.377,-1.3797,-1.3797,0.0,-1.3838,-1.3838,-1.3838,-1.3844,-1.3973,-1.4027,-1.4034,-1.4163,-1.4211,-1.419,-1.3939,-1.3838,-1.3838,-1.3838,-1.3838,-1.3838,0.0,0.0,0.0,0.0,0.0,0.0,0.0,0.0,0.0,0.0,-1.1619,-1.1619,-1.1619,-1.1619,-1.1619,-1.1619,-1.1619,0.0,0.0,-1.1904,-1.2047,-1.2277,-1.2359,-1.2427,-1.2501,-1.2501,-1.2501,-1.2501,-1.2501,-1.2501,-1.2501,-1.2501,-1.2501,-1.2501,-1.2501,-1.2501,-1.2508,-1.2583,-1.2617,-1.2623,-1.2698,-1.2732,-1.2725,-1.2644,-1.2664,-1.2732,-1.2732,-1.2732,-1.2745,-1.282,-1.2847,-1.2861,-1.2935,-1.2963,-1.3123,0.0,0.0,0.0,0.0,0.0,0.0,0.0,0.0,0.0,0.0,0.0,0.0,0.0,0.0,-1.4225,0.0,0.0,-1.3735,-1.3403,-1.3403,-1.3403,-1.3403,-1.3403,-1.3403,-1.3403,-1.3403,-1.3403,-1.3403,-1.3403,-1.3403,-1.3403,-1.3403,-1.3437,-1.3512,-1.3512,-1.3546,-1.362,-1.3695,-1.3736,-1.3736,-1.3804,-1.3878,-1.3953,-1.3953,-1.4034,-1.4177,-1.4177,-1.4217,-1.4299,-1.4373,-1.4407,-1.4414,-1.4489,-1.4523,-1.4502,-1.4353,-1.4197,-1.4068,-1.4068,-1.4068,-1.4068,0.0,0.0,0.0,0.0,0.0,0.0,0.0,0.0,0.0,0.0,-1.1619,-1.1619,-1.1619,-1.1619,-1.1619,0.0,0.0,0.0,0.0,-1.202,-1.2176,-1.2325,-1.244,-1.2501,-1.2501,-1.2501,-1.2501,-1.2501,-1.2501,-1.2501,-1.2501,-1.2501,-1.2501,-1.2501,-1.2535,-1.2549,-1.2556,-1.2712,-1.2773,-1.2786,-1.2908,-1.2976,-1.299,-1.2861,-1.2874,-1.2963,-1.2963,-1.3123,-1.3123,-1.299,-1.3164,-1.3332,-1.3198,-1.3205,-1.3528,-1.4165,-1.4422,0.0,0.0,0.0,0.0,0.0,0.0,0.0,0.0,0.0,-1.4886,-1.4066,-1.3901,-1.3901,-1.3403,-1.3403,-1.3403,-1.3403,-1.3403,-1.3403,-1.3403,-1.3403,-1.3403,-1.3403,-1.3403,-1.3403,-1.3403,-1.3403,-1.341,-1.3444,-1.3444,-1.3512,-1.3661,-1.3668,-1.3722,-1.3838,-1.3871,-1.3899,-1.3926,-1.396,-1.4048,-1.4204,-1.4204,-1.4326,-1.4557,-1.4557,-1.4624,-1.474,-1.474,-1.474,-1.474,-1.474,-1.474,-1.474,-1.474,-1.459,-1.4387,-1.4387,-1.4387,-1.4387,0.0,0.0,0.0,0.0,0.0,0.0,0.0,0.0,0.0,0.0,0.0,0.0,0.0,0.0,0.0,0.0,0.0,0.0,-1.2026,-1.2182,-1.2332,-1.2474,-1.2494,-1.2501,-1.2501,-1.2501,-1.2501,-1.2501,-1.2501,-1.2501,-1.2501,-1.2501,-1.2501,-1.2508,-1.2644,-1.2705,-1.2712,-1.2868,-1.2935,-1.2935,-1.2956,-1.3037,-1.3146,-1.3132,-1.3057,-1.2963,-1.2963,-1.3276,-1.345,-1.3267,-1.364,-1.4319,-1.3974,-1.4174,-1.4496,-1.4661,0.0,-1.4691,-1.4856,-1.4541,-1.4232,-1.3735,-1.3901,-1.4066,0.0,0.0,-1.4066,-1.3569,-1.3403,-1.3403,-1.3403,-1.3403,-1.3403,-1.3403,-1.3403,-1.3403,-1.3403,-1.3403,-1.3403,-1.3403,-1.3403,-1.3403,-1.3403,-1.3403,-1.3458,-1.3593,-1.36,-1.3668,-1.381,-1.3817,-1.3824,-1.3838,-1.3973,-1.4109,-1.4245,-1.4373,-1.4516,-1.4665,-1.4665,-1.4679,-1.4713,-1.4713,-1.4726,-1.474,-1.474,-1.474,-1.474,-1.474,-1.474,-1.474,-1.474,-1.4719,-1.4692,-1.4692,-1.4692,-1.4692,0.0,0.0,0.0,0.0,0.0,0.0,0.0,0.0,0.0,0.0,0.0,0.0,0.0,0.0,0.0,0.0,0.0,0.0,-1.2182,-1.2257,-1.2352,-1.2494,-1.2501,-1.2501,-1.2501,-1.2501,-1.2501,-1.2501,-1.2501,-1.2501,-1.2501,-1.2501,-1.2549,-1.2637,-1.2705,-1.2779,-1.2874,-1.3024,-1.3085,-1.3091,-1.318,-1.3254,-1.3308,-1.3308,-1.3268,-1.322,-1.3547,-1.3704,0.0,0.0,-1.3967,-1.4145,-1.388,-1.4066,-1.439,-1.4548,-1.4878,0.0,-1.4713,-1.4555,0.0,0.0,-1.3901,-1.4066,-1.3901,-1.3901,-1.3901,-1.3569,-1.3403,-1.3403,-1.3403,-1.3403,-1.3403,0.0,-1.3403,-1.3403,-1.3403,-1.3403,-1.3403,-1.3403,-1.3478,-1.3498,-1.341,-1.3485,-1.3559,-1.3627,-1.3702,-1.3817,-1.3966,-1.3973,-1.4055,-1.4224,-1.4292,-1.4401,-1.4557,-1.4618,-1.4679,-1.474,-1.474,-1.4787,-1.4875,-1.4875,-1.4916,-1.4997,-1.4997,-1.4997,-1.4997,-1.4997,-1.4997,-1.4997,-1.4997,-1.4997,-1.4977,-1.4801,-1.474,-1.474,0.0,0.0,0.0,0.0,0.0,0.0,0.0,0.0,0.0,0.0,0.0,0.0,0.0,0.0,0.0,0.0,0.0,0.0,0.0,-1.2325,-1.2393,-1.2494,-1.2501,-1.2501,-1.2501,-1.2501,-1.2501,-1.2501,-1.2501,-1.2501,-1.2501,-1.2501,-1.2583,-1.2732,-1.2773,-1.2874,-1.303,-1.3173,-1.3234,-1.3247,-1.3356,-1.3403,-1.3403,-1.3403,-1.3403,-1.3569,-1.3901,-1.4232,0.0,0.0,-1.4397,-1.4563,-1.4059,-1.4232,-1.4728,-1.5051,-1.5381,-1.5381,-1.4878,0.0,0.0,-1.4066,-1.3901,-1.3901,-1.3901,-1.3901,-1.3735,-1.3403,-1.3403,-1.3403,-1.3403,-1.3403,-1.3403,-1.3403,-1.3403,-1.3403,-1.3403,-1.3403,-1.3417,-1.3458,-1.3559,-1.36,-1.3532,-1.362,-1.3702,-1.3749,-1.3844,-1.3987,-1.4183,-1.419,-1.4312,-1.4563,-1.4577,-1.4652,-1.4801,-1.4801,-1.4821,-1.4862,-1.4862,-1.4923,-1.5031,-1.5031,-1.5086,-1.5181,-1.5181,-1.5181,-1.5181,-1.5181,-1.5208,-1.5248,-1.5248,-1.5269,-1.5282,-1.5065,-1.4936,-1.4862,0.0,0.0,0.0,0.0,0.0,0.0,0.0,0.0,0.0,0.0,0.0,0.0,0.0,0.0,0.0,0.0,0.0,0.0,0.0,-1.242,-1.2494,-1.2501,-1.2501,-1.2501,-1.2501,-1.2501,-1.2501,-1.2501,-1.2501,-1.2501,-1.2501,-1.2501,-1.2583,-1.2739,-1.2888,-1.303,-1.3173,-1.3329,-1.3397,-1.3397,-1.3397,-1.3403,-1.3403,-1.3403,-1.3735,-1.4066,-1.4066,0.0,0.0,0.0,-1.5216,-1.5883,-1.5546,-1.5546,0.0,-1.5883,-1.6048,0.0,0.0,0.0,-1.4548,-1.3562,-1.3403,-1.3403,-1.3403,-1.3403,-1.3403,-1.3403,-1.3403,-1.3403,-1.3403,-1.3403,-1.3403,-1.3403,-1.3403,-1.3403,-1.3403,-1.3403,-1.3458,-1.3607,-1.3627,-1.3682,0.0,-1.3831,-1.3899,-1.4048,-1.4061,-1.419,-1.4482,-1.4496,-1.457,-1.4726,-1.4733,-1.4808,-1.4964,-1.4964,-1.5031,-1.5167,-1.5167,-1.5174,-1.5174,-1.5174,-1.5181,-1.5181,-1.5181,-1.5181,-1.5181,-1.5181,-1.5269,-1.5404,-1.5404,-1.5493,-1.5622,-1.5615,-1.5425,-1.5167,0.0,0.0,0.0,0.0,0.0,0.0,0.0,0.0,0.0,0.0,0.0,0.0,0.0,0.0,0.0,0.0,0.0,0.0,0.0,-1.2474,-1.2501,-1.2501,-1.2501,-1.2501,-1.2501,-1.2501,-1.2501,-1.2501,-1.2501,-1.2501,-1.2501,-1.2501,-1.2637,-1.2888,-1.2935,-1.3098,-1.3329,-1.3376,-1.3403,-1.3403,-1.3403,-1.3403,-1.3403,-1.3403,-1.3735,-1.4066,0.0,0.0,0.0,0.0,0.0,0.0,-1.5051,0.0,0.0,-1.5883,0.0,0.0,0.0,0.0,-1.4232,-1.3569,-1.3403,-1.3403,-1.3403,-1.3403,-1.3403,-1.3403,-1.3569,-1.3735,-1.3403,-1.3569,-1.3735,-1.3403,-1.3403,-1.3437,-1.3539,-1.3553,-1.3607,-1.3749,-1.3858,0.0,0.0,0.0,0.0,-1.4211,-1.4312,-1.4448,-1.4652,-1.4665,-1.4733,-1.4889,-1.4896,-1.4964,-1.5113,-1.5113,-1.5133,-1.5181,-1.5181,-1.5181,-1.5181,-1.5181,-1.5242,-1.5337,-1.5337,-1.5391,-1.5486,-1.5486,-1.5513,-1.556,-1.556,-1.5594,-1.5642,-1.5642,-1.5574,-1.5486,0.0,0.0,0.0,0.0,0.0,0.0,0.0,0.0,0.0,0.0,0.0,0.0,0.0,0.0,0.0,0.0,0.0,0.0,0.0,0.0,-1.2501,-1.2501,-1.2501,-1.2501,-1.2501,-1.2501,-1.2501,-1.2501,-1.2501,-1.2501,-1.2501,-1.2501,-1.2664,-1.2963,-1.2963,-1.3125,-1.3403,-1.3403,-1.3403,-1.3403,-1.3403,-1.3403,-1.3403,-1.3403,-1.3735,0.0,0.0,0.0,0.0,0.0,0.0,0.0,0.0,0.0,0.0,0.0,0.0,0.0,0.0,-1.4555,-1.4232,-1.3569,-1.3403,-1.3403,-1.3403,-1.3403,-1.3403,-1.3403,-1.3735,-1.3901,-1.3569,-1.3735,-1.3901,-1.3403,-1.3444,-1.3519,-1.3614,-1.3675,-1.3763,-1.3905,-1.4061,-1.4177,0.0,0.0,0.0,-1.4373,-1.4509,-1.4658,-1.4814,-1.4821,-1.4889,-1.5038,-1.5045,-1.5092,-1.5181,-1.5181,-1.5181,-1.5181,-1.5242,-1.5262,-1.5269,-1.5323,-1.5398,-1.5493,-1.5493,-1.5547,-1.5642,-1.5642,-1.5669,-1.5716,-1.5716,-1.575,-1.5798,-1.5798,-1.5798,-1.5784,0.0,0.0,0.0,0.0,0.0,0.0,0.0,0.0,0.0,0.0,0.0,0.0,0.0,0.0,0.0,0.0,0.0,0.0,0.0,0.0,0.0,-1.2501,-1.2501,-1.2501,-1.2501,-1.2501,-1.2501,-1.2501,-1.2501,-1.2501,-1.2501,-1.2508,-1.2671,-1.2963,-1.2969,-1.3132,-1.3403,-1.3403,-1.3403,-1.3403,-1.3403,-1.3403,-1.3403,-1.3403,0.0,0.0,0.0,0.0,0.0,0.0,0.0,0.0,0.0,0.0,0.0,0.0,0.0,-1.5719,-1.4886,-1.4713,-1.4383,-1.3562,-1.3403,-1.3403,-1.3403,-1.3403,-1.3403,-1.3403,-1.3735,-1.3901,0.0,0.0,-1.3901,-1.341,-1.3532,-1.3634,-1.3648,-1.377,-1.3912,0.0,0.0,0.0,0.0,0.0,0.0,-1.455,-1.4672,-1.4821,-1.4977,-1.4984,-1.5045,-1.5181,-1.5181,-1.5181,-1.5181,-1.5187,-1.5194,-1.5194,-1.535,-1.5425,-1.5425,-1.5574,-1.5642,-1.5649,-1.5649,-1.5655,-1.5662,-1.5662,-1.5744,-1.5879,-1.5879,-1.5967,-1.6103,-1.6103,-1.6103,-1.6062,0.0,0.0,0.0,0.0,0.0,0.0,0.0,0.0,0.0,0.0,0.0,0.0,0.0,0.0,0.0,0.0,0.0,0.0,0.0,0.0,0.0,0.0,-1.2501,-1.2501,-1.2501,0.0,0.0,-1.2501,-1.2501,-1.2501,-1.2501,-1.2617,-1.2773,-1.2969,-1.3071,-1.322,-1.3403,-1.3403,-1.3403,-1.3403,0.0,-1.3403,-1.3403,0.0,0.0,0.0,0.0,0.0,0.0,0.0,0.0,0.0,0.0,0.0,-1.5043,0.0,0.0,-1.4563,-1.4232,-1.4066,-1.3728,-1.3403,-1.3403,-1.3403,-1.3403,-1.3403,-1.3403,-1.3403,-1.4059,-1.439,0.0,0.0,0.0,-1.372,-1.3607,0.0,-1.3926,-1.3987,0.0,0.0,0.0,-1.4516,-1.4665,-1.4821,0.0,0.0,-1.4889,-1.4977,-1.512,-1.5126,-1.5147,-1.5181,-1.5181,-1.5181,-1.5181,-1.5296,-1.535,-1.5357,-1.5506,-1.5581,-1.5581,-1.5622,-1.5696,-1.5798,-1.5798,-1.5866,-1.5967,-1.5967,-1.6056,-1.6191,-1.6191,-1.6279,-1.6408,-1.6408,-1.6408,-1.6395,0.0,0.0,0.0,0.0,0.0,0.0,0.0,0.0,0.0,0.0,0.0,0.0,0.0,0.0,0.0,0.0,0.0,0.0,0.0,0.0,0.0,0.0,-1.2501,-1.2501,0.0,0.0,0.0,0.0,0.0,0.0,-1.2501,-1.2589,-1.2745,-1.2963,-1.3044,-1.32,-1.3403,-1.3403,0.0,0.0,0.0,0.0,0.0,0.0,0.0,0.0,0.0,0.0,0.0,0.0,0.0,-1.5051,-1.4713,-1.4713,-1.4713,-1.4713,0.0,-1.4397,-1.4232,-1.3901,-1.3735,-1.3403,-1.3403,-1.3403,-1.3403,-1.3403,-1.3403,-1.3735,-1.4225,0.0,0.0,0.0,0.0,0.0,0.0,0.0,-1.4048,-1.4183,-1.4326,0.0,-1.4631,0.0,-1.4835,-1.4977,-1.5065,0.0,-1.5065,-1.5099,-1.5181,-1.5181,-1.5181,-1.5181,-1.5181,-1.5215,-1.5282,-1.5438,-1.5513,-1.5513,-1.5662,-1.5737,-1.5737,-1.5805,-1.5879,-1.5954,-1.6022,-1.6103,-1.6185,-1.6246,-1.6327,-1.6402,-1.6402,-1.6449,-1.6524,-1.6524,-1.6524,-1.653,0.0,0.0,0.0,0.0,0.0,0.0,0.0,0.0,0.0,0.0,0.0,0.0,0.0,0.0,0.0,0.0,0.0,0.0,0.0,0.0,0.0,0.0,-1.2501,-1.2501,0.0,0.0,0.0,0.0,0.0,0.0,0.0,0.0,0.0,-1.2935,-1.2969,0.0,0.0,0.0,0.0,0.0,0.0,0.0,0.0,0.0,0.0,0.0,0.0,0.0,0.0,0.0,-1.4225,-1.4548,-1.4548,-1.4548,-1.4548,-1.4548,-1.4548,-1.439,-1.4066,-1.4066,-1.3901,-1.3569,-1.3403,-1.3403,-1.3403,-1.3403,-1.3569,-1.3901,0.0,-1.4713,-1.4548,-1.4688,-1.4638,-1.4315,0.0,-1.4082,-1.4102,-1.434,-1.4516,-1.4536,-1.4794,-1.4977,-1.4997,-1.5113,-1.5181,-1.5181,-1.5181,-1.5181,-1.5181,-1.5181,-1.5194,-1.5215,-1.5215,-1.5289,-1.5438,-1.5594,-1.5669,-1.5669,-1.5811,-1.5886,-1.5886,-1.6042,-1.611,-1.6123,-1.6273,-1.6341,-1.6347,-1.6469,-1.653,-1.6551,-1.6551,-1.6564,-1.6585,-1.6585,-1.6585,-1.6598,0.0,0.0,0.0,0.0,0.0,0.0,0.0,0.0,0.0,0.0,0.0,0.0,0.0,0.0,0.0,0.0,0.0,0.0,0.0,0.0,0.0,0.0,0.0,0.0,0.0,0.0,0.0,0.0,0.0,0.0,0.0,0.0,0.0,0.0,-1.3024,0.0,0.0,0.0,0.0,0.0,0.0,0.0,0.0,0.0,0.0,0.0,0.0,0.0,0.0,0.0,-1.3901,-1.4066,-1.3728,-1.3562,-1.3562,-1.3562,-1.3562,-1.3562,-1.3569,-1.3569,-1.3569,-1.3403,-1.3403,-1.3403,-1.3403,-1.3735,0.0,0.0,-1.4225,-1.4548,-1.3728,-1.402,-1.433,-1.3954,0.0,0.0,0.0,0.0,-1.4557,0.0,0.0,0.0,0.0,0.0,0.0,0.0,-1.5181,-1.5181,-1.5181,-1.5181,-1.5242,-1.5364,-1.5371,-1.5445,-1.5601,-1.5744,-1.5818,-1.5818,-1.5967,-1.6042,-1.6049,-1.6198,-1.6273,-1.6279,-1.6422,-1.6483,-1.6483,-1.651,-1.6598,-1.6707,-1.6707,-1.6788,-1.6904,-1.6904,-1.6904,-1.6904,0.0,0.0,0.0,0.0,0.0,0.0,0.0,0.0,0.0,0.0,0.0,0.0,0.0,0.0,0.0,0.0,0.0,0.0,0.0,0.0,0.0,0.0,0.0,0.0,0.0,0.0,0.0,0.0,0.0,0.0,0.0,0.0,0.0,0.0,0.0,0.0,0.0,0.0,0.0,0.0,0.0,0.0,0.0,0.0,0.0,0.0,0.0,0.0,0.0,0.0,-1.3569,-1.3735,-1.3403,-1.3403,-1.3403,-1.3403,-1.3403,-1.3403,-1.3403,-1.3403,-1.3403,-1.3403,-1.3403,-1.3403,-1.3403,0.0,0.0,0.0,-1.4066,-1.4419,-1.4166,0.0,0.0,0.0,0.0,0.0,0.0,0.0,0.0,0.0,0.0,0.0,0.0,0.0,0.0,-1.5181,-1.5181,-1.5181,-1.5181,-1.5255,-1.5371,-1.5527,-1.5601,-1.5676,-1.575,-1.59,-1.5974,-1.5974,-1.613,-1.6198,-1.6205,-1.6354,-1.6422,-1.6429,-1.6578,-1.6639,-1.6646,-1.6727,-1.6802,-1.687,-1.687,-1.6917,-1.6978,-1.6978,-1.6978,-1.6978,0.0,0.0,0.0,0.0,0.0,0.0,0.0,0.0,0.0,0.0,0.0,0.0,0.0,0.0,0.0,0.0,0.0,0.0,0.0,0.0,0.0,0.0,0.0,0.0,0.0,0.0,0.0,0.0,0.0,0.0,0.0,0.0,0.0,0.0,0.0,0.0,0.0,0.0,0.0,0.0,0.0,0.0,0.0,0.0,0.0,0.0,0.0,0.0,0.0,0.0,-1.3403,-1.3403,-1.3403,-1.3403,-1.3403,-1.3403,-1.3403,-1.3403,-1.3403,-1.3403,-1.3403,-1.3403,-1.3403,-1.3403,-1.3403,-1.3403,0.0,0.0,-1.4066,-1.4282,-1.4601,0.0,0.0,0.0,0.0,0.0,0.0,0.0,0.0,0.0,0.0,0.0,0.0,0.0,0.0,-1.5181,-1.5215,-1.5228,-1.5228,-1.5377,-1.5527,-1.5683,-1.5791,-1.5866,-1.59,-1.6056,-1.613,-1.613,-1.6286,-1.6354,-1.6361,-1.6503,-1.6571,-1.6578,-1.6734,-1.6802,-1.6809,-1.6931,-1.6978,-1.6978,-1.6978,-1.6978,-1.6978,-1.6978,-1.6978,-1.6978,0.0,0.0,0.0,0.0,0.0,0.0,0.0,0.0,0.0,0.0,0.0,0.0,0.0,0.0,0.0,0.0,0.0,0.0,0.0,0.0,0.0,0.0,0.0,0.0,0.0,0.0,0.0,0.0,0.0,0.0,0.0,0.0,0.0,0.0,0.0,0.0,0.0,0.0,0.0,0.0,0.0,0.0,0.0,0.0,0.0,0.0,0.0,0.0,0.0,0.0,0.0,-1.3403,-1.3403,-1.3403,-1.3403,-1.3403,0.0,0.0,-1.3403,-1.3403,-1.3403,-1.3403,-1.3403,-1.3403,-1.3403,0.0,0.0,0.0,0.0,-1.395,0.0,0.0,0.0,0.0,0.0,-1.4496,0.0,0.0,0.0,0.0,0.0,0.0,0.0,-1.5181,0.0,-1.5181,-1.5309,-1.5391,-1.5391,-1.5533,-1.5683,-1.5825,-1.5845,-1.592,-1.6056,-1.6212,-1.6286,-1.6293,-1.6435,-1.6503,-1.651,-1.6659,-1.6727,-1.6734,-1.689,-1.6958,-1.6958,-1.6978,-1.6978,-1.6978,-1.6978,-1.6978,-1.6978,-1.6978,-1.6978,-1.6978,0.0,0.0,0.0,0.0,0.0,0.0,0.0,0.0,0.0,0.0,0.0,0.0,0.0,0.0,0.0,0.0,0.0,0.0,0.0,0.0,0.0,0.0,0.0,0.0,0.0,0.0,0.0,0.0,0.0,0.0,0.0,0.0,0.0,0.0,0.0,0.0,0.0,0.0,0.0,0.0,0.0,0.0,0.0,0.0,0.0,0.0,0.0,0.0,0.0,0.0,0.0,0.0,-1.3403,-1.3403,0.0,0.0,-1.3403,-1.3403,-1.3403,-1.3403,-1.3403,-1.3403,-1.3403,-1.3403,-1.3403,0.0,0.0,0.0,-1.3569,-1.3638,-1.3715,-1.3804,0.0,0.0,0.0,0.0,-1.4638,0.0,0.0,0.0,0.0,0.0,0.0,0.0,-1.5221,-1.5309,-1.554,-1.5676,-1.5676,-1.5737,-1.5839,-1.5988,-1.5988,-1.6062,-1.6218,-1.6279,-1.6354,-1.6435,-1.6585,-1.6659,-1.6666,-1.6822,-1.689,-1.689,-1.6951,-1.6978,-1.6978,-1.6978,-1.6978,-1.6978,-1.6978,-1.6978,-1.6978,-1.6978,-1.6978,-1.6978,0.0,0.0,0.0,0.0,0.0,0.0,0.0,0.0,0.0,0.0,0.0,0.0,0.0,0.0,0.0,0.0,0.0,0.0,0.0,0.0,0.0,0.0,0.0,0.0,0.0,0.0,0.0,0.0,0.0,0.0,0.0,0.0,0.0,0.0,0.0,0.0,0.0,0.0,0.0,0.0,0.0,0.0,0.0,0.0,0.0,0.0,0.0,0.0,0.0,0.0,0.0,0.0,0.0,0.0,0.0,0.0,-1.3403,-1.3403,-1.3403,-1.3403,-1.3403,-1.3403,-1.3403,-1.3403,0.0,0.0,-1.3403,-1.3403,-1.3403,-1.3492,-1.3783,-1.3838,-1.3939,-1.4251,-1.4455,-1.4618,-1.4726,-1.4909,-1.5072,0.0,0.0,0.0,0.0,0.0,-1.533,-1.5527,-1.5737,-1.5872,-1.592,-1.5961,-1.6035,-1.6144,-1.6151,-1.6218,-1.6374,-1.6415,-1.649,-1.6592,-1.6748,-1.6815,-1.6822,-1.6931,-1.6978,-1.6978,-1.6978,-1.6978,-1.6978,-1.6978,-1.6978,-1.6978,-1.6978,-1.6978,-1.6978,-1.6978,-1.6978,-1.6978,0.0,0.0,0.0,0.0,0.0,0.0,0.0,0.0,0.0,0.0,0.0,0.0,0.0,0.0,0.0,0.0,0.0,0.0,0.0,0.0,0.0,0.0,0.0,0.0,0.0,0.0,-1.2501,-1.2501,-1.2501,-1.2501,0.0,0.0,0.0,0.0,0.0,0.0,0.0,0.0,0.0,0.0,0.0,0.0,0.0,0.0,0.0,0.0,0.0,0.0,0.0,0.0,0.0,0.0,0.0,0.0,0.0,0.0,-1.3403,-1.3403,-1.3403,-1.3403,-1.3403,-1.3403,-1.3403,-1.3403,0.0,0.0,-1.3403,-1.3403,-1.3403,-1.3492,-1.3783,-1.3838,-1.3939,-1.4251,-1.4543,-1.474,-1.474,-1.4997,-1.5181,0.0,0.0,0.0,0.0,-1.5316,-1.5533,-1.5825,-1.5852,-1.592,-1.6069,-1.6225,-1.6307,-1.6307,-1.6307,-1.6374,-1.6517,-1.6666,-1.6748,-1.6748,-1.6904,-1.6978,-1.6978,-1.6978,-1.6978,-1.6978,-1.6978,-1.6978,-1.6978,-1.6978,-1.6978,-1.6978,-1.6978,-1.6978,-1.6978,-1.6978,-1.6978,-1.6978,0.0,0.0,0.0,0.0,0.0,0.0,0.0,0.0,0.0,0.0,0.0,0.0,0.0,0.0,0.0,0.0,0.0,0.0,0.0,0.0,0.0,0.0,0.0,0.0,0.0,0.0,-1.2501,-1.2501,-1.2501,-1.2501,-1.2501,-1.2501,0.0,0.0,0.0,0.0,0.0,0.0,0.0,0.0,0.0,0.0,0.0,0.0,0.0,0.0,0.0,0.0,0.0,0.0,0.0,0.0,0.0,0.0,0.0,0.0,0.0,0.0,-1.3403,-1.3403,-1.3403,-1.3403,-1.3403,-1.3403,-1.3403,0.0,0.0,-1.3403,-1.3403,-1.3492,-1.3783,-1.3838,-1.3939,-1.4251,-1.455,-1.474,0.0,0.0,0.0,0.0,0.0,0.0,0.0,0.0,-1.575,-1.5845,-1.5947,-1.6076,-1.6232,-1.6286,-1.6307,-1.6307,-1.6402,-1.6524,-1.6673,-1.6727,-1.6802,-1.691,-1.6958,-1.6978,-1.6978,-1.6978,-1.6978,-1.6978,-1.6978,-1.6978,-1.6978,-1.6978,-1.6978,-1.6978,-1.6978,-1.6978,-1.6978,-1.6978,-1.6978,-1.6978,0.0,0.0,0.0,0.0,0.0,0.0,0.0,0.0,0.0,0.0,0.0,0.0,0.0,0.0,0.0,0.0,0.0,0.0,0.0,0.0,0.0,0.0,0.0,0.0,0.0,-1.2501,-1.2501,-1.2501,-1.2501,-1.2501,-1.2501,-1.2501,-1.2501,-1.2501,-1.2501,0.0,0.0,0.0,0.0,0.0,0.0,0.0,-1.3112,0.0,0.0,0.0,0.0,0.0,0.0,0.0,0.0,0.0,0.0,0.0,0.0,0.0,0.0,0.0,0.0,-1.3403,-1.3403,-1.3403,-1.3403,0.0,0.0,0.0,0.0,0.0,0.0,0.0,0.0,-1.3885,-1.4027,-1.4333,-1.4584,-1.476,-1.4821,0.0,0.0,0.0,0.0,0.0,0.0,-1.571,-1.5879,-1.5934,-1.6083,-1.6212,-1.6307,-1.6415,-1.6476,-1.6476,-1.6564,-1.668,-1.6836,-1.6836,-1.6883,-1.6978,-1.6978,-1.6978,-1.6978,-1.6978,-1.6978,-1.6978,-1.6978,-1.6978,0.0,-1.6978,-1.6978,-1.6978,-1.6978,-1.6978,-1.6978,-1.6978,-1.6978,-1.6978,0.0,0.0,0.0,0.0,0.0,0.0,0.0,0.0,0.0,0.0,0.0,0.0,0.0,0.0,0.0,0.0,0.0,0.0,0.0,0.0,0.0,0.0,0.0,0.0,0.0,-1.2501,-1.2501,-1.2501,-1.2501,-1.2501,-1.2501,-1.2501,-1.2501,-1.2501,-1.2501,-1.2501,0.0,0.0,0.0,0.0,0.0,0.0,0.0,0.0,0.0,0.0,0.0,0.0,0.0,0.0,0.0,0.0,0.0,0.0,0.0,0.0,0.0,0.0,0.0,0.0,0.0,0.0,0.0,0.0,0.0,0.0,0.0,0.0,0.0,0.0,0.0,-1.3966,-1.417,-1.4462,-1.4638,-1.4794,-1.495,0.0,0.0,0.0,0.0,0.0,-1.5642,-1.5784,-1.5934,-1.609,-1.6232,-1.632,-1.6341,-1.6598,-1.6754,-1.6768,-1.6768,-1.6836,-1.6978,-1.6978,-1.6978,-1.6978,-1.6978,-1.6978,-1.6978,-1.6978,-1.6978,-1.6978,-1.6978,-1.6978,-1.6978,-1.6978,-1.6978,-1.6978,-1.6978,-1.6978,-1.6978,-1.6978,-1.6978,-1.6978,0.0,0.0,0.0,0.0,0.0,0.0,0.0,0.0,0.0,0.0,0.0,0.0,0.0,0.0,0.0,0.0,0.0,0.0,0.0,0.0,0.0,0.0,0.0,0.0,-1.2501,-1.2501,-1.2501,-1.2501,-1.2501,-1.2501,-1.2501,-1.2501,-1.2501,-1.2501,-1.2501,-1.2501,0.0,0.0,0.0,0.0,0.0,0.0,0.0,0.0,0.0,0.0,-1.3403,-1.3403,0.0,0.0,0.0,0.0,0.0,0.0,0.0,0.0,-1.3403,0.0,0.0,0.0,0.0,0.0,0.0,0.0,0.0,0.0,0.0,0.0,0.0,0.0,0.0,0.0,-1.417,-1.4462,-1.4638,-1.4794,-1.495,0.0,0.0,0.0,0.0,0.0,-1.5791,-1.594,-1.609,-1.6246,-1.6286,-1.6408,-1.6632,-1.6714,-1.6802,-1.6924,-1.6924,-1.6944,-1.6978,-1.6978,-1.6978,-1.6978,-1.6978,-1.6978,-1.6978,-1.6978,-1.6978,-1.6978,-1.6978,-1.6978,-1.6978,-1.6978,-1.6978,-1.6978,-1.6978,-1.6978,-1.6978,-1.6978,-1.6978,-1.6978,0.0,0.0,0.0,0.0,0.0,0.0,0.0,0.0,0.0,0.0,0.0,0.0,0.0,0.0,0.0,0.0,0.0,0.0,0.0,0.0,0.0,0.0,0.0,-1.2501,-1.2501,-1.2501,-1.2501,-1.2501,-1.2501,-1.2501,-1.2501,-1.2501,-1.2501,-1.2501,-1.2501,-1.2501,0.0,0.0,0.0,0.0,-1.2589,0.0,0.0,0.0,0.0,0.0,-1.3403,-1.3403,0.0,-1.3403,-1.3403,-1.3403,0.0,0.0,0.0,0.0,-1.3403,0.0,0.0,0.0,0.0,0.0,0.0,0.0,0.0,0.0,0.0,0.0,0.0,0.0,0.0,0.0,0.0,-1.4577,-1.4746,-1.4896,0.0,0.0,0.0,0.0,0.0,-1.5771,0.0,-1.6056,-1.6218,-1.63,-1.6435,-1.6578,-1.6741,-1.6815,-1.6897,-1.6978,-1.6978,-1.6978,-1.6978,-1.6978,-1.6978,-1.6978,-1.6978,-1.6978,-1.6978,-1.6978,-1.6978,-1.6978,-1.6978,-1.6978,-1.6978,-1.6978,-1.6978,-1.6978,-1.6978,-1.6978,-1.6978,-1.6978,-1.6978,-1.6978,0.0,0.0,0.0,0.0,0.0,0.0,0.0,0.0,0.0,0.0,0.0,0.0,0.0,0.0,0.0,0.0,0.0,0.0,0.0,0.0,0.0,0.0,-1.2501,-1.2501,-1.2501,-1.2501,-1.2501,-1.2501,-1.2501,-1.2501,-1.2501,-1.2501,-1.2501,-1.2501,-1.2501,-1.2501,0.0,0.0,-1.2501,0.0,-1.2501,0.0,0.0,0.0,0.0,0.0,0.0,0.0,0.0,-1.3403,-1.3403,-1.3403,-1.3403,0.0,0.0,0.0,0.0,0.0,0.0,0.0,0.0,0.0,0.0,0.0,0.0,0.0,0.0,0.0,0.0,0.0,0.0,0.0,0.0,0.0,0.0,0.0,0.0,0.0,0.0,0.0,0.0,0.0,-1.592,-1.6157,-1.6327,-1.6374,-1.6612,-1.6761,-1.6781,-1.691,-1.6978,-1.6978,-1.6978,-1.6978,-1.6978,-1.6978,-1.6978,-1.6978,-1.6978,-1.6978,-1.6978,-1.6978,-1.6978,-1.6978,-1.6978,-1.6978,-1.6978,-1.6978,-1.6978,-1.6978,-1.6978,-1.6978,-1.6978,-1.6978,-1.6978,-1.6978,0.0,0.0,0.0,0.0,0.0,0.0,0.0,0.0,0.0,0.0,0.0,0.0,0.0,0.0,0.0,0.0,0.0,0.0,0.0,0.0,0.0,-1.2501,-1.2501,-1.2501,-1.2501,-1.2501,-1.2501,-1.2501,-1.2501,-1.2501,-1.2501,-1.2501,-1.2501,-1.2501,-1.2501,-1.2501,-1.2501,-1.2501,-1.2501,-1.2501,-1.2501,0.0,0.0,0.0,0.0,0.0,0.0,0.0,0.0,-1.3403,-1.3403,-1.3403,-1.3403,0.0,0.0,0.0,0.0,0.0,-1.3403,0.0,0.0,0.0,0.0,0.0,0.0,0.0,0.0,0.0,0.0,0.0,0.0,0.0,0.0,0.0,0.0,0.0,0.0,0.0,0.0,0.0,0.0,-1.5954,-1.6218,-1.6279,-1.6415,-1.6666,-1.672,-1.6809,-1.6937,-1.6971,-1.6978,-1.6978,-1.6978,-1.6978,-1.6978,-1.6978,-1.6978,-1.6978,-1.6978,-1.6978,-1.6978,-1.6978,-1.6978,-1.6978,-1.6978,-1.6978,-1.6978,-1.6978,-1.6978,-1.6978,-1.6978,-1.6978,-1.6978,-1.6978,-1.6978,-1.6978,0.0,0.0,0.0,0.0,0.0,0.0,0.0,0.0,0.0,0.0,0.0,0.0,0.0,0.0,0.0,0.0,0.0,0.0,0.0,0.0,-1.2501,-1.2501,-1.2501,-1.2501,-1.2501,-1.2501,-1.2501,-1.2501,-1.2501,-1.2501,-1.2501,-1.2501,-1.2501,-1.2501,-1.2501,-1.2501,-1.2501,-1.2501,-1.2501,-1.2501,0.0,0.0,0.0,0.0,0.0,0.0,0.0,0.0,0.0,0.0,-1.3403,-1.3403,-1.3403,0.0,0.0,0.0,0.0,0.0,-1.3403,-1.3403,0.0,0.0,0.0,0.0,0.0,0.0,0.0,0.0,0.0,0.0,0.0,0.0,0.0,0.0,0.0,0.0,0.0,0.0,0.0,0.0,0.0,-1.6157,-1.6293,-1.6456,-1.6605,-1.6741,-1.6829,-1.6904,-1.6978,-1.6978,-1.6978,-1.6978,-1.6978,-1.6978,-1.6978,-1.6978,-1.6978,-1.6978,-1.6978,-1.6978,-1.6978,-1.6978,-1.6978,-1.6978,-1.6978,-1.6978,-1.6978,-1.6978,-1.6978,-1.6978,-1.6978,-1.6978,-1.6978,-1.6978,-1.6978,-1.6978,0.0,0.0,0.0,0.0,0.0,0.0,0.0,0.0,0.0,0.0,0.0,0.0,0.0,0.0,0.0,0.0,0.0,0.0,0.0,-1.2501,-1.2501,-1.2501,-1.2501,-1.2501,-1.2501,-1.2501,-1.2501,-1.2501,-1.2501,-1.2501,-1.2501,-1.2501,-1.2501,-1.2501,-1.2501,-1.2501,-1.2501,-1.2501,-1.2501,-1.2508,0.0,0.0,0.0,0.0,0.0,0.0,0.0,0.0,0.0,0.0,0.0,0.0,0.0,0.0,0.0,0.0,-1.3403,-1.3403,-1.3403,-1.3403,0.0,0.0,0.0,0.0,0.0,0.0,0.0,0.0,0.0,0.0,0.0,0.0,0.0,0.0,0.0,0.0,0.0,-1.5377,-1.5601,-1.5825,-1.6123,-1.632,-1.6354,-1.6598,-1.6761,-1.6802,-1.691,-1.6978,-1.6978,-1.6978,-1.6978,-1.6978,-1.6978,-1.6978,-1.6978,-1.6978,-1.6978,-1.6978,-1.6978,-1.6978,-1.6978,-1.6978,-1.6978,-1.6978,-1.6978,-1.6978,-1.6978,-1.6978,-1.6978,-1.6978,-1.6978,-1.6978,-1.6978,-1.6978,-1.6978,-1.6978,0.0,0.0,0.0,0.0,0.0,0.0,0.0,0.0,0.0,0.0,0.0,0.0,0.0,0.0,0.0,0.0,0.0,0.0,0.0,-1.2501,-1.2501,-1.2501,-1.2501,-1.2501,-1.2501,-1.2501,-1.2501,-1.2501,-1.2501,-1.2501,-1.2501,-1.2501,-1.2501,-1.2501,-1.2501,-1.2501,-1.2501,-1.2501,-1.2501,-1.2515,-1.2494,0.0,0.0,0.0,0.0,0.0,0.0,0.0,0.0,0.0,0.0,0.0,0.0,0.0,0.0,0.0,-1.3403,-1.3403,-1.3403,-1.3403,0.0,0.0,0.0,0.0,0.0,0.0,0.0,0.0,0.0,0.0,0.0,0.0,0.0,0.0,0.0,-1.5337,-1.5201,0.0,-1.5825,-1.5852,-1.6123,-1.6361,-1.649,-1.6653,-1.6809,-1.6951,-1.6971,-1.6978,-1.6978,-1.6978,-1.6978,-1.6978,-1.6978,-1.6978,-1.6978,-1.6978,-1.6978,-1.6978,-1.6978,-1.6978,-1.6978,-1.6978,-1.6978,-1.6978,-1.6978,-1.6978,-1.6978,-1.6978,-1.6978,-1.6978,-1.6978,-1.6978,-1.6978,-1.6978,-1.6978,-1.6978,0.0,0.0,0.0,0.0,0.0,0.0,0.0,0.0,0.0,0.0,0.0,0.0,0.0,0.0,0.0,0.0,0.0,0.0,0.0,-1.2501,-1.2501,-1.2501,-1.2501,-1.2501,-1.2501,-1.2501,-1.2501,-1.2501,-1.2501,-1.2501,-1.2501,-1.2501,-1.2501,-1.2501,-1.2501,-1.2501,-1.2501,-1.2501,-1.2501,-1.2515,-1.2507,-1.2496,0.0,0.0,0.0,0.0,0.0,0.0,0.0,0.0,-1.3403,0.0,0.0,0.0,0.0,0.0,-1.3403,-1.3403,-1.3403,-1.3403,0.0,0.0,0.0,0.0,0.0,0.0,0.0,0.0,0.0,0.0,0.0,0.0,0.0,0.0,-1.514,-1.5282,-1.5316,-1.5628,-1.5927,-1.6117,-1.632,-1.6503,-1.6653,-1.6802,-1.6917,-1.6978,-1.6978,-1.6978,-1.6978,-1.6978,-1.6978,-1.6978,-1.6978,-1.6978,-1.6978,-1.6978,-1.6978,-1.6978,-1.6978,-1.6978,-1.6978,-1.6978,-1.6978,-1.6978,-1.6978,-1.6978,-1.6978,-1.6978,-1.6978,-1.6978,-1.6978,-1.6978,-1.6978,-1.6978,-1.6978,-1.6978,0.0,0.0,0.0,0.0,0.0,0.0,0.0,0.0,0.0,0.0,0.0,0.0,0.0,0.0,0.0,0.0,0.0,0.0,-1.2501,-1.2501,-1.2501,-1.2501,-1.2501,-1.2501,-1.2501,-1.2501,-1.2501,-1.2501,-1.2501,-1.2501,-1.2501,-1.2501,-1.2501,-1.2501,-1.2501,-1.2501,-1.2501,-1.2501,-1.2528,-1.2427,-1.2574,-1.2569,0.0,0.0,0.0,0.0,0.0,0.0,0.0,0.0,-1.3403,0.0,0.0,0.0,0.0,0.0,-1.3403,-1.3403,-1.3403,-1.3403,0.0,0.0,0.0,0.0,0.0,0.0,0.0,0.0,0.0,0.0,0.0,0.0,0.0,0.0,-1.5133,-1.5309,-1.5459,-1.5737,-1.6022,-1.6279,-1.6435,-1.6578,-1.6734,-1.689,-1.6978,-1.6978,-1.6978,-1.6978,-1.6978,-1.6978,-1.6978,-1.6978,-1.6978,-1.6978,-1.6978,-1.6978,-1.6978,-1.6978,-1.6978,-1.6978,-1.6978,-1.6978,-1.6978,-1.6978,-1.6978,-1.6978,-1.6978,-1.6978,-1.6978,-1.6978,-1.6978,-1.6978,-1.6978,-1.6978,-1.6978,-1.6985,0.0,0.0,0.0,0.0,0.0,0.0,0.0,0.0,0.0,0.0,0.0,0.0,0.0,0.0,0.0,0.0,0.0,0.0,-1.2501,-1.2501,-1.2501,-1.2501,-1.2501,-1.2501,-1.2501,-1.2501,-1.2501,-1.2501,-1.2501,-1.2501,-1.2501,-1.2501,-1.2501,-1.2501,-1.2501,-1.2501,-1.2501,-1.2501,-1.2434,-1.2423,-1.2569,-1.2883,-1.3356,0.0,0.0,0.0,0.0,0.0,0.0,0.0,0.0,0.0,0.0,0.0,0.0,-1.3403,-1.3403,-1.3403,-1.3403,0.0,0.0,0.0,0.0,0.0,0.0,0.0,0.0,0.0,0.0,0.0,0.0,0.0,0.0,-1.497,-1.5221,-1.5466,-1.5622,-1.5893,-1.6137,-1.6293,-1.6435,-1.6585,-1.6734,-1.689,-1.6978,-1.6978,-1.6978,-1.6978,-1.6978,-1.6978,-1.6978,-1.6978,-1.6978,-1.6978,-1.6978,-1.6978,-1.6978,-1.6978,-1.6978,-1.6978,-1.6978,-1.6978,-1.6978,-1.6978,-1.6978,-1.6978,-1.6978,-1.6978,-1.6978,-1.6978,-1.6978,-1.6978,-1.6978,-1.6985,-1.6985,-1.7005,0.0,0.0,0.0,0.0,0.0,0.0,0.0,0.0,0.0,0.0,0.0,0.0,0.0,0.0,0.0,0.0,0.0,0.0,-1.2501,-1.2501,-1.2501,-1.2501,-1.2501,-1.2501,-1.2501,-1.2501,-1.2501,-1.2501,-1.2501,-1.2501,-1.2501,-1.2501,-1.2501,-1.2501,-1.2501,-1.2501,-1.2508,-1.2454,-1.2527,-1.2588,-1.3003,-1.3301,-1.3356,0.0,0.0,0.0,0.0,0.0,0.0,0.0,0.0,0.0,0.0,0.0,-1.3403,-1.3403,-1.3403,-1.3403,-1.3403,0.0,0.0,0.0,0.0,0.0,0.0,0.0,0.0,0.0,0.0,0.0,0.0,0.0,0.0,-1.512,-1.5371,-1.5622,-1.5771,-1.5961,-1.6178,-1.6429,-1.6497,-1.6625,-1.689,-1.6951,-1.6978,-1.6978,-1.6978,-1.6978,-1.6978,-1.6978,-1.6978,-1.6978,-1.6978,-1.6978,-1.6978,-1.6978,-1.6978,-1.6978,-1.6978,-1.6978,-1.6978,-1.6978,-1.6978,-1.6978,-1.6978,-1.6978,-1.6978,-1.6978,-1.6978,-1.6978,-1.6978,-1.6978,-1.6992,-1.7093,-1.7127,-1.7154,0.0,0.0,0.0,0.0,0.0,0.0,0.0,0.0,0.0,0.0,0.0,0.0,0.0,0.0,0.0,0.0,0.0,0.0,0.0,-1.2501,-1.2501,-1.2501,-1.2501,-1.2501,-1.2501,-1.2501,-1.2501,-1.2501,-1.2501,-1.2501,-1.2501,-1.2501,-1.2501,-1.2501,-1.2501,-1.2535,-1.244,-1.2527,-1.2635,-1.2922,-1.3267,-1.3377,-1.3439,0.0,0.0,0.0,0.0,0.0,0.0,0.0,0.0,0.0,0.0,0.0,0.0,-1.3403,-1.3403,-1.3403,0.0,0.0,0.0,0.0,0.0,0.0,0.0,0.0,0.0,0.0,0.0,0.0,0.0,0.0,0.0,-1.5255,-1.5479,-1.571,-1.5913,-1.6076,-1.6259,-1.649,-1.6578,-1.6707,-1.6958,-1.6978,-1.6978,-1.6978,-1.6978,-1.6978,-1.6978,-1.6978,-1.6978,-1.6978,-1.6978,-1.6978,-1.6978,-1.6978,-1.6978,-1.6978,-1.6978,-1.6978,-1.6978,-1.6978,-1.6978,-1.6978,-1.6978,-1.6978,-1.6978,-1.6978,-1.6978,-1.6985,-1.7039,-1.7066,-1.708,-1.7229,-1.7283,-1.7304,0.0,0.0,0.0,0.0,0.0,0.0,0.0,0.0,0.0,0.0,0.0,0.0,0.0,0.0,0.0,0.0,0.0,0.0,0.0,-1.2501,-1.2501,-1.2501,-1.2501,-1.2501,-1.2501,-1.2501,-1.2501,-1.2501,-1.2501,-1.2501,-1.2501,-1.2501,-1.2501,-1.2501,-1.2515,-1.2596,-1.2568,-1.2594,-1.2929,-1.3343,-1.3356,-1.3446,-1.3403,-1.3403,0.0,0.0,0.0,0.0,0.0,0.0,0.0,0.0,0.0,0.0,-1.3403,-1.3403,-1.3403,-1.3403,0.0,0.0,0.0,0.0,0.0,0.0,0.0,0.0,0.0,0.0,0.0,0.0,0.0,-1.5183,-1.5293,-1.5391,-1.5574,-1.5771,-1.6042,-1.6212,-1.6361,-1.6503,-1.6659,-1.6809,-1.6965,-1.6978,-1.6978,-1.6978,-1.6978,-1.6978,-1.6978,-1.6978,-1.6978,-1.6978,-1.6978,-1.6978,-1.6978,-1.6978,-1.6978,-1.6978,-1.6978,-1.6978,-1.6978,-1.6978,-1.6978,-1.6978,-1.6978,-1.6978,-1.6985,-1.6992,-1.6998,-1.7012,-1.7154,-1.7216,-1.7229,-1.7385,-1.7439,-1.746,0.0,0.0,0.0,0.0,0.0,0.0,0.0,0.0,0.0,0.0,0.0,0.0,0.0,0.0,0.0,0.0,0.0,0.0,0.0,-1.2501,-1.2501,-1.2501,-1.2501,-1.2501,-1.2501,-1.2501,-1.2501,-1.2501,-1.2501,-1.2501,-1.2501,-1.2501,-1.2501,-1.2508,-1.2467,-1.2698,-1.3232,-1.3143,-1.3281,-1.3349,-1.3466,-1.337,-1.3403,-1.3403,-1.3403,0.0,0.0,0.0,0.0,0.0,0.0,0.0,-1.3403,-1.3403,-1.3403,-1.3403,-1.3403,0.0,0.0,0.0,0.0,0.0,0.0,0.0,0.0,0.0,0.0,0.0,0.0,0.0,-1.458,-1.4966,-1.5377,-1.556,-1.5811,-1.6008,-1.6076,-1.6212,-1.6361,-1.6503,-1.6659,-1.6809,-1.6965,-1.6978,-1.6978,-1.6978,-1.6978,-1.6978,-1.6978,-1.6978,-1.6978,-1.6978,-1.6978,-1.6978,-1.6978,-1.6978,-1.6978,-1.6978,-1.6978,-1.6978,-1.6978,-1.6978,-1.6978,-1.6978,-1.6978,-1.6978,-1.6992,-1.71,-1.7148,-1.7161,-1.7311,-1.7372,-1.7392,-1.7541,-1.7602,-1.7623,0.0,0.0,0.0,0.0,0.0,0.0,0.0,0.0,0.0,0.0,0.0,0.0,0.0,0.0,0.0,0.0,0.0,0.0,0.0,0.0,-1.2501,-1.2501,-1.2501,-1.2501,-1.2501,-1.2501,-1.2501,-1.2501,-1.2501,-1.2501,-1.2501,-1.2501,-1.2697,-1.2936,-1.2862,-1.3137,-1.3443,-1.3443,-1.3384,-1.3453,-1.337,-1.3403,-1.3403,-1.3403,-1.3403,-1.3403,-1.3403,0.0,0.0,0.0,0.0,0.0,0.0,0.0,-1.3403,-1.3403,-1.3403,-1.3403,0.0,0.0,0.0,0.0,0.0,0.0,0.0,0.0,0.0,0.0,0.0,-1.4798,-1.5059,-1.5451,-1.5876,-1.571,-1.5131,-1.4495,-1.4556,-1.3869,-1.3172,-1.3292,-1.4458,-1.5197,-1.5271,-1.6341,-1.6978,-1.6978,-1.6978,-1.6978,-1.6978,-1.6978,-1.6978,-1.6978,-1.6978,-1.6978,-1.6978,-1.6978,-1.6978,-1.6978,-1.6978,-1.6978,-1.6978,-1.6978,-1.6978,-1.6978,-1.6978,-1.7019,-1.7087,-1.7161,-1.7236,-1.7317,-1.7467,-1.7528,-1.7548,-1.7704,-1.7758,-1.7758,0.0,0.0,0.0,0.0,0.0,0.0,0.0,0.0,0.0,0.0,0.0,0.0,0.0,0.0,0.0,0.0,0.0,0.0,0.0,0.0,0.0,-1.2501,-1.2501,-1.2501,-1.2501,-1.2501,-1.2501,-1.2501,-1.2501,-1.2515,0.0,-1.2697,-1.2929,-1.3383,-1.3433,-1.3436,-1.3343,-1.337,-1.3453,-1.3403,-1.3403,-1.3403,-1.3403,-1.3403,-1.3403,-1.3403,-1.3403,-1.3403,0.0,0.0,0.0,0.0,0.0,0.0,-1.3403,-1.3403,-1.3403,-1.3403,0.0,0.0,0.0,0.0,0.0,0.0,0.0,0.0,0.0,0.0,-1.4794,-1.4819,-1.5931,-1.5702,-1.5328,-1.544,-1.3597,-1.23,-1.2414,-1.0888,-0.9955,-1.0049,-1.182,-1.2942,-1.2942,-1.4639,-1.592,-1.6341,-1.6341,-1.6558,-1.6978,-1.6978,-1.6978,-1.6978,-1.6978,-1.6978,-1.6978,-1.6978,-1.6978,-1.6978,-1.6978,-1.6978,-1.6978,-1.7005,-1.7019,-1.7019,-1.7019,-1.71,-1.7236,-1.7263,-1.7344,-1.7473,-1.7629,-1.7684,-1.7704,-1.7826,-1.786,-1.786,0.0,0.0,0.0,0.0,0.0,0.0,0.0,0.0,0.0,0.0,0.0,0.0,0.0,0.0,0.0,0.0,0.0,0.0,0.0,0.0,0.0,-1.2501,-1.2501,-1.2501,-1.2501,-1.2501,-1.2501,-1.2501,-1.2501,0.0,0.0,0.0,0.0,-1.339,-1.3332,-1.3471,-1.3349,-1.348,-1.3383,-1.3403,-1.3403,-1.3403,-1.3403,-1.3403,-1.3403,-1.3403,-1.3403,-1.3403,0.0,0.0,0.0,0.0,0.0,0.0,-1.3403,-1.3403,-1.3403,0.0,0.0,0.0,0.0,0.0,0.0,0.0,0.0,0.0,0.0,0.0,-1.5135,-1.521,-1.5931,-1.3963,-1.2235,-1.2368,-1.1045,-1.0091,-1.0185,-1.0074,-0.9955,-1.0049,-1.0349,-1.0619,-1.0619,-1.083,-1.1887,-1.4002,-1.4002,-1.485,-1.6978,-1.6978,-1.6978,-1.6978,-1.6978,-1.6978,-1.6978,-1.6978,-1.6978,-1.6978,-1.6978,-1.6978,-1.6985,-1.7107,-1.7161,-1.7161,-1.7161,-1.7249,-1.7399,-1.7534,-1.7602,-1.7629,-1.7772,-1.7826,-1.7846,-1.786,-1.786,-1.786,0.0,0.0,0.0,0.0,0.0,0.0,0.0,0.0,0.0,0.0,0.0,0.0,0.0,0.0,0.0,0.0,0.0,0.0,0.0,0.0,0.0,-1.2501,-1.2501,-1.2501,-1.2501,-1.2501,-1.2501,-1.2501,0.0,0.0,0.0,-1.3394,-1.3472,0.0,0.0,0.0,-1.3473,-1.3376,-1.3403,-1.3403,-1.3403,-1.2733,-1.2063,-1.3065,-1.2733,-1.2063,-1.3065,0.0,0.0,0.0,0.0,0.0,-1.3403,0.0,0.0,0.0,0.0,0.0,0.0,0.0,0.0,0.0,0.0,0.0,0.0,0.0,-1.5209,-1.5142,-1.512,-1.5262,-1.5695,-1.2966,-1.0811,-1.2217,-0.9853,-0.7894,-0.7805,-0.7023,-0.6246,-0.6336,-0.7423,-0.8289,-0.8289,-0.9349,-1.0619,-1.1676,-1.2942,-1.4002,-1.506,-1.6341,-1.6978,-1.6978,-1.6978,-1.6978,-1.6978,-1.6978,-1.6978,-1.6978,-1.6978,-1.7026,-1.71,-1.7161,-1.7195,-1.7195,-1.7283,-1.7405,-1.7555,-1.7623,-1.7704,-1.7772,-1.7846,-1.786,-1.786,-1.786,-1.786,-1.786,0.0,0.0,0.0,0.0,0.0,0.0,0.0,0.0,0.0,0.0,0.0,0.0,0.0,0.0,0.0,0.0,0.0,0.0,0.0,0.0,0.0,0.0,-1.2501,-1.2501,-1.2501,-1.2542,-1.2562,-1.2562,0.0,0.0,-1.3172,-1.3233,-1.3363,0.0,-1.3398,0.0,0.0,0.0,0.0,0.0,-1.2733,-1.1558,-1.0221,-1.1558,-1.1225,-1.0221,-1.2063,0.0,0.0,0.0,0.0,0.0,0.0,0.0,0.0,0.0,0.0,0.0,0.0,0.0,0.0,0.0,0.0,0.0,0.0,0.0,-1.4698,-1.2545,-1.3749,-1.4924,-1.4316,-1.1947,-1.0528,-1.1838,-0.8453,-0.568,-0.5581,-0.4356,-0.3344,-0.3404,-0.4898,-0.5957,-0.5957,-0.7441,-0.8713,-0.9349,-1.0826,-1.2093,-1.2731,-1.4429,-1.5493,-1.6131,-1.6131,-1.6341,-1.6978,-1.6978,-1.6978,-1.6978,-1.6978,-1.6842,-1.6331,-1.7016,-1.6842,-1.6447,-1.721,-1.7561,-1.7704,-1.7704,-1.7772,-1.786,-1.786,-1.786,-1.786,-1.786,-1.786,-1.786,0.0,0.0,0.0,0.0,0.0,0.0,0.0,0.0,0.0,0.0,0.0,0.0,0.0,0.0,0.0,0.0,0.0,0.0,0.0,0.0,0.0,0.0,0.0,0.0,-1.2501,-1.2807,-1.304,0.0,0.0,0.0,-1.3315,-1.3329,-1.3247,-1.339,-1.339,-1.3397,-1.3403,0.0,0.0,0.0,0.0,-0.9721,-0.8219,-0.8219,0.0,0.0,0.0,0.0,0.0,0.0,0.0,0.0,0.0,0.0,0.0,0.0,0.0,0.0,0.0,0.0,0.0,0.0,0.0,0.0,0.0,0.0,-1.3031,-0.5282,-0.982,-1.4097,-1.0555,-1.0843,-1.1154,-1.0049,-0.6246,-0.3454,-0.352,-0.3321,-0.3344,-0.3404,-0.3411,-0.3624,-0.3624,-0.3624,-0.4685,-0.6804,-0.7016,-0.8074,-1.0196,-1.0407,-1.1464,-1.3785,-1.3785,-1.485,-1.6978,-1.6978,-1.6978,-1.6978,-1.6978,-1.5773,-1.3973,-1.6258,-1.6175,-1.4304,-1.6531,-1.7717,-1.7846,-1.7846,-1.786,-1.786,-1.786,-1.786,-1.786,-1.786,-1.786,-1.786,0.0,0.0,0.0,0.0,0.0,0.0,0.0,0.0,0.0,0.0,0.0,0.0,0.0,0.0,0.0,-1.2373,0.0,0.0,0.0,0.0,0.0,0.0,0.0,0.0,0.0,-1.3013,0.0,0.0,0.0,-1.3125,-1.3343,-1.3275,-1.3349,-1.3403,-1.3403,-1.3403,-1.3403,-1.2229,0.0,0.0,0.0,0.0,0.0,0.0,0.0,0.0,0.0,0.0,0.0,0.0,0.0,0.0,0.0,0.0,0.0,0.0,0.0,0.0,0.0,0.0,0.0,-1.018,-0.6618,-0.2874,-0.2928,-0.5163,-0.669,-0.3776,-0.5366,-0.8737,-1.2937,-1.191,-0.9828,-0.7848,-0.504,-0.3251,-0.3313,-0.3321,-0.3344,-0.3404,-0.3412,-0.3412,-0.3412,-0.3412,-0.3837,-0.4473,-0.5957,-0.7228,-0.8077,-0.9349,-1.1253,-1.3575,-1.3575,-1.4639,-1.6978,-1.6978,-1.6341,-1.485,-1.4727,-1.3754,-1.1712,-1.2466,-1.3455,-1.4222,-1.5122,-1.6482,-1.786,-1.786,-1.786,-1.786,-1.786,-1.786,-1.786,-1.786,-1.786,-1.786,0.0,0.0,0.0,0.0,0.0,0.0,0.0,0.0,0.0,0.0,0.0,0.0,0.0,0.0,0.0,-1.1491,0.0,0.0,0.0,0.0,0.0,0.0,0.0,0.0,0.0,0.0,0.0,0.0,0.0,0.0,0.0,-1.3356,-1.3403,-1.3403,-1.3403,-1.3065,0.0,0.0,0.0,-0.8883,0.0,0.0,-0.4703,0.0,0.0,0.0,0.0,0.0,0.0,0.0,0.0,0.0,0.0,0.0,0.0,0.0,0.0,0.0,0.0,0.0,0.0,0.0,-1.0397,-0.6111,-0.348,-0.2951,-0.3159,-0.3026,-0.3062,-0.4834,-1.0578,-0.9328,-0.7418,-0.6846,-0.4841,-0.3251,-0.3313,-0.3321,-0.3344,-0.3404,-0.3412,-0.3412,-0.3412,-0.3412,-0.3412,-0.3412,-0.4898,-0.5744,-0.5744,-0.7019,-0.8925,-1.1249,-1.2731,-1.4002,-1.4645,-1.5493,-1.4639,-1.252,-1.2418,-1.1451,-0.9375,-1.0109,-1.1082,-1.2071,-1.2738,-1.4958,-1.786,-1.786,-1.786,-1.786,-1.786,-1.786,-1.786,-1.786,-1.7424,-1.6741,0.0,0.0,0.0,0.0,0.0,0.0,0.0,0.0,0.0,0.0,0.0,0.0,0.0,0.0,0.0,-1.0014,-1.0014,-1.1025,-1.3297,-1.3465,0.0,0.0,0.0,0.0,0.0,0.0,0.0,0.0,0.0,0.0,0.0,0.0,-1.3403,-1.3403,-1.3403,-1.2229,-1.0554,0.0,-0.8549,-0.5371,0.0,-0.4199,-0.2692,0.0,0.0,0.0,-0.4703,-0.5371,0.0,0.0,0.0,0.0,0.0,0.0,0.0,0.0,0.0,0.0,0.0,0.0,0.0,0.0,0.0,-1.2246,-0.4587,-0.2951,-0.3156,-0.3039,-0.3069,-0.3095,-0.3135,-0.316,-0.4179,-0.6841,-0.5043,-0.3251,-0.3313,-0.3321,-0.3344,-0.3404,-0.3412,-0.3412,-0.3412,-0.3412,-0.3412,-0.3412,-0.3412,-0.3412,-0.3412,-0.3411,-0.4473,-0.6804,-1.1249,-1.252,-1.0196,-1.2309,-1.2309,-1.02,-1.0076,-0.887,-0.6771,-0.9243,-0.9104,-0.7393,-0.9616,-1.3399,-1.7639,-1.7639,-1.7639,-1.7639,-1.7639,-1.7639,-1.7639,-1.7639,-1.6299,-1.4292,0.0,0.0,0.0,0.0,0.0,0.0,0.0,0.0,0.0,0.0,0.0,0.0,0.0,0.0,0.0,-1.0019,-1.034,-1.1326,-1.3318,-1.3472,-1.3346,0.0,0.0,0.0,0.0,0.0,0.0,0.0,-1.3336,-1.3356,-1.3403,-1.3403,-1.3403,0.0,-1.2063,-1.0388,-0.872,-0.872,0.0,0.0,-0.4034,-0.3195,0.0,0.0,0.0,0.0,0.0,-0.4537,0.0,0.0,-0.6714,-0.7212,0.0,0.0,0.0,0.0,0.0,0.0,-1.4235,0.0,0.0,0.0,0.0,0.0,-0.4761,-0.3131,-0.3156,-0.3039,-0.3056,-0.3078,-0.3133,-0.3148,-0.3366,-0.4226,-0.3633,-0.3251,-0.3313,-0.3321,-0.3344,-0.3404,-0.3412,-0.3412,-0.3412,-0.3412,-0.3412,-0.3412,-0.3412,-0.3412,-0.3412,-0.4898,-0.6169,-0.6804,-0.9557,-1.083,-1.0196,-1.083,-1.0012,-0.7726,-0.7794,-0.6556,-0.4415,-0.5118,-0.6034,-0.7169,-0.7834,-0.9843,-1.2738,-1.2738,-1.2738,-1.2738,-1.2738,-1.2738,-1.2738,-1.2738,-1.2284,-1.1621,0.0,0.0,0.0,0.0,0.0,0.0,0.0,0.0,0.0,0.0,0.0,0.0,0.0,0.0,-0.5851,-0.5875,-0.8824,-1.1149,-1.2188,-1.2677,-1.303,-1.3439,0.0,0.0,0.0,0.0,0.0,0.0,-1.284,-1.284,-1.3065,-1.3065,-1.2733,0.0,0.0,0.0,0.0,0.0,0.0,0.0,-0.3195,0.0,0.0,-0.2692,-0.2692,0.0,0.0,0.0,-0.4743,-0.4403,-0.4409,0.0,0.0,0.0,0.0,0.0,0.0,0.0,0.0,0.0,0.0,0.0,0.0,0.0,-0.4757,-0.313,-0.3156,-0.3039,-0.3052,-0.307,-0.3131,-0.3142,-0.3163,-0.3221,-0.323,-0.3247,-0.3295,-0.3313,-0.3339,-0.3386,-0.3404,-0.3412,-0.3412,-0.3412,-0.3412,-0.3412,-0.3412,-0.3412,-0.3412,-0.4685,-0.5322,-0.5322,-0.7653,-0.8289,-0.7444,-0.8289,-0.7687,-0.5394,-0.5441,-0.4832,-0.3544,-0.3576,-0.4259,-0.5603,-0.5603,-0.6493,-0.7834,-0.7834,-0.895,-1.073,-1.073,-1.073,-1.073,-1.073,-1.0066,-0.9177,0.0,0.0,0.0,0.0,0.0,0.0,0.0,0.0,0.0,0.0,0.0,-0.6588,-0.0648,0.0,0.0,0.0,-0.5778,-0.9803,-1.0581,-1.1415,-1.2241,0.0,0.0,0.0,0.0,0.0,0.0,0.0,0.0,0.0,0.0,0.0,0.0,0.0,0.0,0.0,0.0,0.0,0.0,-0.2692,-0.2692,-0.2692,0.0,0.0,-0.2692,0.0,-0.2528,-0.2714,-0.2566,-0.1542,-0.1722,0.0,0.0,0.0,0.0,0.0,-1.3067,0.0,0.0,0.0,0.0,0.0,0.0,0.0,-0.4576,-0.313,-0.3156,-0.3039,-0.3052,-0.307,-0.3127,-0.3141,-0.3161,-0.3216,-0.3228,-0.324,-0.3272,-0.3302,-0.3332,-0.3363,-0.3393,-0.3412,-0.3412,-0.3412,-0.3412,-0.3412,-0.3412,-0.3412,-0.3412,-0.3412,-0.3412,-0.3412,-0.5322,-0.5534,-0.3412,-0.5322,-0.5347,-0.3463,-0.349,-0.352,-0.3551,-0.3576,-0.3589,-0.3589,-0.3589,-0.3589,-0.3589,-0.3589,-0.605,-0.9843,-0.9843,-0.9843,-0.9843,-0.9843,-0.8501,-0.6719,0.0,0.0,0.0,0.0,0.0,0.0,0.0,0.0,0.0,0.0,-0.5224,-0.1476,-0.0164,0.0,0.0,0.0,-0.1338,-0.4521,-1.0263,-1.0937,0.0,0.0,0.0,0.0,0.0,0.0,0.0,0.0,0.0,0.0,0.0,0.0,0.0,0.0,0.0,0.0,0.0,0.0,0.0,-0.2692,-0.2692,0.0,-0.2692,-0.185,-0.2018,-0.2527,-0.187,-0.2049,-0.2399,0.0,-0.0347,-0.0868,0.0,0.0,0.0,0.0,0.0,0.0,0.0,0.0,0.0,0.0,0.0,0.0,-0.33,-0.295,-0.2971,-0.3039,-0.3052,-0.3063,-0.31,-0.3126,-0.3155,-0.319,-0.3216,-0.324,-0.3272,-0.3302,-0.3332,-0.3363,-0.3393,-0.3412,-0.3412,-0.3412,-0.3412,-0.3412,-0.3412,-0.3412,-0.3412,-0.3412,-0.3412,-0.3412,-0.3837,-0.3837,-0.3412,-0.3837,-0.3868,-0.3493,-0.3499,-0.3531,-0.3583,-0.3587,-0.3589,-0.3589,-0.3589,-0.3589,-0.3589,-0.3589,-0.4035,-0.4933,-0.4933,-0.4933,-0.4933,-0.4933,-0.4709,-0.4259,0.0,0.0,0.0,0.0,0.0,0.0,0.0,0.0,0.0,-0.5082,-0.2153,0.0,0.0,0.0,0.0,0.0,0.0,-0.1512,-0.5206,-0.5371,0.0,0.0,0.0,0.0,0.0,0.0,0.0,0.0,0.0,0.0,0.0,0.0,0.0,0.0,0.0,0.0,0.0,0.0,-0.2701,-0.2714,-0.2698,0.0,-0.2527,-0.1693,-0.1866,-0.2721,-0.2234,-0.1731,-0.1393,-0.1408,-0.0883,0.0,0.0,-0.3199,-0.4979,0.0,-0.4822,-0.9482,0.0,0.0,0.0,-0.3911,0.0,0.0,0.0,-0.2954,-0.2975,-0.3039,-0.3052,-0.3062,-0.3092,-0.3122,-0.3153,-0.3183,-0.3212,-0.3235,-0.3251,-0.3279,-0.331,-0.334,-0.337,-0.3395,-0.3411,-0.3412,-0.3412,-0.3412,-0.3412,-0.3412,-0.3412,-0.3412,-0.3412,-0.3412,-0.3412,-0.3412,-0.3412,-0.3412,-0.3442,-0.3502,-0.3502,-0.3534,-0.3589,-0.3589,-0.3589,-0.3589,-0.3589,-0.3589,-0.3589,-0.3589,-0.3589,-0.3589,-0.3589,-0.3589,-0.3589,-0.3589,-0.3589,-0.3589,0.0,0.0,0.0,0.0,0.0,0.0,0.0,0.0,0.0,0.0,0.0,0.0,0.0,0.0,0.0,0.0,0.0,0.0,0.0,0.0,0.0,0.0,-0.5538,-0.9254,0.0,0.0,0.0,0.0,-1.009,-1.0095,0.0,0.0,0.0,0.0,0.0,0.0,0.0,0.0,0.0,-0.2736,0.0,-0.2712,-0.2545,-0.1539,-0.1545,-0.2236,-0.226,-0.1229,-0.0178,-0.179,0.0,-0.0,-0.0359,-0.1436,0.0,0.0,0.0,0.0,0.0,0.0,0.0,0.0,0.0,-0.2887,0.0,0.0,0.0,-0.3041,-0.3052,-0.3059,-0.3084,-0.3118,-0.3146,-0.316,-0.3201,-0.3227,-0.3215,-0.3245,-0.3279,-0.3309,-0.3344,-0.3377,-0.34,-0.3408,-0.3412,-0.3412,-0.3412,-0.3412,-0.3412,-0.3412,-0.3412,-0.3412,-0.3412,-0.3412,-0.3412,-0.3412,-0.3442,-0.3502,-0.3502,-0.3534,-0.3589,-0.3589,-0.3589,-0.3589,-0.3589,-0.3589,-0.3589,-0.3589,-0.3589,-0.3589,-0.3589,-0.3589,-0.3589,-0.3589,-0.3589,-0.3589,0.0,0.0,0.0,0.0,0.0,0.0,0.0,0.0,0.0,0.0,0.0,0.0,0.0,0.0,0.0,0.0,0.0,0.0,0.0,0.0,0.0,0.0,0.0,0.0,-0.6041,0.0,0.0,0.0,-0.7562,-0.757,-1.0645,-0.7073,0.0,0.0,-0.1514,0.0,0.0,0.0,-0.2735,0.0,-0.2763,-0.2773,0.0,-0.0868,-0.0174,-0.0348,-0.0351,-0.0178,-0.0,0.0,-0.018,-0.0359,0.0,-0.1616,0.0,0.0,0.0,0.0,0.0,0.0,0.0,0.0,-0.2887,0.0,0.0,0.0,-0.3011,-0.3046,0.0,-0.3054,-0.3056,0.0,0.0,-0.3076,-0.3159,-0.3212,-0.316,-0.3201,-0.3246,-0.3277,-0.3332,-0.3367,-0.3371,-0.3396,-0.3412,-0.3412,-0.3412,-0.3412,-0.3412,-0.3412,-0.3412,-0.3412,-0.3412,-0.3412,-0.3412,-0.3412,-0.3442,-0.3502,-0.3502,-0.3534,-0.3589,-0.3589,-0.3589,-0.3589,-0.3589,-0.3589,-0.3589,-0.3589,-0.3589,-0.3589,-0.3589,-0.3589,-0.3589,-0.3589,-0.3589,-0.3589,0.0,0.0,0.0,0.0,0.0,0.0,0.0,0.0,0.0,0.0,0.0,0.0,0.0,0.0,0.0,0.0,0.0,0.0,0.0,0.0,0.0,0.0,0.0,0.0,0.0,0.0,0.0,0.0,-0.3023,-0.3024,-0.438,-0.303,-0.1515,0.0,-0.0337,0.0,-0.1189,0.0,0.0,0.0,0.0,0.0,0.0,-0.1936,-0.1057,0.0,0.0,0.0,0.0,0.0,0.0,0.0,0.0,0.0,0.0,0.0,0.0,0.0,0.0,0.0,0.0,0.0,0.0,0.0,-0.2981,0.0,-0.3016,0.0,0.0,0.0,0.0,0.0,0.0,0.0,-0.3175,-0.3221,-0.3197,-0.3215,-0.3645,-0.4902,-0.414,-0.3354,-0.3389,-0.3404,-0.3412,-0.3412,-0.3412,-0.3412,-0.3412,-0.3412,-0.3412,-0.3412,-0.3412,-0.3412,-0.3412,-0.3429,-0.346,-0.3502,-0.352,-0.3549,-0.3589,-0.3589,-0.3589,-0.3589,-0.3589,-0.3589,-0.3589,-0.3589,-0.3589,-0.3589,-0.3589,-0.3589,-0.3589,-0.3589,-0.3589,-0.3589,0.0,0.0,0.0,0.0,0.0,0.0,0.0,0.0,0.0,0.0,0.0,0.0,0.0,0.0,0.0,0.0,0.0,0.0,0.0,0.0,0.0,0.0,0.0,0.0,0.0,0.0,0.0,0.0,0.0,0.0,0.0,0.0,0.0,0.0,0.0,0.0,-0.0172,0.0,0.0,-0.2652,-0.2128,-0.1966,-0.2162,-0.2139,-0.1251,0.0,0.0,0.0,0.0,0.0,0.0,0.0,0.0,0.0,0.0,0.0,0.0,0.0,0.0,0.0,0.0,0.0,0.0,0.0,0.0,0.0,0.0,0.0,0.0,0.0,0.0,0.0,-0.3137,-0.312,0.0,-0.3224,-0.3209,-0.322,-0.3844,-0.5494,-0.4736,-0.4592,-0.5084,-0.5315,-0.5111,-0.4474,-0.4261,-0.4048,-0.3412,-0.3412,-0.3412,-0.3412,-0.3412,-0.3412,-0.3412,-0.3442,-0.3472,-0.3502,-0.3531,-0.3562,-0.3589,-0.3589,-0.3589,-0.3589,-0.3589,-0.3589,-0.3589,-0.3589,-0.3589,-0.3589,-0.3589,-0.3589,-0.3589,-0.3589,-0.3589,-0.3589,0.0,0.0,0.0,0.0,0.0,0.0,0.0,0.0,0.0,0.0,0.0,0.0,0.0,0.0,0.0,0.0,0.0,0.0,0.0,0.0,0.0,0.0,0.0,0.0,0.0,0.0,0.0,0.0,0.0,0.0,0.0,0.0,0.0,0.0,0.0,0.0,-0.0,-0.0,-0.106,-0.2476,-0.0715,-0.0,-0.0182,0.0,-0.0,0.0,0.0,0.0,0.0,0.0,0.0,0.0,0.0,0.0,0.0,0.0,0.0,0.0,0.0,0.0,0.0,-0.0185,0.0,0.0,0.0,0.0,-0.3051,0.0,0.0,0.0,0.0,0.0,0.0,0.0,-0.3153,0.0,0.0,-0.3194,-0.3231,-0.3231,-0.533,-0.7481,-0.9635,-0.9932,-0.9137,-0.6804,-0.6592,-0.5747,-0.3411,-0.3412,-0.3412,-0.3412,-0.3412,-0.3412,-0.3412,-0.3442,-0.3472,-0.3502,-0.3531,-0.3562,-0.3589,-0.3589,-0.3589,-0.3589,-0.3589,-0.3589,-0.3589,-0.3589,-0.3589,-0.3589,-0.3589,-0.3589,-0.3589,-0.3589,-0.3589,-0.3589,0.0,0.0,0.0,0.0,0.0,0.0,0.0,0.0,0.0,0.0,0.0,0.0,0.0,0.0,0.0,0.0,0.0,0.0,0.0,0.0,0.0,0.0,0.0,0.0,0.0,0.0,0.0,0.0,0.0,0.0,0.0,0.0,0.0,0.0,0.0,0.0,0.0,0.0,0.0,0.0,0.0,0.0,0.0,0.0,0.0,0.0,0.0,0.0,0.0,0.0,0.0,0.0,0.0,0.0,0.0,0.0,0.0,0.0,0.0,0.0,0.0,0.0,0.0,0.0,0.0,0.0,0.0,0.0,0.0,0.0,0.0,0.0,-0.3167,-0.3145,-0.3191,-0.3223,0.0,-0.3217,-0.3633,-0.5242,-0.8546,-1.0099,-0.7961,-0.7786,-0.6977,-0.4683,-0.4473,-0.4261,-0.3412,-0.3412,-0.3412,-0.3412,-0.3412,-0.3412,-0.3412,-0.3463,-0.3493,-0.3502,-0.3551,-0.358,-0.3589,-0.3589,-0.3589,-0.3589,-0.3589,-0.3589,-0.3589,-0.3589,-0.3589,-0.3589,-0.3589,-0.3589,-0.3589,-0.3589,-0.3589,-0.3594,0.0,0.0,0.0,0.0,0.0,0.0,0.0,0.0,0.0,0.0,0.0,0.0,0.0,0.0,0.0,0.0,0.0,0.0,0.0,0.0,0.0,0.0,0.0,0.0,0.0,0.0,0.0,0.0,0.0,0.0,0.0,0.0,0.0,0.0,0.0,0.0,0.0,0.0,0.0,0.0,0.0,0.0,0.0,0.0,0.0,0.0,0.0,0.0,0.0,0.0,0.0,0.0,0.0,0.0,0.0,0.0,0.0,0.0,0.0,0.0,0.0,0.0,0.0,0.0,0.0,0.0,-0.0193,0.0,0.0,0.0,0.0,0.0,-0.3189,-0.3189,-0.3213,-0.3231,0.0,-0.3835,-0.4839,-0.6246,-0.8926,-0.9849,-0.7922,-0.7748,-0.6952,-0.4682,-0.4685,-0.4261,-0.3411,-0.3412,-0.3412,-0.3412,-0.3412,-0.3412,-0.3412,-0.3472,-0.3502,-0.3502,-0.3562,-0.3589,-0.3589,-0.3589,-0.3589,-0.3589,-0.3589,-0.3589,-0.3589,-0.3589,-0.3589,-0.3589,-0.3589,-0.3589,-0.3589,-0.3589,-0.3596,-0.3607,0.0,0.0,0.0,0.0,0.0,0.0,0.0,0.0,0.0,0.0,0.0,0.0,0.0,0.0,0.0,0.0,0.0,0.0,0.0,0.0,0.0,0.0,0.0,0.0,0.0,0.0,0.0,0.0,0.0,0.0,0.0,0.0,0.0,0.0,0.0,0.0,0.0,0.0,0.0,0.0,0.0,0.0,0.0,0.0,0.0,0.0,0.0,0.0,0.0,0.0,0.0,0.0,0.0,0.0,0.0,0.0,0.0,0.0,0.0,0.0,0.0,0.0,0.0,0.0,0.0,0.0,0.0,0.0,0.0,0.0,0.0,0.0,0.0,-0.319,-0.3215,-0.3232,-0.3231,-0.504,-0.6246,-0.6246,-0.6502,-0.7377,-0.9502,-0.9792,-0.9042,-0.6799,-0.6592,-0.5744,-0.3411,-0.3412,-0.3412,-0.3412,-0.3412,-0.3412,-0.3412,-0.3472,-0.3502,-0.3502,-0.3562,-0.3589,-0.3589,-0.3589,-0.3589,-0.3589,-0.3589,-0.3589,-0.3589,-0.3589,-0.3589,-0.3589,-0.3589,-0.3589,-0.3594,-0.3594,-0.3611,-0.3636,0.0,0.0,0.0,0.0,0.0,0.0,0.0,0.0,0.0,0.0,0.0,0.0,0.0,0.0,0.0,0.0,0.0,0.0,0.0,0.0,0.0,0.0,0.0,0.0,0.0,0.0,0.0,0.0,0.0,0.0,0.0,0.0,0.0,0.0,0.0,0.0,0.0,0.0,0.0,0.0,0.0,0.0,0.0,0.0,0.0,0.0,0.0,0.0,0.0,0.0,0.0,0.0,0.0,0.0,0.0,0.0,0.0,0.0,0.0,0.0,0.0,0.0,0.0,0.0,0.0,0.0,0.0,0.0,0.0,0.0,0.0,0.0,0.0,0.0,-0.2623,-0.3234,0.0,0.0,0.0,-0.4035,-0.4069,-0.4925,-0.7238,-0.7469,-0.6486,-0.4469,-0.4261,-0.4048,-0.3412,-0.3412,-0.3412,-0.3412,-0.3412,-0.3412,-0.3412,-0.3472,-0.3502,-0.3502,-0.3562,-0.3589,-0.3589,-0.3589,-0.3589,-0.3589,-0.3589,-0.3589,-0.3589,-0.3589,-0.3589,-0.3589,-0.3589,-0.3604,-0.3625,-0.3625,-0.3628,-0.3643,0.0,0.0,0.0,0.0,0.0,0.0,0.0,0.0,0.0,0.0,0.0,0.0,0.0,0.0,0.0,0.0,0.0,0.0,0.0,0.0,0.0,0.0,0.0,0.0,0.0,0.0,0.0,0.0,0.0,0.0,0.0,0.0,0.0,0.0,0.0,0.0,0.0,0.0,0.0,0.0,0.0,0.0,0.0,0.0,0.0,0.0,0.0,0.0,0.0,0.0,0.0,0.0,0.0,0.0,0.0,0.0,0.0,0.0,0.0,0.0,0.0,0.0,0.0,0.0,0.0,0.0,0.0,0.0,0.0,0.0,0.0,0.0,0.0,0.0,0.0,0.0,0.0,0.0,0.0,0.0,-0.3245,-0.3681,-0.497,-0.5202,-0.4609,-0.3389,-0.4251,-0.4474,-0.3411,-0.4261,-0.4474,-0.3412,-0.3412,-0.3412,-0.3412,-0.3472,-0.3502,-0.3502,-0.3562,-0.3589,-0.3589,-0.3589,-0.3589,-0.3589,-0.3589,-0.3589,-0.3589,-0.3589,-0.3589,-0.3589,-0.3604,-0.3621,-0.3639,-0.3667,-0.3674,-0.3681,0.0,0.0,0.0,0.0,0.0,0.0,0.0,0.0,0.0,0.0,0.0,0.0,0.0,0.0,0.0,0.0,0.0,0.0,0.0,0.0,0.0,0.0,0.0,0.0,0.0,0.0,0.0,0.0,0.0,0.0,0.0,0.0,0.0,0.0,0.0,0.0,0.0,0.0,0.0,0.0,0.0,0.0,0.0,0.0,0.0,0.0,0.0,0.0,0.0,0.0,0.0,0.0,0.0,0.0,0.0,0.0,0.0,0.0,0.0,0.0,0.0,0.0,0.0,0.0,0.0,0.0,0.0,0.0,0.0,0.0,0.0,0.0,0.0,0.0,0.0,0.0,0.0,0.0,0.0,0.0,0.0,0.0,-0.331,-0.3343,-0.3363,-0.3371,-0.551,-0.5744,-0.3624,-0.5534,-0.5744,-0.3411,-0.3412,-0.3412,-0.3412,-0.3472,-0.3502,-0.3502,-0.3562,-0.3589,-0.3589,-0.3589,-0.3589,-0.3589,-0.3589,-0.3589,-0.3589,-0.3589,-0.3594,-0.3596,-0.3625,-0.3639,-0.3652,-0.3705,-0.373,-0.3733,0.0,0.0,0.0,0.0,0.0,0.0,0.0,0.0,0.0,0.0,0.0,0.0,0.0,0.0,0.0,0.0,0.0,0.0,0.0,0.0,0.0,0.0,0.0,0.0,0.0,0.0,0.0,0.0,0.0,0.0,0.0,0.0,0.0,0.0,0.0,0.0,0.0,0.0,0.0,0.0,0.0,0.0,0.0,0.0,0.0,0.0,0.0,0.0,0.0,0.0,0.0,0.0,0.0,0.0,0.0,0.0,0.0,0.0,0.0,0.0,0.0,0.0,0.0,0.0,0.0,0.0,0.0,0.0,0.0,0.0,0.0,0.0,0.0,0.0,0.0,0.0,0.0,0.0,0.0,0.0,0.0,-0.3326,-0.3287,-0.3311,-0.335,-0.34,-0.553,-0.5744,-0.3624,-0.5534,-0.5744,-0.3411,-0.3412,-0.3412,-0.3412,-0.3472,-0.3502,-0.3502,-0.3562,-0.3589,-0.3589,-0.3589,-0.3589,-0.3589,-0.3589,-0.3589,-0.3589,-0.3589,-0.3604,-0.3628,-0.3632,-0.3667,-0.3712,-0.3723,-0.3744,-0.3764,0.0,0.0,0.0,0.0,0.0,0.0,0.0,0.0,0.0,0.0,0.0,0.0,0.0,0.0,0.0,0.0,0.0,0.0,0.0,0.0,0.0,0.0,0.0,0.0,0.0,0.0,0.0,0.0,0.0,0.0,0.0,0.0,0.0,0.0,0.0,0.0,0.0,0.0,0.0,0.0,0.0,0.0,0.0,0.0,0.0,0.0,0.0,0.0,0.0,0.0,0.0,0.0,0.0,0.0,0.0,0.0,0.0,0.0,0.0,0.0,0.0,0.0,0.0,0.0,0.0,0.0,0.0,0.0,0.0,0.0,0.0,0.0,0.0,0.0,0.0,0.0,0.0,0.0,0.0,0.0,0.0,0.0,0.0,-0.3336,-0.3356,-0.3386,-0.5519,-0.5744,-0.3624,-0.5534,-0.5744,-0.3411,-0.3412,-0.3412,-0.3412,-0.3472,-0.3502,-0.3502,-0.3562,-0.3589,-0.3589,-0.3589,-0.3589,-0.3589,-0.3589,-0.3589,-0.3589,-0.3589,-0.3607,-0.3636,-0.3652,-0.3688,-0.373,-0.3744,-0.3757,-0.3772,0.0,0.0,0.0,0.0,0.0,0.0,0.0,0.0,0.0,0.0,0.0,0.0,0.0,0.0,0.0,0.0,0.0,0.0,0.0,0.0,0.0,0.0,0.0,0.0,0.0,0.0,0.0,0.0,0.0,0.0,0.0,0.0,0.0,0.0,0.0,0.0,0.0,0.0,0.0,0.0,0.0,0.0,0.0,0.0,0.0,0.0,0.0,0.0,0.0,0.0,0.0,0.0,0.0,0.0,0.0,0.0,0.0,0.0,0.0,0.0,0.0,0.0,0.0,0.0,0.0,0.0,0.0,0.0,0.0,0.0,0.0,0.0,0.0,0.0,0.0,0.0,0.0,0.0,0.0,0.0,0.0,0.0,-0.2944,-0.295,-0.3165,-0.3377,-0.5512,-0.5744,-0.3624,-0.5534,-0.5744,-0.3411,-0.3412,-0.3412,-0.3412,-0.3472,-0.3502,-0.3502,-0.3562,-0.3589,-0.3589,-0.3589,-0.3589,-0.3589,-0.3589,-0.3589,-0.3589,-0.3596,-0.3618,-0.3649,-0.3677,-0.3708,-0.3739,-0.3761,-0.3772,-0.3772,0.0,0.0,0.0,0.0,0.0,0.0,0.0,0.0,0.0,0.0,0.0,0.0,0.0,0.0,0.0,0.0,0.0,0.0,0.0,0.0,0.0,0.0,0.0,0.0,0.0,0.0,0.0,0.0,0.0,0.0,0.0,0.0,0.0,0.0,0.0,0.0,0.0,0.0,0.0,0.0,0.0,0.0,0.0,0.0,0.0,0.0,0.0,0.0,0.0,0.0,0.0,0.0,0.0,0.0,0.0,0.0,0.0,0.0,0.0,0.0,0.0,0.0,0.0,0.0,0.0,0.0,0.0,0.0,0.0,0.0,0.0,0.0,0.0,0.0,0.0,0.0,0.0,0.0,0.0,0.0,0.0,0.0,-0.1894,-0.1907,-0.2342,-0.3407,-0.5532,-0.5744,-0.3624,-0.5534,-0.5744,-0.3411,-0.3412,-0.3412,-0.3412,-0.3472,-0.3502,-0.3502,-0.3562,-0.3589,-0.3589,-0.3589,-0.3589,-0.3589,-0.3589,-0.3589,-0.3594,-0.3621,-0.3649,-0.3681,-0.3708,-0.3739,-0.3768,-0.3772,-0.3772,-0.3772,0.0,0.0,0.0,0.0,0.0,0.0,0.0,0.0,0.0,0.0,0.0,0.0,0.0,0.0,0.0,0.0,0.0,0.0,0.0,0.0,0.0,0.0,0.0,0.0,0.0,0.0,0.0,0.0,0.0,0.0,0.0,0.0,0.0,0.0,0.0,0.0,0.0,0.0,0.0,0.0,0.0,0.0,0.0,0.0,0.0,0.0,0.0,0.0,0.0,0.0,0.0,0.0,0.0,0.0,0.0,0.0,0.0,0.0,0.0,0.0,0.0,0.0,0.0,0.0,0.0,0.0,0.0,0.0,0.0,0.0,0.0,0.0,0.0,0.0,0.0,0.0,0.0,0.0,0.0,0.0,0.0,0.0,0.0,-0.1702,-0.2132,-0.3412,-0.4261,-0.4261,-0.3411,-0.4261,-0.4261,-0.3412,-0.3412,-0.342,-0.344,-0.3482,-0.3509,-0.3527,-0.3569,-0.3589,-0.3589,-0.3589,-0.3589,-0.3589,-0.3589,-0.36,-0.3618,-0.3632,-0.3663,-0.3708,-0.3723,-0.3744,-0.3772,-0.3772,-0.3772,-0.3772,0.0,0.0,0.0,0.0,0.0,0.0,0.0,0.0,0.0,0.0,0.0,0.0,0.0,0.0,0.0,0.0,0.0,0.0,0.0,0.0,0.0,0.0,0.0,0.0,0.0,0.0,0.0,0.0,0.0,0.0,0.0,0.0,0.0,0.0,0.0,0.0,0.0,0.0,0.0,0.0,0.0,0.0,0.0,0.0,0.0,0.0,0.0,0.0,0.0,0.0,0.0,0.0,0.0,0.0,0.0,0.0,0.0,0.0,0.0,0.0,0.0,0.0,0.0,0.0,0.0,0.0,0.0,0.0,0.0,0.0,0.0,0.0,0.0,0.0,0.0,0.0,0.0,0.0,0.0,0.0,0.0,-0.0213,-0.1066,-0.1066,-0.1492,-0.2345,-0.2985,-0.3412,-0.3412,-0.3412,-0.3412,-0.3412,-0.3412,-0.3426,-0.3457,-0.3487,-0.3516,-0.3544,-0.3576,-0.3589,-0.3589,-0.3589,-0.3589,-0.3589,-0.36,-0.3614,-0.3636,-0.3656,-0.3688,-0.3726,-0.3737,-0.3754,-0.3772,-0.3772,-0.3772,-0.3772,0.0,0.0,0.0,0.0,0.0,0.0,0.0,0.0,0.0,0.0,0.0,0.0,0.0,0.0,0.0,0.0,0.0,0.0,0.0,0.0,0.0,0.0,0.0,0.0,0.0,0.0,0.0,0.0,0.0,0.0,0.0,0.0,0.0,0.0,0.0,0.0,0.0,0.0,0.0,0.0,0.0,0.0,0.0,0.0,0.0,0.0,0.0,0.0,0.0,0.0,0.0,0.0,0.0,0.0,0.0,0.0,0.0,0.0,0.0,0.0,0.0,0.0,0.0,0.0,0.0,0.0,0.0,0.0,0.0,0.0,0.0,0.0,0.0,0.0,0.0,0.0,0.0,0.0,0.0,0.0,0.0,-0.0,-0.0,-0.0,-0.0,-0.0,-0.2132,-0.3412,-0.3412,-0.3412,-0.3412,-0.3412,-0.3412,-0.3426,-0.3457,-0.3487,-0.3516,-0.3544,-0.3576,-0.3589,-0.3589,-0.3589,-0.3589,-0.3589,-0.3621,-0.3636,-0.3639,-0.3701,-0.3726,-0.373,-0.3757,-0.3772,-0.3772,-0.3772,-0.3772,-0.3772,0.0,0.0,0.0,0.0,0.0,0.0,0.0,0.0,0.0,0.0,0.0,0.0,0.0,0.0,0.0,0.0,0.0,0.0,0.0,0.0,0.0,0.0,0.0,0.0,0.0,0.0,0.0,0.0,0.0,0.0,0.0,0.0,0.0,0.0,0.0,0.0,0.0,0.0,0.0,0.0,0.0,0.0,0.0,0.0,0.0,0.0,0.0,0.0,0.0,0.0,0.0,0.0,0.0,0.0,0.0,0.0,0.0,0.0,0.0,0.0,0.0,0.0,0.0,0.0,0.0,0.0,0.0,0.0,0.0,0.0,0.0,0.0,0.0,0.0,0.0,0.0,0.0,0.0,0.0,0.0,0.0,0.0,0.0,0.0,0.0,0.0,-0.0639,-0.1492,-0.2132,-0.2345,-0.2558,-0.3412,-0.3433,-0.3457,-0.3487,-0.352,-0.3549,-0.3576,-0.3587,-0.3589,-0.3589,-0.3589,-0.3589,-0.3589,-0.3621,-0.3645,-0.367,-0.3708,-0.3739,-0.3757,-0.3768,-0.3772,-0.3772,-0.3772,-0.3772,-0.3772,0.0,0.0,0.0,0.0,0.0,0.0,0.0,0.0,0.0,0.0,0.0,0.0,0.0,0.0,0.0,0.0,0.0,0.0,0.0,0.0,0.0,0.0,0.0,0.0,0.0,0.0,0.0,0.0,0.0,0.0,0.0,0.0,0.0,0.0,0.0,0.0,0.0,0.0,0.0,0.0,0.0,0.0,0.0,0.0,0.0,0.0,0.0,0.0,0.0,0.0,0.0,0.0,0.0,0.0,0.0,0.0,0.0,0.0,0.0,0.0,0.0,0.0,0.0,0.0,0.0,0.0,0.0,0.0,0.0,0.0,0.0,0.0,0.0,0.0,0.0,0.0,0.0,0.0,0.0,0.0,0.0,0.0,0.0,0.0,0.0,0.0,0.0,-0.0213,-0.1066,-0.1066,-0.1494,-0.2142,-0.3016,-0.3478,-0.352,-0.3094,-0.2893,-0.2917,-0.3365,-0.3589,-0.3589,-0.3589,-0.3596,-0.3607,-0.3639,-0.367,-0.3701,-0.373,-0.3754,-0.3772,-0.3772,-0.3772,-0.3772,-0.3772,-0.3772,-0.3772,0.0,0.0,0.0,0.0,0.0,0.0,0.0,0.0,0.0,0.0,0.0,0.0,0.0,0.0,0.0,0.0,0.0,0.0,0.0,0.0,0.0,0.0,0.0,0.0,0.0,0.0,0.0,0.0,0.0,0.0,0.0,0.0,0.0,0.0,0.0,0.0,0.0,0.0,0.0,0.0,0.0,0.0,0.0,0.0,0.0,0.0,0.0,0.0,0.0,0.0,0.0,0.0,0.0,0.0,0.0,0.0,0.0,0.0,0.0,0.0,0.0,0.0,0.0,0.0,0.0,0.0,0.0,0.0,0.0,0.0,0.0,0.0,0.0,0.0,0.0,0.0,0.0,0.0,0.0,0.0,0.0,0.0,0.0,0.0,0.0,0.0,0.0,0.0,0.0,0.0,0.0,0.0,-0.2162,-0.3489,-0.3547,-0.2441,-0.1782,-0.1796,-0.2917,-0.3589,-0.3589,-0.3594,-0.3607,-0.3639,-0.367,-0.3701,-0.373,-0.3757,-0.3772,-0.3772,-0.3772,-0.3772,-0.3772,-0.3772,-0.3772,-0.3772,0.0,0.0,0.0,0.0,0.0,0.0,0.0,0.0,0.0,0.0,0.0,0.0,0.0,0.0,0.0,0.0,0.0,0.0,0.0,0.0,0.0,0.0,0.0,0.0,0.0,0.0,0.0,0.0,0.0,0.0,0.0,0.0,0.0,0.0,0.0,0.0,0.0,0.0,0.0,0.0,0.0,0.0,0.0,0.0,0.0,0.0,0.0,0.0,0.0,0.0,0.0,0.0,0.0,0.0,0.0,0.0,0.0,0.0,0.0,0.0,0.0,0.0,0.0,0.0,0.0,0.0,0.0,0.0,0.0,0.0,0.0,0.0,0.0,0.0,0.0,0.0,0.0,0.0,0.0,0.0,0.0,0.0,0.0,0.0,0.0,0.0,0.0,0.0,0.0,0.0,0.0,0.0,-0.2175,-0.3509,-0.3326,-0.3349,-0.2241,-0.0449,-0.2692,-0.3589,-0.3589,-0.3614,-0.3628,-0.3639,-0.3692,-0.3719,-0.373,-0.3757,-0.3772,-0.3772,-0.3772,-0.3772,-0.3772,-0.3772,-0.3772,-0.3772,0.0,0.0,0.0,0.0,0.0,0.0,0.0,0.0,0.0,0.0,0.0,0.0,0.0,0.0,0.0,0.0,0.0,0.0,0.0,0.0,0.0,0.0,0.0,0.0,0.0,0.0,0.0,0.0,0.0,0.0,0.0,0.0,0.0,0.0,0.0,0.0,0.0,0.0,0.0,0.0,0.0,0.0,0.0,0.0,0.0,0.0,0.0,0.0,0.0,0.0,0.0,0.0,0.0,0.0,0.0,0.0,0.0,0.0,0.0,0.0,0.0,0.0,0.0,0.0,0.0,0.0,0.0,0.0,0.0,0.0,0.0,0.0,0.0,0.0,0.0,0.0,0.0,0.0,0.0,0.0,0.0,0.0,0.0,0.0,0.0,0.0,0.0,0.0,0.0,0.0,0.0,0.0,-0.1095,-0.1768,-0.1784,-0.2017,-0.1347,-0.0,-0.1347,-0.2467,-0.3589,-0.3621,-0.3643,-0.366,-0.3705,-0.3733,-0.3748,-0.3764,-0.3772,-0.3772,-0.3772,-0.3772,-0.3772,-0.3772,-0.3772,-0.3772,0.0,0.0,0.0,0.0,0.0,0.0,0.0,0.0,0.0,0.0,0.0,0.0,0.0,0.0,0.0,0.0,0.0,0.0,0.0,0.0,0.0,0.0,0.0,0.0,0.0,0.0,0.0,0.0,0.0,0.0,0.0,0.0,0.0,0.0,0.0,0.0,0.0,0.0,0.0,0.0,0.0,0.0,0.0,0.0,0.0,0.0,0.0,0.0,0.0,0.0,0.0,0.0,0.0,0.0,0.0,0.0,0.0,0.0,0.0,0.0,0.0,0.0,0.0,0.0,0.0,0.0,0.0,0.0,0.0,0.0,0.0,0.0,0.0,0.0,0.0,0.0,0.0,0.0,0.0,0.0,0.0,0.0,0.0,0.0,0.0,0.0,0.0,0.0,0.0,0.0,0.0,0.0,0.0,0.0,0.0,0.0,0.0,0.0,0.0,-0.1122,-0.3147,-0.3401,-0.366,-0.3688,-0.3719,-0.3748,-0.3772,-0.3772,-0.3772,-0.3772,-0.3772,-0.3772,-0.3772,-0.3772,-0.3772,-0.3772,0.0,0.0,0.0,0.0,0.0,0.0,0.0,0.0,0.0,0.0,0.0,0.0,0.0,0.0,0.0,0.0,0.0,0.0,0.0,0.0,0.0,0.0,0.0,0.0,0.0,0.0,0.0,0.0,0.0,0.0,0.0,0.0,0.0,0.0,0.0,0.0,0.0,0.0,0.0,0.0,0.0,0.0,0.0,0.0,0.0,0.0,0.0,0.0,0.0,0.0,0.0,0.0,0.0,0.0,0.0,0.0,0.0,0.0,0.0,0.0,0.0,0.0,0.0,0.0,0.0,0.0,0.0,0.0,0.0,0.0,0.0,0.0,0.0,0.0,0.0,0.0,0.0,0.0,0.0,0.0,0.0,0.0,0.0,0.0,0.0,0.0,0.0,0.0,0.0,0.0,0.0,0.0,0.0,0.0,0.0,0.0,0.0,0.0,0.0,-0.0225,-0.0681,-0.2744,-0.3692,-0.3719,-0.375,-0.3768,-0.3772,-0.3772,-0.3772,-0.3772,-0.3772,-0.3772,-0.3772,-0.3772,-0.3772,-0.3772,0.0,0.0,0.0,0.0,0.0,0.0,0.0,0.0,0.0,0.0,0.0,0.0,0.0,0.0,0.0,0.0,0.0,0.0,0.0,0.0,0.0,0.0,0.0,0.0,0.0,0.0,0.0,0.0,0.0,0.0,0.0,0.0,0.0,0.0,0.0,0.0,0.0,0.0,0.0,0.0,0.0,0.0,0.0,0.0,0.0,0.0,0.0,0.0,0.0,0.0,0.0,0.0,0.0,0.0,0.0,0.0,0.0,0.0,0.0,0.0,0.0,0.0,0.0,0.0,0.0,0.0,0.0,0.0,0.0,0.0,0.0,0.0,0.0,0.0,0.0,0.0,0.0,0.0,0.0,0.0,0.0,0.0,0.0,0.0,0.0,0.0,0.0,0.0,0.0,0.0,0.0,0.0,0.0,0.0,0.0,0.0,0.0,0.0,0.0,0.0,-0.0,-0.1151,-0.2551,-0.3726,-0.3757,-0.3772,-0.3772,-0.3772,-0.3772,-0.3772,-0.3772,-0.3772,-0.3772,-0.3772,-0.3772,-0.3772,0.0,0.0,0.0,0.0,0.0,0.0,0.0,0.0,0.0,0.0,0.0,0.0,0.0,0.0,0.0,0.0,0.0,0.0,0.0,0.0,0.0,0.0,0.0,0.0,0.0,0.0,0.0,0.0,0.0,0.0,0.0,0.0,0.0,0.0,0.0,0.0,0.0,0.0,0.0,0.0,0.0,0.0,0.0,0.0,0.0,0.0,0.0,0.0,0.0,0.0,0.0,0.0,0.0,0.0,0.0,0.0,0.0,0.0,0.0,0.0,0.0,0.0,0.0,0.0,0.0,0.0,0.0,0.0,0.0,0.0,0.0,0.0,0.0,0.0,0.0,0.0,0.0,0.0,0.0,0.0,0.0,0.0,0.0,0.0,0.0,0.0,0.0,0.0,0.0,0.0,0.0,0.0,0.0,0.0,0.0,0.0,0.0,0.0,0.0,0.0,0.0,0.0,-0.1165,-0.327,-0.3761,-0.3772,-0.3772,-0.3772,-0.3772,-0.3772,-0.3772,-0.3772,-0.3772,-0.3772,-0.3772,-0.3772,0.0,0.0,0.0,0.0,0.0,0.0,0.0,0.0,0.0,0.0,0.0,0.0,0.0,0.0,0.0,0.0,0.0,0.0,0.0,0.0,0.0,0.0,0.0,0.0,0.0,0.0,0.0,0.0,0.0,0.0,0.0,0.0,0.0,0.0,0.0,0.0,0.0,0.0,0.0,0.0,0.0,0.0,0.0,0.0,0.0,0.0,0.0,0.0,0.0,0.0,0.0,0.0,0.0,0.0,0.0,0.0,0.0,0.0,0.0,0.0,0.0,0.0,0.0,0.0,0.0,0.0,0.0,0.0,0.0,0.0,0.0,0.0,0.0,0.0,0.0,0.0,0.0,0.0,0.0,0.0,0.0,0.0,0.0,0.0,0.0,0.0,0.0,0.0,0.0,0.0,0.0,0.0,0.0,0.0,0.0,0.0,0.0,0.0,0.0,0.0,0.0,0.0,-0.0701,-0.2119,-0.33,-0.3772,-0.3772,-0.3772,-0.3772,-0.3772,-0.3772,-0.3772,-0.3772,-0.3772,-0.3772,-0.3772,0.0,0.0,0.0,0.0,0.0,0.0,0.0,0.0,0.0,0.0,0.0,0.0,0.0,0.0,0.0,0.0,0.0,0.0,0.0,0.0,0.0,0.0,0.0,0.0,0.0,0.0,0.0,0.0,0.0,0.0,0.0,0.0,0.0,0.0,0.0,0.0,0.0,0.0,0.0,0.0,0.0,0.0,0.0,0.0,0.0,0.0,0.0,0.0,0.0,0.0,0.0,0.0,0.0,0.0,0.0,0.0,0.0,0.0,0.0,0.0,0.0,0.0,0.0,0.0,0.0,0.0,0.0,0.0,0.0,0.0,0.0,0.0,0.0,0.0,0.0,0.0,0.0,0.0,0.0,0.0,0.0,0.0,0.0,0.0,0.0,0.0,0.0,0.0,0.0,0.0,0.0,0.0,0.0,0.0,0.0,0.0,0.0,0.0,0.0,0.0,0.0,0.0,-0.0235,-0.0943,-0.2828,-0.3772,-0.3772,-0.3772,-0.3772,-0.3772,-0.3772,-0.3772,-0.3772,-0.3772,-0.3772,-0.3772,0.4255,0.3193,0.1704,0.0213,0.0,0.0,0.0,0.0,0.0,0.0,0.0,0.0,0.0,0.0,0.0,0.0,0.0,0.0,0.0,0.0,0.0,0.0,0.0,0.0,0.0,0.0,0.0,0.0,0.0,0.0,0.0,0.0,0.0,0.0,0.0,0.0,0.0,0.0,0.0,0.0,0.0,0.0,0.0,0.0,0.0,0.0,0.0,0.0,0.0,0.0,0.0,0.0,0.0,0.0,0.0,0.0,0.0,0.0,0.0,0.0,0.0,0.0,0.0,0.0,0.0,0.0,0.0,0.0,0.0,0.0,0.0,0.0,0.0,0.0,0.0,0.0,0.0,0.0,0.0,0.0,0.0,0.0,0.0,0.0,0.0,0.0,0.0,0.0,0.0,0.0,0.0,0.0,0.0,0.0,0.0,0.0,0.0,0.0,0.0,0.0,0.0,0.0,0.0,-0.0236,-0.2356,-0.3535,-0.3772,-0.3772,-0.3772,-0.3772,-0.3772,-0.3772,-0.3772,-0.3772,-0.3772,-0.3772,1.3673,1.0012,0.5528,0.0851,0.0,0.0,0.0,0.0,0.0,0.0,0.0,0.0,0.0,0.0,0.0,0.0,0.0,0.0,0.0,0.0,0.0,0.0,0.0,0.0,0.0,0.0,0.0,0.0,0.0,0.0,0.0,0.0,0.0,0.0,0.0,0.0,0.0,0.0,0.0,0.0,0.0,0.0,0.0,0.0,0.0,0.0,0.0,0.0,0.0,0.0,0.0,0.0,0.0,0.0,0.0,0.0,0.0,0.0,0.0,0.0,0.0,0.0,0.0,0.0,0.0,0.0,0.0,0.0,0.0,0.0,0.0,0.0,0.0,0.0,0.0,0.0,0.0,0.0,0.0,0.0,0.0,0.0,0.0,0.0,0.0,0.0,0.0,0.0,0.0,0.0,0.0,0.0,0.0,0.0,0.0,0.0,0.0,0.0,0.0,0.0,0.0,0.0,0.0,-0.0,-0.1414,-0.2593,-0.3772,-0.3772,-0.3772,-0.3772,-0.3772,-0.3772,-0.3772,-0.3772,-0.3772,-0.3772,1.3645,1.2581,1.1086,0.9804,0.6809,0.3614,0.0426,0.0,0.0,0.0,0.0,0.0,0.0,0.0,0.0,0.0,0.0,0.0,0.0,0.0,0.0,0.0,0.0,0.0,0.0,0.0,0.0,0.0,0.0,0.0,0.0,0.0,0.0,0.0,0.0,0.0,0.0,0.0,0.0,0.0,0.0,0.0,0.0,0.0,0.0,0.0,0.0,0.0,0.0,0.0,0.0,0.0,0.0,0.0,0.0,0.0,0.0,0.0,0.0,0.0,0.0,0.0,0.0,0.0,0.0,0.0,0.0,0.0,0.0,0.0,0.0,0.0,0.0,0.0,0.0,0.0,0.0,0.0,0.0,0.0,0.0,0.0,0.0,0.0,0.0,0.0,0.0,0.0,0.0,0.0,0.0,0.0,0.0,0.0,0.0,0.0,0.0,0.0,0.0,0.0,0.0,0.0,0.0,-0.0,-0.0471,-0.1885,-0.3772,-0.3772,-0.3772,-0.3772,-0.3772,-0.3772,-0.3772,-0.3772,-0.3772,-0.3772,1.3618,1.3635,1.3651,1.3656,1.1289,0.8508,0.5744,0.234,0.0,0.0,0.0,0.0,0.0,0.0,0.0,0.0,0.0,0.0,0.0,0.0,0.0,0.0,0.0,0.0,0.0,0.0,0.0,0.0,0.0,0.0,0.0,0.0,0.0,0.0,0.0,0.0,0.0,0.0,0.0,0.0,0.0,0.0,0.0,0.0,0.0,0.0,0.0,0.0,0.0,0.0,0.0,0.0,0.0,0.0,0.0,0.0,0.0,0.0,0.0,0.0,0.0,0.0,0.0,0.0,0.0,0.0,0.0,0.0,0.0,0.0,0.0,0.0,0.0,0.0,0.0,0.0,0.0,0.0,0.0,0.0,0.0,0.0,0.0,0.0,0.0,0.0,0.0,0.0,0.0,0.0,0.0,0.0,0.0,0.0,0.0,0.0,0.0,0.0,0.0,0.0,0.0,0.0,0.0,0.0,0.0,-0.0943,-0.2356,-0.2828,-0.33,-0.3772,-0.3772,-0.3772,-0.3772,-0.3772,-0.3772,-0.3772,1.3602,1.3602,1.3607,1.3624,1.3629,1.364,1.3667,0.6597,0.1063,0.0638,0.0213,0.0,0.0,0.0,0.0,0.0,0.0,0.0,0.0,0.0,0.0,0.0,0.0,0.0,0.0,0.0,0.0,0.0,0.0,0.0,0.0,0.0,0.0,0.0,0.0,0.0,0.0,0.0,0.0,0.0,0.0,0.0,0.0,0.0,0.0,0.0,0.0,0.0,0.0,0.0,0.0,0.0,0.0,0.0,0.0,0.0,0.0,0.0,0.0,0.0,0.0,0.0,0.0,0.0,0.0,0.0,0.0,0.0,0.0,0.0,0.0,0.0,0.0,0.0,0.0,0.0,0.0,0.0,0.0,0.0,0.0,0.0,0.0,0.0,0.0,0.0,0.0,0.0,0.0,0.0,0.0,0.0,0.0,0.0,0.0,0.0,0.0,0.0,0.0,0.0,0.0,0.0,0.0,0.0,0.0,0.0,-0.0,-0.1178,-0.2356,-0.3535,-0.3535,-0.3771,-0.3772,-0.3772,-0.3772,-0.3772,1.3602,1.3602,1.3607,1.3607,1.3607,1.3618,1.364,1.192,0.9356,0.574,0.2127,0.0,0.0,0.0,0.0,0.0,0.0,0.0,0.0,0.0,0.0,0.0,0.0,0.0,0.0,0.0,0.0,0.0,0.0,0.0,0.0,0.0,0.0,0.0,0.0,0.0,0.0,0.0,0.0,0.0,0.0,0.0,0.0,0.0,0.0,0.0,0.0,0.0,0.0,0.0,0.0,0.0,0.0,0.0,0.0,0.0,0.0,0.0,0.0,0.0,0.0,0.0,0.0,0.0,0.0,0.0,0.0,0.0,0.0,0.0,0.0,0.0,0.0,0.0,0.0,0.0,0.0,0.0,0.0,0.0,0.0,0.0,0.0,0.0,0.0,0.0,0.0,0.0,0.0,0.0,0.0,0.0,0.0,0.0,0.0,0.0,0.0,0.0,0.0,0.0,0.0,0.0,0.0,0.0,0.0,0.0,-0.0,-0.0236,-0.0471,-0.0943,-0.1885,-0.2828,-0.3772,-0.3772,-0.3772,-0.3772,1.3602,1.3602,1.3602,1.3602,1.3602,1.3607,1.3618,1.3624,1.2777,1.0424,0.7878,0.4896,0.0425,0.0,0.0,0.0,0.0,0.0,0.0,0.0,0.0,0.0,0.0,0.0,0.0,0.0,0.0,0.0,0.0,0.0,0.0,0.0,0.0,0.0,0.0,0.0,0.0,0.0,0.0,0.0,0.0,0.0,0.0,0.0,0.0,0.0,0.0,0.0,0.0,0.0,0.0,0.0,0.0,0.0,0.0,0.0,0.0,0.0,0.0,0.0,0.0,0.0,0.0,0.0,0.0,0.0,0.0,0.0,0.0,0.0,0.0,0.0,0.0,0.0,0.0,0.0,0.0,0.0,0.0,0.0,0.0,0.0,0.0,0.0,0.0,0.0,0.0,0.0,0.0,0.0,0.0,0.0,0.0,0.0,0.0,0.0,0.0,0.0,0.0,0.0,0.0,0.0,0.0,0.0,0.0,0.0,0.0,0.0,0.0,-0.0,-0.0707,-0.1885,-0.2828,-0.2828,-0.33,-0.3772,1.3602,1.3602,1.3602,1.3602,1.3602,1.3602,1.3602,1.3618,1.3629,1.3629,1.3662,1.0453,0.2338,0.1277,0.0852,0.0,0.0,0.0,0.0,0.0,0.0,0.0,0.0,0.0,0.0,0.0,0.0,0.0,0.0,0.0,0.0,0.0,0.0,0.0,0.0,0.0,0.0,0.0,0.0,0.0,0.0,0.0,0.0,0.0,0.0,0.0,0.0,0.0,0.0,0.0,0.0,0.0,0.0,0.0,0.0,0.0,0.0,0.0,0.0,0.0,0.0,0.0,0.0,0.0,0.0,0.0,0.0,0.0,0.0,0.0,0.0,0.0,0.0,0.0,0.0,0.0,0.0,0.0,0.0,0.0,0.0,0.0,0.0,0.0,0.0,0.0,0.0,0.0,0.0,0.0,0.0,0.0,0.0,0.0,0.0,0.0,0.0,0.0,0.0,0.0,0.0,0.0,0.0,0.0,0.0,0.0,0.0,0.0,0.0,0.0,0.0,-0.0707,-0.1649,-0.1649,-0.2593,-0.3772,1.3602,1.3602,1.3602,1.3602,1.3602,1.3602,1.3602,1.3607,1.3607,1.3607,1.3629,1.2132,0.8279,0.6586,0.4253,0.0426,0.0,0.0,0.0,0.0,0.0,0.0,0.0,0.0,0.0,0.0,0.0,0.0,0.0,0.0,0.0,0.0,0.0,0.0,0.0,0.0,0.0,0.0,0.0,0.0,0.0,0.0,0.0,0.0,0.0,0.0,0.0,0.0,0.0,0.0,0.0,0.0,0.0,0.0,0.0,0.0,0.0,0.0,0.0,0.0,0.0,0.0,0.0,0.0,0.0,0.0,0.0,0.0,0.0,0.0,0.0,0.0,0.0,0.0,0.0,0.0,0.0,0.0,0.0,0.0,0.0,0.0,0.0,0.0,0.0,0.0,0.0,0.0,0.0,0.0,0.0,0.0,0.0,0.0,0.0,0.0,0.0,0.0,0.0,0.0,0.0,0.0,0.0,0.0,0.0,0.0,0.0,0.0,0.0,0.0,0.0,-0.0,-0.0236,-0.0236,-0.1649,-0.3772,1.3602,1.3602,1.3602,1.3602,1.3602,1.3602,1.3602,1.3602,1.3602,1.3602,1.3618,1.2989,1.1694,1.1073,0.98,0.7878,0.5317,0.3828,0.3829,0.149,0.0,0.0,0.0,0.0,0.0,0.0,0.0,0.0,0.0,0.0,0.0,0.0,0.0,0.0,0.0,0.0,0.0,0.0,0.0,0.0,0.0,0.0,0.0,0.0,0.0,0.0,0.0,0.0,0.0,0.0,0.0,0.0,0.0,0.0,0.0,0.0,0.0,0.0,0.0,0.0,0.0,0.0,0.0,0.0,0.0,0.0,0.0,0.0,0.0,0.0,0.0,0.0,0.0,0.0,0.0,0.0,0.0,0.0,0.0,0.0,0.0,0.0,0.0,0.0,0.0,0.0,0.0,0.0,0.0,0.0,0.0,0.0,0.0,0.0,0.0,0.0,0.0,0.0,0.0,0.0,0.0,0.0,0.0,0.0,0.0,0.0,0.0,0.0,0.0,0.0,0.0,0.0,0.0,0.0,-0.0707,-0.1885]}]]